<?xml version="1.0" encoding="UTF-8" standalone="no" ?>
<gpx xmlns="http://www.topografix.com/GPX/1/1" xmlns:xsi="http://www.w3.org/2001/XMLSchema-instance" xsi:schemaLocation="http://www.topografix.com/GPX/1/1 http://www.topografix.com/GPX/1/1/gpx.xsd" version="1.1" creator="VisuGPX - https://www.visugpx.com">
  <metadata>
    <name>Col du Bac 32km</name>
    <desc><![CDATA[Col du Bac 32km]]></desc>
  </metadata>
  <trk>
    <name><![CDATA[Col du Bac]]></name>
    <trkseg>
      <trkpt lat="42.98265" lon="1.93868">
        <ele>420.2</ele>
        <time>2013-11-16T08:39:29.000Z</time>
      </trkpt>
      <trkpt lat="42.98271" lon="1.93861">
        <ele>419.8</ele>
        <time>2013-11-16T08:39:34.000Z</time>
      </trkpt>
      <trkpt lat="42.98277" lon="1.93862">
        <ele>416.9</ele>
        <time>2013-11-16T08:39:38.000Z</time>
      </trkpt>
      <trkpt lat="42.9828" lon="1.93863">
        <ele>416.9</ele>
        <time>2013-11-16T08:39:39.000Z</time>
      </trkpt>
      <trkpt lat="42.98293" lon="1.93868">
        <ele>415.9</ele>
        <time>2013-11-16T08:39:46.000Z</time>
      </trkpt>
      <trkpt lat="42.98295" lon="1.93877">
        <ele>415.4</ele>
        <time>2013-11-16T08:39:51.000Z</time>
      </trkpt>
      <trkpt lat="42.98302" lon="1.93878">
        <ele>416.4</ele>
        <time>2013-11-16T08:39:58.000Z</time>
      </trkpt>
      <trkpt lat="42.98325" lon="1.93922">
        <ele>415.9</ele>
        <time>2013-11-16T08:40:31.000Z</time>
      </trkpt>
      <trkpt lat="42.98376" lon="1.93985">
        <ele>415.9</ele>
        <time>2013-11-16T08:40:48.000Z</time>
      </trkpt>
      <trkpt lat="42.98435" lon="1.9406">
        <ele>415.9</ele>
        <time>2013-11-16T08:41:07.000Z</time>
      </trkpt>
      <trkpt lat="42.98489" lon="1.94127">
        <ele>415.4</ele>
        <time>2013-11-16T08:41:23.000Z</time>
      </trkpt>
      <trkpt lat="42.98554" lon="1.94207">
        <ele>415.4</ele>
        <time>2013-11-16T08:41:41.000Z</time>
      </trkpt>
      <trkpt lat="42.98609" lon="1.94275">
        <ele>415.4</ele>
        <time>2013-11-16T08:41:56.000Z</time>
      </trkpt>
      <trkpt lat="42.98611" lon="1.9428">
        <ele>415.4</ele>
        <time>2013-11-16T08:41:57.000Z</time>
      </trkpt>
      <trkpt lat="42.98612" lon="1.94285">
        <ele>415.9</ele>
        <time>2013-11-16T08:41:58.000Z</time>
      </trkpt>
      <trkpt lat="42.98614" lon="1.943">
        <ele>416.9</ele>
        <time>2013-11-16T08:42:02.000Z</time>
      </trkpt>
      <trkpt lat="42.98612" lon="1.94303">
        <ele>415.9</ele>
        <time>2013-11-16T08:42:03.000Z</time>
      </trkpt>
      <trkpt lat="42.98604" lon="1.94313">
        <ele>414</ele>
        <time>2013-11-16T08:42:07.000Z</time>
      </trkpt>
      <trkpt lat="42.98603" lon="1.94317">
        <ele>414</ele>
        <time>2013-11-16T08:42:08.000Z</time>
      </trkpt>
      <trkpt lat="42.98598" lon="1.9435">
        <ele>415</ele>
        <time>2013-11-16T08:42:15.000Z</time>
      </trkpt>
      <trkpt lat="42.98586" lon="1.94372">
        <ele>414.5</ele>
        <time>2013-11-16T08:42:20.000Z</time>
      </trkpt>
      <trkpt lat="42.98565" lon="1.94405">
        <ele>413.5</ele>
        <time>2013-11-16T08:42:28.000Z</time>
      </trkpt>
      <trkpt lat="42.98552" lon="1.94461">
        <ele>415</ele>
        <time>2013-11-16T08:42:39.000Z</time>
      </trkpt>
      <trkpt lat="42.98548" lon="1.94472">
        <ele>415.9</ele>
        <time>2013-11-16T08:42:41.000Z</time>
      </trkpt>
      <trkpt lat="42.98545" lon="1.94486">
        <ele>415</ele>
        <time>2013-11-16T08:42:43.000Z</time>
      </trkpt>
      <trkpt lat="42.98541" lon="1.94499">
        <ele>414</ele>
        <time>2013-11-16T08:42:45.000Z</time>
      </trkpt>
      <trkpt lat="42.9854" lon="1.94505">
        <ele>414.5</ele>
        <time>2013-11-16T08:42:46.000Z</time>
      </trkpt>
      <trkpt lat="42.9854" lon="1.9451">
        <ele>414</ele>
        <time>2013-11-16T08:42:47.000Z</time>
      </trkpt>
      <trkpt lat="42.98541" lon="1.94516">
        <ele>414.5</ele>
        <time>2013-11-16T08:42:48.000Z</time>
      </trkpt>
      <trkpt lat="42.9854" lon="1.94522">
        <ele>414.5</ele>
        <time>2013-11-16T08:42:49.000Z</time>
      </trkpt>
      <trkpt lat="42.98539" lon="1.94528">
        <ele>415</ele>
        <time>2013-11-16T08:42:50.000Z</time>
      </trkpt>
      <trkpt lat="42.98538" lon="1.94534">
        <ele>415</ele>
        <time>2013-11-16T08:42:51.000Z</time>
      </trkpt>
      <trkpt lat="42.98538" lon="1.94539">
        <ele>414.5</ele>
        <time>2013-11-16T08:42:52.000Z</time>
      </trkpt>
      <trkpt lat="42.98537" lon="1.94543">
        <ele>414.5</ele>
        <time>2013-11-16T08:42:53.000Z</time>
      </trkpt>
      <trkpt lat="42.98535" lon="1.94547">
        <ele>415</ele>
        <time>2013-11-16T08:42:54.000Z</time>
      </trkpt>
      <trkpt lat="42.98534" lon="1.9455">
        <ele>414.5</ele>
        <time>2013-11-16T08:42:55.000Z</time>
      </trkpt>
      <trkpt lat="42.98532" lon="1.94555">
        <ele>413</ele>
        <time>2013-11-16T08:42:56.000Z</time>
      </trkpt>
      <trkpt lat="42.98531" lon="1.94559">
        <ele>413.5</ele>
        <time>2013-11-16T08:42:57.000Z</time>
      </trkpt>
      <trkpt lat="42.9853" lon="1.94565">
        <ele>414.5</ele>
        <time>2013-11-16T08:42:58.000Z</time>
      </trkpt>
      <trkpt lat="42.98528" lon="1.94571">
        <ele>414</ele>
        <time>2013-11-16T08:42:59.000Z</time>
      </trkpt>
      <trkpt lat="42.98527" lon="1.94577">
        <ele>413.5</ele>
        <time>2013-11-16T08:43:00.000Z</time>
      </trkpt>
      <trkpt lat="42.98526" lon="1.94582">
        <ele>414</ele>
        <time>2013-11-16T08:43:01.000Z</time>
      </trkpt>
      <trkpt lat="42.98522" lon="1.94586">
        <ele>414</ele>
        <time>2013-11-16T08:43:02.000Z</time>
      </trkpt>
      <trkpt lat="42.98521" lon="1.9459">
        <ele>413</ele>
        <time>2013-11-16T08:43:03.000Z</time>
      </trkpt>
      <trkpt lat="42.9852" lon="1.94595">
        <ele>414</ele>
        <time>2013-11-16T08:43:04.000Z</time>
      </trkpt>
      <trkpt lat="42.98519" lon="1.946">
        <ele>413.5</ele>
        <time>2013-11-16T08:43:05.000Z</time>
      </trkpt>
      <trkpt lat="42.98518" lon="1.94605">
        <ele>412.5</ele>
        <time>2013-11-16T08:43:06.000Z</time>
      </trkpt>
      <trkpt lat="42.98518" lon="1.9461">
        <ele>413.5</ele>
        <time>2013-11-16T08:43:07.000Z</time>
      </trkpt>
      <trkpt lat="42.98518" lon="1.94614">
        <ele>414</ele>
        <time>2013-11-16T08:43:08.000Z</time>
      </trkpt>
      <trkpt lat="42.98518" lon="1.9462">
        <ele>414.5</ele>
        <time>2013-11-16T08:43:09.000Z</time>
      </trkpt>
      <trkpt lat="42.98517" lon="1.94643">
        <ele>415</ele>
        <time>2013-11-16T08:43:14.000Z</time>
      </trkpt>
      <trkpt lat="42.98515" lon="1.94648">
        <ele>412.5</ele>
        <time>2013-11-16T08:43:15.000Z</time>
      </trkpt>
      <trkpt lat="42.98513" lon="1.94651">
        <ele>414</ele>
        <time>2013-11-16T08:43:16.000Z</time>
      </trkpt>
      <trkpt lat="42.98511" lon="1.94655">
        <ele>414.5</ele>
        <time>2013-11-16T08:43:17.000Z</time>
      </trkpt>
      <trkpt lat="42.98502" lon="1.94707">
        <ele>413</ele>
        <time>2013-11-16T08:43:26.000Z</time>
      </trkpt>
      <trkpt lat="42.98505" lon="1.94752">
        <ele>414</ele>
        <time>2013-11-16T08:43:35.000Z</time>
      </trkpt>
      <trkpt lat="42.985" lon="1.94789">
        <ele>413.5</ele>
        <time>2013-11-16T08:43:43.000Z</time>
      </trkpt>
      <trkpt lat="42.98497" lon="1.94803">
        <ele>413</ele>
        <time>2013-11-16T08:43:46.000Z</time>
      </trkpt>
      <trkpt lat="42.98497" lon="1.94833">
        <ele>413.5</ele>
        <time>2013-11-16T08:43:52.000Z</time>
      </trkpt>
      <trkpt lat="42.98496" lon="1.94837">
        <ele>414.5</ele>
        <time>2013-11-16T08:43:53.000Z</time>
      </trkpt>
      <trkpt lat="42.98495" lon="1.94841">
        <ele>415</ele>
        <time>2013-11-16T08:43:54.000Z</time>
      </trkpt>
      <trkpt lat="42.98494" lon="1.94846">
        <ele>414</ele>
        <time>2013-11-16T08:43:55.000Z</time>
      </trkpt>
      <trkpt lat="42.98492" lon="1.94852">
        <ele>413.5</ele>
        <time>2013-11-16T08:43:56.000Z</time>
      </trkpt>
      <trkpt lat="42.98492" lon="1.94858">
        <ele>413.5</ele>
        <time>2013-11-16T08:43:57.000Z</time>
      </trkpt>
      <trkpt lat="42.98491" lon="1.94864">
        <ele>415</ele>
        <time>2013-11-16T08:43:58.000Z</time>
      </trkpt>
      <trkpt lat="42.98487" lon="1.94923">
        <ele>414</ele>
        <time>2013-11-16T08:44:09.000Z</time>
      </trkpt>
      <trkpt lat="42.98486" lon="1.94983">
        <ele>413.5</ele>
        <time>2013-11-16T08:44:20.000Z</time>
      </trkpt>
      <trkpt lat="42.98483" lon="1.95014">
        <ele>413</ele>
        <time>2013-11-16T08:44:29.000Z</time>
      </trkpt>
      <trkpt lat="42.98483" lon="1.95017">
        <ele>414</ele>
        <time>2013-11-16T08:44:30.000Z</time>
      </trkpt>
      <trkpt lat="42.98483" lon="1.95019">
        <ele>414</ele>
        <time>2013-11-16T08:44:31.000Z</time>
      </trkpt>
      <trkpt lat="42.98482" lon="1.95023">
        <ele>413.5</ele>
        <time>2013-11-16T08:44:32.000Z</time>
      </trkpt>
      <trkpt lat="42.98482" lon="1.95061">
        <ele>412.5</ele>
        <time>2013-11-16T08:44:41.000Z</time>
      </trkpt>
      <trkpt lat="42.98491" lon="1.95094">
        <ele>414</ele>
        <time>2013-11-16T08:44:51.000Z</time>
      </trkpt>
      <trkpt lat="42.98491" lon="1.95127">
        <ele>415</ele>
        <time>2013-11-16T08:44:59.000Z</time>
      </trkpt>
      <trkpt lat="42.98491" lon="1.95156">
        <ele>415.9</ele>
        <time>2013-11-16T08:45:05.000Z</time>
      </trkpt>
      <trkpt lat="42.98491" lon="1.95161">
        <ele>415.4</ele>
        <time>2013-11-16T08:45:06.000Z</time>
      </trkpt>
      <trkpt lat="42.9849" lon="1.95172">
        <ele>415.9</ele>
        <time>2013-11-16T08:45:09.000Z</time>
      </trkpt>
      <trkpt lat="42.9849" lon="1.95177">
        <ele>414.5</ele>
        <time>2013-11-16T08:45:10.000Z</time>
      </trkpt>
      <trkpt lat="42.98489" lon="1.95186">
        <ele>415</ele>
        <time>2013-11-16T08:45:12.000Z</time>
      </trkpt>
      <trkpt lat="42.98487" lon="1.95195">
        <ele>413.5</ele>
        <time>2013-11-16T08:45:14.000Z</time>
      </trkpt>
      <trkpt lat="42.98485" lon="1.95213">
        <ele>413.5</ele>
        <time>2013-11-16T08:45:18.000Z</time>
      </trkpt>
      <trkpt lat="42.9848" lon="1.95234">
        <ele>413.5</ele>
        <time>2013-11-16T08:45:23.000Z</time>
      </trkpt>
      <trkpt lat="42.9848" lon="1.95243">
        <ele>412.1</ele>
        <time>2013-11-16T08:45:26.000Z</time>
      </trkpt>
      <trkpt lat="42.98481" lon="1.95245">
        <ele>411.6</ele>
        <time>2013-11-16T08:45:27.000Z</time>
      </trkpt>
      <trkpt lat="42.98482" lon="1.95248">
        <ele>412.5</ele>
        <time>2013-11-16T08:45:28.000Z</time>
      </trkpt>
      <trkpt lat="42.98474" lon="1.95273">
        <ele>412.5</ele>
        <time>2013-11-16T08:45:35.000Z</time>
      </trkpt>
      <trkpt lat="42.98473" lon="1.95291">
        <ele>414</ele>
        <time>2013-11-16T08:45:41.000Z</time>
      </trkpt>
      <trkpt lat="42.98473" lon="1.95294">
        <ele>413.5</ele>
        <time>2013-11-16T08:45:42.000Z</time>
      </trkpt>
      <trkpt lat="42.98469" lon="1.9532">
        <ele>414</ele>
        <time>2013-11-16T08:45:51.000Z</time>
      </trkpt>
      <trkpt lat="42.9847" lon="1.95331">
        <ele>413.5</ele>
        <time>2013-11-16T08:45:57.000Z</time>
      </trkpt>
      <trkpt lat="42.98462" lon="1.95355">
        <ele>412.5</ele>
        <time>2013-11-16T08:46:06.000Z</time>
      </trkpt>
      <trkpt lat="42.98459" lon="1.95376">
        <ele>412.5</ele>
        <time>2013-11-16T08:46:12.000Z</time>
      </trkpt>
      <trkpt lat="42.98454" lon="1.95393">
        <ele>413.5</ele>
        <time>2013-11-16T08:46:18.000Z</time>
      </trkpt>
      <trkpt lat="42.98454" lon="1.95402">
        <ele>412.5</ele>
        <time>2013-11-16T08:46:21.000Z</time>
      </trkpt>
      <trkpt lat="42.98459" lon="1.95436">
        <ele>413.5</ele>
        <time>2013-11-16T08:46:29.000Z</time>
      </trkpt>
      <trkpt lat="42.98461" lon="1.95458">
        <ele>414.5</ele>
        <time>2013-11-16T08:46:36.000Z</time>
      </trkpt>
      <trkpt lat="42.98462" lon="1.9546">
        <ele>413</ele>
        <time>2013-11-16T08:46:38.000Z</time>
      </trkpt>
      <trkpt lat="42.98467" lon="1.95468">
        <ele>414.5</ele>
        <time>2013-11-16T08:46:53.000Z</time>
      </trkpt>
      <trkpt lat="42.98473" lon="1.95473">
        <ele>413.5</ele>
        <time>2013-11-16T08:46:57.000Z</time>
      </trkpt>
      <trkpt lat="42.98479" lon="1.95475">
        <ele>412.1</ele>
        <time>2013-11-16T08:47:00.000Z</time>
      </trkpt>
      <trkpt lat="42.985" lon="1.95476">
        <ele>412.1</ele>
        <time>2013-11-16T08:47:11.000Z</time>
      </trkpt>
      <trkpt lat="42.98509" lon="1.95474">
        <ele>412.1</ele>
        <time>2013-11-16T08:47:17.000Z</time>
      </trkpt>
      <trkpt lat="42.98512" lon="1.95473">
        <ele>412.5</ele>
        <time>2013-11-16T08:47:19.000Z</time>
      </trkpt>
      <trkpt lat="42.98514" lon="1.95473">
        <ele>413</ele>
        <time>2013-11-16T08:47:20.000Z</time>
      </trkpt>
      <trkpt lat="42.98523" lon="1.9547">
        <ele>414.5</ele>
        <time>2013-11-16T08:47:25.000Z</time>
      </trkpt>
      <trkpt lat="42.98533" lon="1.95467">
        <ele>413</ele>
        <time>2013-11-16T08:47:32.000Z</time>
      </trkpt>
      <trkpt lat="42.98539" lon="1.95469">
        <ele>415.9</ele>
        <time>2013-11-16T08:47:37.000Z</time>
      </trkpt>
      <trkpt lat="42.98553" lon="1.95474">
        <ele>415.4</ele>
        <time>2013-11-16T08:47:41.000Z</time>
      </trkpt>
      <trkpt lat="42.98566" lon="1.95477">
        <ele>413</ele>
        <time>2013-11-16T08:47:45.000Z</time>
      </trkpt>
      <trkpt lat="42.98574" lon="1.95477">
        <ele>412.5</ele>
        <time>2013-11-16T08:47:47.000Z</time>
      </trkpt>
      <trkpt lat="42.98589" lon="1.95466">
        <ele>411.1</ele>
        <time>2013-11-16T08:47:53.000Z</time>
      </trkpt>
      <trkpt lat="42.98595" lon="1.95459">
        <ele>411.1</ele>
        <time>2013-11-16T08:47:56.000Z</time>
      </trkpt>
      <trkpt lat="42.98599" lon="1.95434">
        <ele>412.5</ele>
        <time>2013-11-16T08:48:04.000Z</time>
      </trkpt>
      <trkpt lat="42.98608" lon="1.95409">
        <ele>411.6</ele>
        <time>2013-11-16T08:48:12.000Z</time>
      </trkpt>
      <trkpt lat="42.98608" lon="1.954">
        <ele>412.1</ele>
        <time>2013-11-16T08:48:15.000Z</time>
      </trkpt>
      <trkpt lat="42.98611" lon="1.95377">
        <ele>412.5</ele>
        <time>2013-11-16T08:48:21.000Z</time>
      </trkpt>
      <trkpt lat="42.98612" lon="1.95365">
        <ele>413.5</ele>
        <time>2013-11-16T08:48:23.000Z</time>
      </trkpt>
      <trkpt lat="42.98629" lon="1.95326">
        <ele>411.1</ele>
        <time>2013-11-16T08:48:31.000Z</time>
      </trkpt>
      <trkpt lat="42.98634" lon="1.95281">
        <ele>411.6</ele>
        <time>2013-11-16T08:48:38.000Z</time>
      </trkpt>
      <trkpt lat="42.98663" lon="1.95227">
        <ele>410.1</ele>
        <time>2013-11-16T08:48:48.000Z</time>
      </trkpt>
      <trkpt lat="42.98666" lon="1.95215">
        <ele>410.6</ele>
        <time>2013-11-16T08:48:50.000Z</time>
      </trkpt>
      <trkpt lat="42.98678" lon="1.95172">
        <ele>412.1</ele>
        <time>2013-11-16T08:48:59.000Z</time>
      </trkpt>
      <trkpt lat="42.9868" lon="1.95167">
        <ele>411.1</ele>
        <time>2013-11-16T08:49:00.000Z</time>
      </trkpt>
      <trkpt lat="42.98682" lon="1.95162">
        <ele>411.1</ele>
        <time>2013-11-16T08:49:01.000Z</time>
      </trkpt>
      <trkpt lat="42.98703" lon="1.95133">
        <ele>410.6</ele>
        <time>2013-11-16T08:49:09.000Z</time>
      </trkpt>
      <trkpt lat="42.98708" lon="1.95121">
        <ele>411.1</ele>
        <time>2013-11-16T08:49:12.000Z</time>
      </trkpt>
      <trkpt lat="42.9872" lon="1.95106">
        <ele>410.1</ele>
        <time>2013-11-16T08:49:16.000Z</time>
      </trkpt>
      <trkpt lat="42.98727" lon="1.95092">
        <ele>410.6</ele>
        <time>2013-11-16T08:49:19.000Z</time>
      </trkpt>
      <trkpt lat="42.98733" lon="1.95075">
        <ele>410.6</ele>
        <time>2013-11-16T08:49:22.000Z</time>
      </trkpt>
      <trkpt lat="42.98764" lon="1.95013">
        <ele>410.1</ele>
        <time>2013-11-16T08:49:33.000Z</time>
      </trkpt>
      <trkpt lat="42.98774" lon="1.9499">
        <ele>410.1</ele>
        <time>2013-11-16T08:49:38.000Z</time>
      </trkpt>
      <trkpt lat="42.9878" lon="1.94957">
        <ele>410.1</ele>
        <time>2013-11-16T08:49:45.000Z</time>
      </trkpt>
      <trkpt lat="42.9878" lon="1.94935">
        <ele>409.7</ele>
        <time>2013-11-16T08:49:50.000Z</time>
      </trkpt>
      <trkpt lat="42.98782" lon="1.94918">
        <ele>404.9</ele>
        <time>2013-11-16T08:49:56.000Z</time>
      </trkpt>
      <trkpt lat="42.98782" lon="1.94918">
        <ele>409.7</ele>
        <time>2013-11-16T08:49:57.000Z</time>
      </trkpt>
      <trkpt lat="42.98782" lon="1.94918">
        <ele>410.1</ele>
        <time>2013-11-16T08:49:59.000Z</time>
      </trkpt>
      <trkpt lat="42.98784" lon="1.94914">
        <ele>410.6</ele>
        <time>2013-11-16T08:50:24.000Z</time>
      </trkpt>
      <trkpt lat="42.98802" lon="1.94886">
        <ele>409.2</ele>
        <time>2013-11-16T08:50:33.000Z</time>
      </trkpt>
      <trkpt lat="42.98811" lon="1.94885">
        <ele>409.2</ele>
        <time>2013-11-16T08:50:38.000Z</time>
      </trkpt>
      <trkpt lat="42.98835" lon="1.94891">
        <ele>408.2</ele>
        <time>2013-11-16T08:50:47.000Z</time>
      </trkpt>
      <trkpt lat="42.98862" lon="1.94918">
        <ele>409.7</ele>
        <time>2013-11-16T08:50:58.000Z</time>
      </trkpt>
      <trkpt lat="42.98867" lon="1.94916">
        <ele>411.1</ele>
        <time>2013-11-16T08:51:02.000Z</time>
      </trkpt>
      <trkpt lat="42.98889" lon="1.94923">
        <ele>409.7</ele>
        <time>2013-11-16T08:51:12.000Z</time>
      </trkpt>
      <trkpt lat="42.98895" lon="1.94919">
        <ele>409.2</ele>
        <time>2013-11-16T08:51:15.000Z</time>
      </trkpt>
      <trkpt lat="42.98901" lon="1.94911">
        <ele>409.2</ele>
        <time>2013-11-16T08:51:18.000Z</time>
      </trkpt>
      <trkpt lat="42.98922" lon="1.949">
        <ele>410.1</ele>
        <time>2013-11-16T08:51:27.000Z</time>
      </trkpt>
      <trkpt lat="42.98934" lon="1.94905">
        <ele>409.7</ele>
        <time>2013-11-16T08:51:32.000Z</time>
      </trkpt>
      <trkpt lat="42.98965" lon="1.94891">
        <ele>409.7</ele>
        <time>2013-11-16T08:51:42.000Z</time>
      </trkpt>
      <trkpt lat="42.9899" lon="1.94887">
        <ele>409.7</ele>
        <time>2013-11-16T08:51:49.000Z</time>
      </trkpt>
      <trkpt lat="42.98997" lon="1.94883">
        <ele>409.7</ele>
        <time>2013-11-16T08:51:51.000Z</time>
      </trkpt>
      <trkpt lat="42.99021" lon="1.94869">
        <ele>409.7</ele>
        <time>2013-11-16T08:51:59.000Z</time>
      </trkpt>
      <trkpt lat="42.99034" lon="1.94856">
        <ele>408.7</ele>
        <time>2013-11-16T08:52:03.000Z</time>
      </trkpt>
      <trkpt lat="42.99057" lon="1.94822">
        <ele>409.2</ele>
        <time>2013-11-16T08:52:13.000Z</time>
      </trkpt>
      <trkpt lat="42.99064" lon="1.94805">
        <ele>410.6</ele>
        <time>2013-11-16T08:52:18.000Z</time>
      </trkpt>
      <trkpt lat="42.99076" lon="1.94779">
        <ele>409.2</ele>
        <time>2013-11-16T08:52:24.000Z</time>
      </trkpt>
      <trkpt lat="42.99093" lon="1.94766">
        <ele>408.7</ele>
        <time>2013-11-16T08:52:30.000Z</time>
      </trkpt>
      <trkpt lat="42.99111" lon="1.94771">
        <ele>407.7</ele>
        <time>2013-11-16T08:52:37.000Z</time>
      </trkpt>
      <trkpt lat="42.9912" lon="1.94784">
        <ele>408.2</ele>
        <time>2013-11-16T08:52:41.000Z</time>
      </trkpt>
      <trkpt lat="42.99119" lon="1.94823">
        <ele>407.3</ele>
        <time>2013-11-16T08:52:50.000Z</time>
      </trkpt>
      <trkpt lat="42.99119" lon="1.94827">
        <ele>409.7</ele>
        <time>2013-11-16T08:52:51.000Z</time>
      </trkpt>
      <trkpt lat="42.99116" lon="1.94838">
        <ele>407.3</ele>
        <time>2013-11-16T08:52:54.000Z</time>
      </trkpt>
      <trkpt lat="42.99116" lon="1.94841">
        <ele>407.3</ele>
        <time>2013-11-16T08:52:55.000Z</time>
      </trkpt>
      <trkpt lat="42.9912" lon="1.94847">
        <ele>408.7</ele>
        <time>2013-11-16T08:52:57.000Z</time>
      </trkpt>
      <trkpt lat="42.99122" lon="1.94852">
        <ele>408.2</ele>
        <time>2013-11-16T08:52:59.000Z</time>
      </trkpt>
      <trkpt lat="42.99127" lon="1.94872">
        <ele>409.7</ele>
        <time>2013-11-16T08:53:07.000Z</time>
      </trkpt>
      <trkpt lat="42.99126" lon="1.94883">
        <ele>410.6</ele>
        <time>2013-11-16T08:53:12.000Z</time>
      </trkpt>
      <trkpt lat="42.99124" lon="1.94889">
        <ele>411.1</ele>
        <time>2013-11-16T08:53:15.000Z</time>
      </trkpt>
      <trkpt lat="42.99118" lon="1.94894">
        <ele>410.6</ele>
        <time>2013-11-16T08:53:19.000Z</time>
      </trkpt>
      <trkpt lat="42.99114" lon="1.94897">
        <ele>408.7</ele>
        <time>2013-11-16T08:53:22.000Z</time>
      </trkpt>
      <trkpt lat="42.99108" lon="1.94915">
        <ele>407.3</ele>
        <time>2013-11-16T08:53:31.000Z</time>
      </trkpt>
      <trkpt lat="42.99106" lon="1.94918">
        <ele>408.2</ele>
        <time>2013-11-16T08:53:33.000Z</time>
      </trkpt>
      <trkpt lat="42.99106" lon="1.94923">
        <ele>408.2</ele>
        <time>2013-11-16T08:53:36.000Z</time>
      </trkpt>
      <trkpt lat="42.99105" lon="1.94943">
        <ele>407.3</ele>
        <time>2013-11-16T08:53:42.000Z</time>
      </trkpt>
      <trkpt lat="42.99111" lon="1.94959">
        <ele>408.2</ele>
        <time>2013-11-16T08:53:46.000Z</time>
      </trkpt>
      <trkpt lat="42.99112" lon="1.94987">
        <ele>408.7</ele>
        <time>2013-11-16T08:53:54.000Z</time>
      </trkpt>
      <trkpt lat="42.99102" lon="1.9499">
        <ele>408.7</ele>
        <time>2013-11-16T08:53:59.000Z</time>
      </trkpt>
      <trkpt lat="42.99088" lon="1.94988">
        <ele>408.2</ele>
        <time>2013-11-16T08:54:06.000Z</time>
      </trkpt>
      <trkpt lat="42.99073" lon="1.95017">
        <ele>412.1</ele>
        <time>2013-11-16T08:54:17.000Z</time>
      </trkpt>
      <trkpt lat="42.99064" lon="1.95026">
        <ele>409.2</ele>
        <time>2013-11-16T08:54:24.000Z</time>
      </trkpt>
      <trkpt lat="42.99056" lon="1.95049">
        <ele>410.1</ele>
        <time>2013-11-16T08:54:32.000Z</time>
      </trkpt>
      <trkpt lat="42.99046" lon="1.95076">
        <ele>409.2</ele>
        <time>2013-11-16T08:54:40.000Z</time>
      </trkpt>
      <trkpt lat="42.99045" lon="1.95095">
        <ele>409.7</ele>
        <time>2013-11-16T08:54:46.000Z</time>
      </trkpt>
      <trkpt lat="42.99038" lon="1.95137">
        <ele>408.7</ele>
        <time>2013-11-16T08:54:56.000Z</time>
      </trkpt>
      <trkpt lat="42.9904" lon="1.95163">
        <ele>408.7</ele>
        <time>2013-11-16T08:55:04.000Z</time>
      </trkpt>
      <trkpt lat="42.99046" lon="1.95179">
        <ele>407.3</ele>
        <time>2013-11-16T08:55:09.000Z</time>
      </trkpt>
      <trkpt lat="42.99053" lon="1.95187">
        <ele>408.7</ele>
        <time>2013-11-16T08:55:13.000Z</time>
      </trkpt>
      <trkpt lat="42.99056" lon="1.95194">
        <ele>407.7</ele>
        <time>2013-11-16T08:55:15.000Z</time>
      </trkpt>
      <trkpt lat="42.99068" lon="1.95219">
        <ele>409.2</ele>
        <time>2013-11-16T08:55:23.000Z</time>
      </trkpt>
      <trkpt lat="42.99069" lon="1.95227">
        <ele>408.7</ele>
        <time>2013-11-16T08:55:25.000Z</time>
      </trkpt>
      <trkpt lat="42.99084" lon="1.95264">
        <ele>408.2</ele>
        <time>2013-11-16T08:55:34.000Z</time>
      </trkpt>
      <trkpt lat="42.99085" lon="1.95268">
        <ele>407.7</ele>
        <time>2013-11-16T08:55:35.000Z</time>
      </trkpt>
      <trkpt lat="42.99087" lon="1.95275">
        <ele>409.2</ele>
        <time>2013-11-16T08:55:37.000Z</time>
      </trkpt>
      <trkpt lat="42.99086" lon="1.95281">
        <ele>408.2</ele>
        <time>2013-11-16T08:55:39.000Z</time>
      </trkpt>
      <trkpt lat="42.99081" lon="1.95295">
        <ele>409.7</ele>
        <time>2013-11-16T08:55:45.000Z</time>
      </trkpt>
      <trkpt lat="42.99086" lon="1.95318">
        <ele>409.2</ele>
        <time>2013-11-16T08:55:50.000Z</time>
      </trkpt>
      <trkpt lat="42.9909" lon="1.95331">
        <ele>411.1</ele>
        <time>2013-11-16T08:55:53.000Z</time>
      </trkpt>
      <trkpt lat="42.9909" lon="1.95337">
        <ele>412.5</ele>
        <time>2013-11-16T08:55:55.000Z</time>
      </trkpt>
      <trkpt lat="42.99086" lon="1.95362">
        <ele>410.6</ele>
        <time>2013-11-16T08:56:03.000Z</time>
      </trkpt>
      <trkpt lat="42.99086" lon="1.9537">
        <ele>410.1</ele>
        <time>2013-11-16T08:56:15.000Z</time>
      </trkpt>
      <trkpt lat="42.99086" lon="1.9537">
        <ele>409.7</ele>
        <time>2013-11-16T08:56:42.000Z</time>
      </trkpt>
      <trkpt lat="42.99086" lon="1.95372">
        <ele>410.6</ele>
        <time>2013-11-16T08:58:05.000Z</time>
      </trkpt>
      <trkpt lat="42.99086" lon="1.95378">
        <ele>410.1</ele>
        <time>2013-11-16T08:58:09.000Z</time>
      </trkpt>
      <trkpt lat="42.99083" lon="1.95392">
        <ele>411.1</ele>
        <time>2013-11-16T08:58:14.000Z</time>
      </trkpt>
      <trkpt lat="42.99084" lon="1.95402">
        <ele>409.2</ele>
        <time>2013-11-16T08:58:17.000Z</time>
      </trkpt>
      <trkpt lat="42.99078" lon="1.9544">
        <ele>412.5</ele>
        <time>2013-11-16T08:58:28.000Z</time>
      </trkpt>
      <trkpt lat="42.99059" lon="1.95471">
        <ele>410.6</ele>
        <time>2013-11-16T08:58:37.000Z</time>
      </trkpt>
      <trkpt lat="42.99048" lon="1.95483">
        <ele>409.7</ele>
        <time>2013-11-16T08:58:41.000Z</time>
      </trkpt>
      <trkpt lat="42.99046" lon="1.95486">
        <ele>411.1</ele>
        <time>2013-11-16T08:58:42.000Z</time>
      </trkpt>
      <trkpt lat="42.99046" lon="1.95496">
        <ele>409.2</ele>
        <time>2013-11-16T08:58:44.000Z</time>
      </trkpt>
      <trkpt lat="42.99067" lon="1.95519">
        <ele>409.7</ele>
        <time>2013-11-16T08:58:53.000Z</time>
      </trkpt>
      <trkpt lat="42.99069" lon="1.95519">
        <ele>410.6</ele>
        <time>2013-11-16T08:58:54.000Z</time>
      </trkpt>
      <trkpt lat="42.99082" lon="1.95513">
        <ele>411.6</ele>
        <time>2013-11-16T08:58:59.000Z</time>
      </trkpt>
      <trkpt lat="42.99095" lon="1.95516">
        <ele>410.6</ele>
        <time>2013-11-16T08:59:03.000Z</time>
      </trkpt>
      <trkpt lat="42.99106" lon="1.95525">
        <ele>409.2</ele>
        <time>2013-11-16T08:59:06.000Z</time>
      </trkpt>
      <trkpt lat="42.99128" lon="1.95529">
        <ele>408.7</ele>
        <time>2013-11-16T08:59:12.000Z</time>
      </trkpt>
      <trkpt lat="42.99164" lon="1.95541">
        <ele>407.3</ele>
        <time>2013-11-16T08:59:22.000Z</time>
      </trkpt>
      <trkpt lat="42.9917" lon="1.9554">
        <ele>409.2</ele>
        <time>2013-11-16T08:59:31.000Z</time>
      </trkpt>
      <trkpt lat="42.99173" lon="1.9554">
        <ele>410.1</ele>
        <time>2013-11-16T08:59:38.000Z</time>
      </trkpt>
      <trkpt lat="42.99175" lon="1.95541">
        <ele>408.7</ele>
        <time>2013-11-16T08:59:46.000Z</time>
      </trkpt>
      <trkpt lat="42.99178" lon="1.95542">
        <ele>409.2</ele>
        <time>2013-11-16T08:59:47.000Z</time>
      </trkpt>
      <trkpt lat="42.99179" lon="1.95543">
        <ele>408.7</ele>
        <time>2013-11-16T08:59:48.000Z</time>
      </trkpt>
      <trkpt lat="42.99181" lon="1.95544">
        <ele>408.7</ele>
        <time>2013-11-16T08:59:49.000Z</time>
      </trkpt>
      <trkpt lat="42.99183" lon="1.95544">
        <ele>407.7</ele>
        <time>2013-11-16T08:59:50.000Z</time>
      </trkpt>
      <trkpt lat="42.99185" lon="1.95546">
        <ele>406.8</ele>
        <time>2013-11-16T08:59:51.000Z</time>
      </trkpt>
      <trkpt lat="42.99188" lon="1.95548">
        <ele>408.7</ele>
        <time>2013-11-16T08:59:53.000Z</time>
      </trkpt>
      <trkpt lat="42.9919" lon="1.95549">
        <ele>407.3</ele>
        <time>2013-11-16T08:59:54.000Z</time>
      </trkpt>
      <trkpt lat="42.99191" lon="1.95552">
        <ele>407.3</ele>
        <time>2013-11-16T08:59:55.000Z</time>
      </trkpt>
      <trkpt lat="42.99192" lon="1.95554">
        <ele>406.8</ele>
        <time>2013-11-16T08:59:56.000Z</time>
      </trkpt>
      <trkpt lat="42.99193" lon="1.95558">
        <ele>407.7</ele>
        <time>2013-11-16T08:59:57.000Z</time>
      </trkpt>
      <trkpt lat="42.99196" lon="1.95561">
        <ele>406.8</ele>
        <time>2013-11-16T08:59:58.000Z</time>
      </trkpt>
      <trkpt lat="42.99198" lon="1.95563">
        <ele>406.3</ele>
        <time>2013-11-16T08:59:59.000Z</time>
      </trkpt>
      <trkpt lat="42.992" lon="1.95565">
        <ele>407.3</ele>
        <time>2013-11-16T09:00:00.000Z</time>
      </trkpt>
      <trkpt lat="42.99201" lon="1.95567">
        <ele>406.3</ele>
        <time>2013-11-16T09:00:01.000Z</time>
      </trkpt>
      <trkpt lat="42.99202" lon="1.95569">
        <ele>406.3</ele>
        <time>2013-11-16T09:00:02.000Z</time>
      </trkpt>
      <trkpt lat="42.99204" lon="1.95572">
        <ele>405.3</ele>
        <time>2013-11-16T09:00:03.000Z</time>
      </trkpt>
      <trkpt lat="42.99206" lon="1.95574">
        <ele>405.8</ele>
        <time>2013-11-16T09:00:04.000Z</time>
      </trkpt>
      <trkpt lat="42.99215" lon="1.95587">
        <ele>409.2</ele>
        <time>2013-11-16T09:00:11.000Z</time>
      </trkpt>
      <trkpt lat="42.99228" lon="1.95599">
        <ele>409.2</ele>
        <time>2013-11-16T09:00:21.000Z</time>
      </trkpt>
      <trkpt lat="42.9923" lon="1.95599">
        <ele>409.2</ele>
        <time>2013-11-16T09:00:22.000Z</time>
      </trkpt>
      <trkpt lat="42.99233" lon="1.95599">
        <ele>407.7</ele>
        <time>2013-11-16T09:00:23.000Z</time>
      </trkpt>
      <trkpt lat="42.99235" lon="1.95598">
        <ele>408.2</ele>
        <time>2013-11-16T09:00:24.000Z</time>
      </trkpt>
      <trkpt lat="42.99238" lon="1.95598">
        <ele>408.2</ele>
        <time>2013-11-16T09:00:25.000Z</time>
      </trkpt>
      <trkpt lat="42.99242" lon="1.95597">
        <ele>408.7</ele>
        <time>2013-11-16T09:00:27.000Z</time>
      </trkpt>
      <trkpt lat="42.99245" lon="1.95596">
        <ele>407.7</ele>
        <time>2013-11-16T09:00:28.000Z</time>
      </trkpt>
      <trkpt lat="42.99247" lon="1.95596">
        <ele>407.7</ele>
        <time>2013-11-16T09:00:29.000Z</time>
      </trkpt>
      <trkpt lat="42.99249" lon="1.95595">
        <ele>406.8</ele>
        <time>2013-11-16T09:00:30.000Z</time>
      </trkpt>
      <trkpt lat="42.99251" lon="1.95593">
        <ele>407.3</ele>
        <time>2013-11-16T09:00:31.000Z</time>
      </trkpt>
      <trkpt lat="42.99255" lon="1.95592">
        <ele>408.2</ele>
        <time>2013-11-16T09:00:33.000Z</time>
      </trkpt>
      <trkpt lat="42.99258" lon="1.95593">
        <ele>407.3</ele>
        <time>2013-11-16T09:00:34.000Z</time>
      </trkpt>
      <trkpt lat="42.99275" lon="1.95602">
        <ele>406.8</ele>
        <time>2013-11-16T09:00:39.000Z</time>
      </trkpt>
      <trkpt lat="42.99279" lon="1.95603">
        <ele>407.7</ele>
        <time>2013-11-16T09:00:40.000Z</time>
      </trkpt>
      <trkpt lat="42.99289" lon="1.95608">
        <ele>407.3</ele>
        <time>2013-11-16T09:00:43.000Z</time>
      </trkpt>
      <trkpt lat="42.99295" lon="1.95613">
        <ele>408.2</ele>
        <time>2013-11-16T09:00:50.000Z</time>
      </trkpt>
      <trkpt lat="42.99296" lon="1.95615">
        <ele>407.7</ele>
        <time>2013-11-16T09:00:51.000Z</time>
      </trkpt>
      <trkpt lat="42.99298" lon="1.95617">
        <ele>407.7</ele>
        <time>2013-11-16T09:00:52.000Z</time>
      </trkpt>
      <trkpt lat="42.99336" lon="1.95636">
        <ele>409.2</ele>
        <time>2013-11-16T09:01:05.000Z</time>
      </trkpt>
      <trkpt lat="42.99361" lon="1.95656">
        <ele>410.6</ele>
        <time>2013-11-16T09:01:15.000Z</time>
      </trkpt>
      <trkpt lat="42.9939" lon="1.95683">
        <ele>407.7</ele>
        <time>2013-11-16T09:01:26.000Z</time>
      </trkpt>
      <trkpt lat="42.99422" lon="1.95697">
        <ele>409.2</ele>
        <time>2013-11-16T09:01:38.000Z</time>
      </trkpt>
      <trkpt lat="42.99438" lon="1.95702">
        <ele>408.2</ele>
        <time>2013-11-16T09:01:46.000Z</time>
      </trkpt>
      <trkpt lat="42.99456" lon="1.95705">
        <ele>407.7</ele>
        <time>2013-11-16T09:01:56.000Z</time>
      </trkpt>
      <trkpt lat="42.99457" lon="1.95705">
        <ele>407.3</ele>
        <time>2013-11-16T09:02:12.000Z</time>
      </trkpt>
      <trkpt lat="42.99459" lon="1.95704">
        <ele>405.8</ele>
        <time>2013-11-16T09:02:13.000Z</time>
      </trkpt>
      <trkpt lat="42.99462" lon="1.95703">
        <ele>406.3</ele>
        <time>2013-11-16T09:02:14.000Z</time>
      </trkpt>
      <trkpt lat="42.99464" lon="1.95702">
        <ele>406.3</ele>
        <time>2013-11-16T09:02:15.000Z</time>
      </trkpt>
      <trkpt lat="42.99467" lon="1.95702">
        <ele>405.3</ele>
        <time>2013-11-16T09:02:16.000Z</time>
      </trkpt>
      <trkpt lat="42.9947" lon="1.95703">
        <ele>407.3</ele>
        <time>2013-11-16T09:02:17.000Z</time>
      </trkpt>
      <trkpt lat="42.99474" lon="1.95703">
        <ele>405.3</ele>
        <time>2013-11-16T09:02:18.000Z</time>
      </trkpt>
      <trkpt lat="42.99478" lon="1.95703">
        <ele>405.8</ele>
        <time>2013-11-16T09:02:19.000Z</time>
      </trkpt>
      <trkpt lat="42.99482" lon="1.95704">
        <ele>406.3</ele>
        <time>2013-11-16T09:02:20.000Z</time>
      </trkpt>
      <trkpt lat="42.99486" lon="1.95705">
        <ele>405.3</ele>
        <time>2013-11-16T09:02:21.000Z</time>
      </trkpt>
      <trkpt lat="42.99491" lon="1.95705">
        <ele>404.4</ele>
        <time>2013-11-16T09:02:22.000Z</time>
      </trkpt>
      <trkpt lat="42.99495" lon="1.95706">
        <ele>404.4</ele>
        <time>2013-11-16T09:02:23.000Z</time>
      </trkpt>
      <trkpt lat="42.9952" lon="1.95711">
        <ele>402</ele>
        <time>2013-11-16T09:02:28.000Z</time>
      </trkpt>
      <trkpt lat="42.99588" lon="1.95743">
        <ele>398.1</ele>
        <time>2013-11-16T09:02:40.000Z</time>
      </trkpt>
      <trkpt lat="42.99605" lon="1.95756">
        <ele>397.2</ele>
        <time>2013-11-16T09:02:43.000Z</time>
      </trkpt>
      <trkpt lat="42.99634" lon="1.95791">
        <ele>393.8</ele>
        <time>2013-11-16T09:02:49.000Z</time>
      </trkpt>
      <trkpt lat="42.99645" lon="1.95804">
        <ele>393.3</ele>
        <time>2013-11-16T09:02:51.000Z</time>
      </trkpt>
      <trkpt lat="42.99682" lon="1.95854">
        <ele>390.9</ele>
        <time>2013-11-16T09:02:58.000Z</time>
      </trkpt>
      <trkpt lat="42.99691" lon="1.95869">
        <ele>390</ele>
        <time>2013-11-16T09:03:00.000Z</time>
      </trkpt>
      <trkpt lat="42.99695" lon="1.95878">
        <ele>390.9</ele>
        <time>2013-11-16T09:03:01.000Z</time>
      </trkpt>
      <trkpt lat="42.99698" lon="1.95887">
        <ele>387.1</ele>
        <time>2013-11-16T09:03:02.000Z</time>
      </trkpt>
      <trkpt lat="42.99704" lon="1.95906">
        <ele>386.1</ele>
        <time>2013-11-16T09:03:04.000Z</time>
      </trkpt>
      <trkpt lat="42.99708" lon="1.95915">
        <ele>385.6</ele>
        <time>2013-11-16T09:03:05.000Z</time>
      </trkpt>
      <trkpt lat="42.99712" lon="1.95924">
        <ele>385.6</ele>
        <time>2013-11-16T09:03:06.000Z</time>
      </trkpt>
      <trkpt lat="42.99717" lon="1.95932">
        <ele>385.2</ele>
        <time>2013-11-16T09:03:07.000Z</time>
      </trkpt>
      <trkpt lat="42.99734" lon="1.95958">
        <ele>383.2</ele>
        <time>2013-11-16T09:03:10.000Z</time>
      </trkpt>
      <trkpt lat="42.9974" lon="1.95966">
        <ele>381.3</ele>
        <time>2013-11-16T09:03:11.000Z</time>
      </trkpt>
      <trkpt lat="42.99747" lon="1.95973">
        <ele>380.3</ele>
        <time>2013-11-16T09:03:12.000Z</time>
      </trkpt>
      <trkpt lat="42.99755" lon="1.95979">
        <ele>380.3</ele>
        <time>2013-11-16T09:03:13.000Z</time>
      </trkpt>
      <trkpt lat="42.99763" lon="1.95985">
        <ele>379.4</ele>
        <time>2013-11-16T09:03:14.000Z</time>
      </trkpt>
      <trkpt lat="42.99772" lon="1.95989">
        <ele>377.9</ele>
        <time>2013-11-16T09:03:15.000Z</time>
      </trkpt>
      <trkpt lat="42.99782" lon="1.95991">
        <ele>376.5</ele>
        <time>2013-11-16T09:03:16.000Z</time>
      </trkpt>
      <trkpt lat="42.99792" lon="1.95992">
        <ele>377.5</ele>
        <time>2013-11-16T09:03:17.000Z</time>
      </trkpt>
      <trkpt lat="42.99844" lon="1.96009">
        <ele>373.1</ele>
        <time>2013-11-16T09:03:22.000Z</time>
      </trkpt>
      <trkpt lat="42.99854" lon="1.96017">
        <ele>372.2</ele>
        <time>2013-11-16T09:03:23.000Z</time>
      </trkpt>
      <trkpt lat="42.99865" lon="1.96023">
        <ele>369.3</ele>
        <time>2013-11-16T09:03:24.000Z</time>
      </trkpt>
      <trkpt lat="42.99875" lon="1.96026">
        <ele>369.8</ele>
        <time>2013-11-16T09:03:25.000Z</time>
      </trkpt>
      <trkpt lat="42.99886" lon="1.96026">
        <ele>370.2</ele>
        <time>2013-11-16T09:03:26.000Z</time>
      </trkpt>
      <trkpt lat="42.99896" lon="1.96026">
        <ele>368.8</ele>
        <time>2013-11-16T09:03:27.000Z</time>
      </trkpt>
      <trkpt lat="42.99905" lon="1.96027">
        <ele>368.3</ele>
        <time>2013-11-16T09:03:28.000Z</time>
      </trkpt>
      <trkpt lat="42.99914" lon="1.9603">
        <ele>367.4</ele>
        <time>2013-11-16T09:03:29.000Z</time>
      </trkpt>
      <trkpt lat="42.99922" lon="1.96034">
        <ele>366.9</ele>
        <time>2013-11-16T09:03:30.000Z</time>
      </trkpt>
      <trkpt lat="42.99929" lon="1.96038">
        <ele>366.9</ele>
        <time>2013-11-16T09:03:31.000Z</time>
      </trkpt>
      <trkpt lat="42.99936" lon="1.96043">
        <ele>367.8</ele>
        <time>2013-11-16T09:03:32.000Z</time>
      </trkpt>
      <trkpt lat="42.99943" lon="1.9605">
        <ele>368.3</ele>
        <time>2013-11-16T09:03:33.000Z</time>
      </trkpt>
      <trkpt lat="42.99948" lon="1.96056">
        <ele>367.8</ele>
        <time>2013-11-16T09:03:34.000Z</time>
      </trkpt>
      <trkpt lat="42.99954" lon="1.96063">
        <ele>367.4</ele>
        <time>2013-11-16T09:03:35.000Z</time>
      </trkpt>
      <trkpt lat="42.99985" lon="1.96104">
        <ele>366.4</ele>
        <time>2013-11-16T09:03:41.000Z</time>
      </trkpt>
      <trkpt lat="42.99991" lon="1.96109">
        <ele>365.9</ele>
        <time>2013-11-16T09:03:42.000Z</time>
      </trkpt>
      <trkpt lat="43.00064" lon="1.9617">
        <ele>365.9</ele>
        <time>2013-11-16T09:03:55.000Z</time>
      </trkpt>
      <trkpt lat="43.00109" lon="1.96208">
        <ele>366.4</ele>
        <time>2013-11-16T09:04:05.000Z</time>
      </trkpt>
      <trkpt lat="43.00115" lon="1.96215">
        <ele>365.9</ele>
        <time>2013-11-16T09:04:07.000Z</time>
      </trkpt>
      <trkpt lat="43.00119" lon="1.96218">
        <ele>366.9</ele>
        <time>2013-11-16T09:04:08.000Z</time>
      </trkpt>
      <trkpt lat="43.00123" lon="1.9622">
        <ele>366.9</ele>
        <time>2013-11-16T09:04:09.000Z</time>
      </trkpt>
      <trkpt lat="43.00127" lon="1.96221">
        <ele>365.9</ele>
        <time>2013-11-16T09:04:10.000Z</time>
      </trkpt>
      <trkpt lat="43.00131" lon="1.96222">
        <ele>365.4</ele>
        <time>2013-11-16T09:04:11.000Z</time>
      </trkpt>
      <trkpt lat="43.00136" lon="1.96223">
        <ele>365.4</ele>
        <time>2013-11-16T09:04:12.000Z</time>
      </trkpt>
      <trkpt lat="43.00142" lon="1.96222">
        <ele>365.9</ele>
        <time>2013-11-16T09:04:13.000Z</time>
      </trkpt>
      <trkpt lat="43.00163" lon="1.96221">
        <ele>363</ele>
        <time>2013-11-16T09:04:16.000Z</time>
      </trkpt>
      <trkpt lat="43.00171" lon="1.96219">
        <ele>364</ele>
        <time>2013-11-16T09:04:17.000Z</time>
      </trkpt>
      <trkpt lat="43.00178" lon="1.96216">
        <ele>362.1</ele>
        <time>2013-11-16T09:04:18.000Z</time>
      </trkpt>
      <trkpt lat="43.00185" lon="1.96212">
        <ele>361.6</ele>
        <time>2013-11-16T09:04:19.000Z</time>
      </trkpt>
      <trkpt lat="43.00192" lon="1.96208">
        <ele>362.1</ele>
        <time>2013-11-16T09:04:20.000Z</time>
      </trkpt>
      <trkpt lat="43.00198" lon="1.96204">
        <ele>363</ele>
        <time>2013-11-16T09:04:21.000Z</time>
      </trkpt>
      <trkpt lat="43.00204" lon="1.962">
        <ele>362.1</ele>
        <time>2013-11-16T09:04:22.000Z</time>
      </trkpt>
      <trkpt lat="43.00216" lon="1.96194">
        <ele>361.1</ele>
        <time>2013-11-16T09:04:24.000Z</time>
      </trkpt>
      <trkpt lat="43.00221" lon="1.96192">
        <ele>362.1</ele>
        <time>2013-11-16T09:04:25.000Z</time>
      </trkpt>
      <trkpt lat="43.00227" lon="1.96191">
        <ele>362.6</ele>
        <time>2013-11-16T09:04:26.000Z</time>
      </trkpt>
      <trkpt lat="43.00322" lon="1.96181">
        <ele>360.6</ele>
        <time>2013-11-16T09:04:41.000Z</time>
      </trkpt>
      <trkpt lat="43.00395" lon="1.96187">
        <ele>358.7</ele>
        <time>2013-11-16T09:04:52.000Z</time>
      </trkpt>
      <trkpt lat="43.00418" lon="1.9619">
        <ele>357.8</ele>
        <time>2013-11-16T09:04:55.000Z</time>
      </trkpt>
      <trkpt lat="43.00426" lon="1.96188">
        <ele>357.8</ele>
        <time>2013-11-16T09:04:56.000Z</time>
      </trkpt>
      <trkpt lat="43.00432" lon="1.96184">
        <ele>357.8</ele>
        <time>2013-11-16T09:04:57.000Z</time>
      </trkpt>
      <trkpt lat="43.00438" lon="1.96178">
        <ele>357.3</ele>
        <time>2013-11-16T09:04:58.000Z</time>
      </trkpt>
      <trkpt lat="43.00441" lon="1.9617">
        <ele>357.3</ele>
        <time>2013-11-16T09:04:59.000Z</time>
      </trkpt>
      <trkpt lat="43.00444" lon="1.96162">
        <ele>357.3</ele>
        <time>2013-11-16T09:05:00.000Z</time>
      </trkpt>
      <trkpt lat="43.00446" lon="1.96155">
        <ele>356.8</ele>
        <time>2013-11-16T09:05:01.000Z</time>
      </trkpt>
      <trkpt lat="43.00456" lon="1.96096">
        <ele>357.8</ele>
        <time>2013-11-16T09:05:09.000Z</time>
      </trkpt>
      <trkpt lat="43.00456" lon="1.96089">
        <ele>357.8</ele>
        <time>2013-11-16T09:05:10.000Z</time>
      </trkpt>
      <trkpt lat="43.00453" lon="1.96062">
        <ele>358.7</ele>
        <time>2013-11-16T09:05:14.000Z</time>
      </trkpt>
      <trkpt lat="43.00453" lon="1.96057">
        <ele>358.2</ele>
        <time>2013-11-16T09:05:15.000Z</time>
      </trkpt>
      <trkpt lat="43.00455" lon="1.96051">
        <ele>358.2</ele>
        <time>2013-11-16T09:05:16.000Z</time>
      </trkpt>
      <trkpt lat="43.00458" lon="1.96047">
        <ele>358.7</ele>
        <time>2013-11-16T09:05:17.000Z</time>
      </trkpt>
      <trkpt lat="43.0046" lon="1.96044">
        <ele>359.2</ele>
        <time>2013-11-16T09:05:18.000Z</time>
      </trkpt>
      <trkpt lat="43.00463" lon="1.96041">
        <ele>359.2</ele>
        <time>2013-11-16T09:05:19.000Z</time>
      </trkpt>
      <trkpt lat="43.00465" lon="1.96038">
        <ele>358.7</ele>
        <time>2013-11-16T09:05:20.000Z</time>
      </trkpt>
      <trkpt lat="43.00466" lon="1.96034">
        <ele>360.6</ele>
        <time>2013-11-16T09:05:21.000Z</time>
      </trkpt>
      <trkpt lat="43.00467" lon="1.9603">
        <ele>359.7</ele>
        <time>2013-11-16T09:05:22.000Z</time>
      </trkpt>
      <trkpt lat="43.00466" lon="1.96027">
        <ele>358.7</ele>
        <time>2013-11-16T09:05:23.000Z</time>
      </trkpt>
      <trkpt lat="43.00466" lon="1.96024">
        <ele>359.7</ele>
        <time>2013-11-16T09:05:24.000Z</time>
      </trkpt>
      <trkpt lat="43.00466" lon="1.96021">
        <ele>359.2</ele>
        <time>2013-11-16T09:05:25.000Z</time>
      </trkpt>
      <trkpt lat="43.00466" lon="1.96018">
        <ele>359.2</ele>
        <time>2013-11-16T09:05:26.000Z</time>
      </trkpt>
      <trkpt lat="43.00466" lon="1.96011">
        <ele>359.2</ele>
        <time>2013-11-16T09:05:37.000Z</time>
      </trkpt>
      <trkpt lat="43.00467" lon="1.96006">
        <ele>357.8</ele>
        <time>2013-11-16T09:06:03.000Z</time>
      </trkpt>
      <trkpt lat="43.00467" lon="1.96006">
        <ele>358.2</ele>
        <time>2013-11-16T09:06:31.000Z</time>
      </trkpt>
      <trkpt lat="43.00467" lon="1.96006">
        <ele>356.3</ele>
        <time>2013-11-16T09:07:27.000Z</time>
      </trkpt>
      <trkpt lat="43.00467" lon="1.96006">
        <ele>357.3</ele>
        <time>2013-11-16T09:07:29.000Z</time>
      </trkpt>
      <trkpt lat="43.00467" lon="1.96006">
        <ele>357.3</ele>
        <time>2013-11-16T09:08:11.000Z</time>
      </trkpt>
      <trkpt lat="43.00467" lon="1.96006">
        <ele>358.7</ele>
        <time>2013-11-16T09:08:38.000Z</time>
      </trkpt>
      <trkpt lat="43.00466" lon="1.96005">
        <ele>360.2</ele>
        <time>2013-11-16T09:09:07.000Z</time>
      </trkpt>
      <trkpt lat="43.00467" lon="1.95995">
        <ele>361.1</ele>
        <time>2013-11-16T09:09:55.000Z</time>
      </trkpt>
      <trkpt lat="43.00468" lon="1.95992">
        <ele>360.6</ele>
        <time>2013-11-16T09:09:56.000Z</time>
      </trkpt>
      <trkpt lat="43.00469" lon="1.9599">
        <ele>362.1</ele>
        <time>2013-11-16T09:09:57.000Z</time>
      </trkpt>
      <trkpt lat="43.0047" lon="1.95987">
        <ele>363</ele>
        <time>2013-11-16T09:09:58.000Z</time>
      </trkpt>
      <trkpt lat="43.00471" lon="1.95985">
        <ele>362.1</ele>
        <time>2013-11-16T09:09:59.000Z</time>
      </trkpt>
      <trkpt lat="43.00472" lon="1.95982">
        <ele>361.1</ele>
        <time>2013-11-16T09:10:00.000Z</time>
      </trkpt>
      <trkpt lat="43.00482" lon="1.9595">
        <ele>363</ele>
        <time>2013-11-16T09:10:09.000Z</time>
      </trkpt>
      <trkpt lat="43.00493" lon="1.95897">
        <ele>365.4</ele>
        <time>2013-11-16T09:10:21.000Z</time>
      </trkpt>
      <trkpt lat="43.00496" lon="1.95869">
        <ele>366.4</ele>
        <time>2013-11-16T09:10:27.000Z</time>
      </trkpt>
      <trkpt lat="43.00501" lon="1.95823">
        <ele>368.8</ele>
        <time>2013-11-16T09:10:38.000Z</time>
      </trkpt>
      <trkpt lat="43.00502" lon="1.95803">
        <ele>369.3</ele>
        <time>2013-11-16T09:10:42.000Z</time>
      </trkpt>
      <trkpt lat="43.005" lon="1.95759">
        <ele>370.2</ele>
        <time>2013-11-16T09:10:51.000Z</time>
      </trkpt>
      <trkpt lat="43.00496" lon="1.95724">
        <ele>370.7</ele>
        <time>2013-11-16T09:11:00.000Z</time>
      </trkpt>
      <trkpt lat="43.0049" lon="1.95684">
        <ele>370.7</ele>
        <time>2013-11-16T09:11:09.000Z</time>
      </trkpt>
      <trkpt lat="43.00486" lon="1.95632">
        <ele>373.6</ele>
        <time>2013-11-16T09:11:19.000Z</time>
      </trkpt>
      <trkpt lat="43.00485" lon="1.95613">
        <ele>371.7</ele>
        <time>2013-11-16T09:11:23.000Z</time>
      </trkpt>
      <trkpt lat="43.00484" lon="1.95551">
        <ele>373.1</ele>
        <time>2013-11-16T09:11:35.000Z</time>
      </trkpt>
      <trkpt lat="43.00495" lon="1.95502">
        <ele>375.1</ele>
        <time>2013-11-16T09:11:46.000Z</time>
      </trkpt>
      <trkpt lat="43.0051" lon="1.95469">
        <ele>375.5</ele>
        <time>2013-11-16T09:11:54.000Z</time>
      </trkpt>
      <trkpt lat="43.00511" lon="1.95425">
        <ele>377</ele>
        <time>2013-11-16T09:12:04.000Z</time>
      </trkpt>
      <trkpt lat="43.00514" lon="1.95399">
        <ele>377.5</ele>
        <time>2013-11-16T09:12:09.000Z</time>
      </trkpt>
      <trkpt lat="43.00519" lon="1.95375">
        <ele>377.5</ele>
        <time>2013-11-16T09:12:14.000Z</time>
      </trkpt>
      <trkpt lat="43.00518" lon="1.95336">
        <ele>377.9</ele>
        <time>2013-11-16T09:12:22.000Z</time>
      </trkpt>
      <trkpt lat="43.00503" lon="1.95271">
        <ele>379.9</ele>
        <time>2013-11-16T09:12:34.000Z</time>
      </trkpt>
      <trkpt lat="43.00493" lon="1.9524">
        <ele>378.9</ele>
        <time>2013-11-16T09:12:40.000Z</time>
      </trkpt>
      <trkpt lat="43.00492" lon="1.95236">
        <ele>379.4</ele>
        <time>2013-11-16T09:12:41.000Z</time>
      </trkpt>
      <trkpt lat="43.00481" lon="1.9518">
        <ele>378.9</ele>
        <time>2013-11-16T09:12:52.000Z</time>
      </trkpt>
      <trkpt lat="43.00445" lon="1.95129">
        <ele>379.4</ele>
        <time>2013-11-16T09:13:03.000Z</time>
      </trkpt>
      <trkpt lat="43.00432" lon="1.95115">
        <ele>378.4</ele>
        <time>2013-11-16T09:13:06.000Z</time>
      </trkpt>
      <trkpt lat="43.00428" lon="1.95109">
        <ele>378.4</ele>
        <time>2013-11-16T09:13:07.000Z</time>
      </trkpt>
      <trkpt lat="43.00424" lon="1.95103">
        <ele>377.9</ele>
        <time>2013-11-16T09:13:08.000Z</time>
      </trkpt>
      <trkpt lat="43.00421" lon="1.95095">
        <ele>376.5</ele>
        <time>2013-11-16T09:13:09.000Z</time>
      </trkpt>
      <trkpt lat="43.00418" lon="1.95089">
        <ele>378.4</ele>
        <time>2013-11-16T09:13:10.000Z</time>
      </trkpt>
      <trkpt lat="43.00416" lon="1.95084">
        <ele>379.9</ele>
        <time>2013-11-16T09:13:11.000Z</time>
      </trkpt>
      <trkpt lat="43.00414" lon="1.95079">
        <ele>377.9</ele>
        <time>2013-11-16T09:13:12.000Z</time>
      </trkpt>
      <trkpt lat="43.00412" lon="1.95073">
        <ele>377.9</ele>
        <time>2013-11-16T09:13:13.000Z</time>
      </trkpt>
      <trkpt lat="43.00409" lon="1.95052">
        <ele>377</ele>
        <time>2013-11-16T09:13:17.000Z</time>
      </trkpt>
      <trkpt lat="43.00409" lon="1.9502">
        <ele>378.4</ele>
        <time>2013-11-16T09:13:23.000Z</time>
      </trkpt>
      <trkpt lat="43.00409" lon="1.95017">
        <ele>377.9</ele>
        <time>2013-11-16T09:13:24.000Z</time>
      </trkpt>
      <trkpt lat="43.00408" lon="1.95012">
        <ele>376</ele>
        <time>2013-11-16T09:13:38.000Z</time>
      </trkpt>
      <trkpt lat="43.00408" lon="1.95012">
        <ele>378.4</ele>
        <time>2013-11-16T09:13:58.000Z</time>
      </trkpt>
      <trkpt lat="43.00411" lon="1.95">
        <ele>377</ele>
        <time>2013-11-16T09:14:15.000Z</time>
      </trkpt>
      <trkpt lat="43.00413" lon="1.94998">
        <ele>377.5</ele>
        <time>2013-11-16T09:14:16.000Z</time>
      </trkpt>
      <trkpt lat="43.00414" lon="1.94995">
        <ele>377.9</ele>
        <time>2013-11-16T09:14:17.000Z</time>
      </trkpt>
      <trkpt lat="43.00415" lon="1.94992">
        <ele>377</ele>
        <time>2013-11-16T09:14:18.000Z</time>
      </trkpt>
      <trkpt lat="43.00415" lon="1.94989">
        <ele>376.5</ele>
        <time>2013-11-16T09:14:19.000Z</time>
      </trkpt>
      <trkpt lat="43.00415" lon="1.94986">
        <ele>377</ele>
        <time>2013-11-16T09:14:20.000Z</time>
      </trkpt>
      <trkpt lat="43.00415" lon="1.94983">
        <ele>378.9</ele>
        <time>2013-11-16T09:14:21.000Z</time>
      </trkpt>
      <trkpt lat="43.00415" lon="1.94981">
        <ele>378.4</ele>
        <time>2013-11-16T09:14:22.000Z</time>
      </trkpt>
      <trkpt lat="43.00416" lon="1.94979">
        <ele>378.9</ele>
        <time>2013-11-16T09:14:23.000Z</time>
      </trkpt>
      <trkpt lat="43.00417" lon="1.94976">
        <ele>379.9</ele>
        <time>2013-11-16T09:14:24.000Z</time>
      </trkpt>
      <trkpt lat="43.00418" lon="1.94973">
        <ele>378.9</ele>
        <time>2013-11-16T09:14:25.000Z</time>
      </trkpt>
      <trkpt lat="43.00423" lon="1.94951">
        <ele>379.9</ele>
        <time>2013-11-16T09:14:30.000Z</time>
      </trkpt>
      <trkpt lat="43.00424" lon="1.94946">
        <ele>379.9</ele>
        <time>2013-11-16T09:14:31.000Z</time>
      </trkpt>
      <trkpt lat="43.00424" lon="1.94942">
        <ele>380.8</ele>
        <time>2013-11-16T09:14:32.000Z</time>
      </trkpt>
      <trkpt lat="43.00425" lon="1.94939">
        <ele>381.3</ele>
        <time>2013-11-16T09:14:33.000Z</time>
      </trkpt>
      <trkpt lat="43.00426" lon="1.94934">
        <ele>380.8</ele>
        <time>2013-11-16T09:14:34.000Z</time>
      </trkpt>
      <trkpt lat="43.00449" lon="1.94895">
        <ele>380.8</ele>
        <time>2013-11-16T09:14:43.000Z</time>
      </trkpt>
      <trkpt lat="43.0046" lon="1.94883">
        <ele>381.3</ele>
        <time>2013-11-16T09:14:46.000Z</time>
      </trkpt>
      <trkpt lat="43.00471" lon="1.94869">
        <ele>378.9</ele>
        <time>2013-11-16T09:14:49.000Z</time>
      </trkpt>
      <trkpt lat="43.00474" lon="1.94865">
        <ele>378.4</ele>
        <time>2013-11-16T09:14:50.000Z</time>
      </trkpt>
      <trkpt lat="43.00479" lon="1.94856">
        <ele>377.9</ele>
        <time>2013-11-16T09:14:52.000Z</time>
      </trkpt>
      <trkpt lat="43.00485" lon="1.94822">
        <ele>381.3</ele>
        <time>2013-11-16T09:14:59.000Z</time>
      </trkpt>
      <trkpt lat="43.0049" lon="1.94805">
        <ele>381.8</ele>
        <time>2013-11-16T09:15:03.000Z</time>
      </trkpt>
      <trkpt lat="43.00494" lon="1.94796">
        <ele>381.3</ele>
        <time>2013-11-16T09:15:08.000Z</time>
      </trkpt>
      <trkpt lat="43.00496" lon="1.94794">
        <ele>383.2</ele>
        <time>2013-11-16T09:15:09.000Z</time>
      </trkpt>
      <trkpt lat="43.005" lon="1.94786">
        <ele>383.7</ele>
        <time>2013-11-16T09:15:13.000Z</time>
      </trkpt>
      <trkpt lat="43.00501" lon="1.94779">
        <ele>382.7</ele>
        <time>2013-11-16T09:15:15.000Z</time>
      </trkpt>
      <trkpt lat="43.00502" lon="1.94775">
        <ele>383.7</ele>
        <time>2013-11-16T09:15:16.000Z</time>
      </trkpt>
      <trkpt lat="43.00503" lon="1.94767">
        <ele>385.6</ele>
        <time>2013-11-16T09:15:18.000Z</time>
      </trkpt>
      <trkpt lat="43.00504" lon="1.94758">
        <ele>385.2</ele>
        <time>2013-11-16T09:15:22.000Z</time>
      </trkpt>
      <trkpt lat="43.00503" lon="1.94755">
        <ele>386.1</ele>
        <time>2013-11-16T09:15:24.000Z</time>
      </trkpt>
      <trkpt lat="43.00503" lon="1.94744">
        <ele>385.2</ele>
        <time>2013-11-16T09:15:27.000Z</time>
      </trkpt>
      <trkpt lat="43.00503" lon="1.94726">
        <ele>387.6</ele>
        <time>2013-11-16T09:15:33.000Z</time>
      </trkpt>
      <trkpt lat="43.00508" lon="1.94713">
        <ele>388.5</ele>
        <time>2013-11-16T09:15:38.000Z</time>
      </trkpt>
      <trkpt lat="43.00521" lon="1.94683">
        <ele>387.1</ele>
        <time>2013-11-16T09:15:46.000Z</time>
      </trkpt>
      <trkpt lat="43.0053" lon="1.94643">
        <ele>385.2</ele>
        <time>2013-11-16T09:15:53.000Z</time>
      </trkpt>
      <trkpt lat="43.00534" lon="1.94628">
        <ele>386.6</ele>
        <time>2013-11-16T09:15:56.000Z</time>
      </trkpt>
      <trkpt lat="43.00538" lon="1.9461">
        <ele>384.7</ele>
        <time>2013-11-16T09:16:01.000Z</time>
      </trkpt>
      <trkpt lat="43.00538" lon="1.94603">
        <ele>385.2</ele>
        <time>2013-11-16T09:16:03.000Z</time>
      </trkpt>
      <trkpt lat="43.00538" lon="1.94594">
        <ele>385.6</ele>
        <time>2013-11-16T09:16:05.000Z</time>
      </trkpt>
      <trkpt lat="43.00539" lon="1.94582">
        <ele>387.6</ele>
        <time>2013-11-16T09:16:08.000Z</time>
      </trkpt>
      <trkpt lat="43.0054" lon="1.94579">
        <ele>386.6</ele>
        <time>2013-11-16T09:16:09.000Z</time>
      </trkpt>
      <trkpt lat="43.00542" lon="1.94575">
        <ele>386.1</ele>
        <time>2013-11-16T09:16:10.000Z</time>
      </trkpt>
      <trkpt lat="43.00543" lon="1.94573">
        <ele>387.1</ele>
        <time>2013-11-16T09:16:11.000Z</time>
      </trkpt>
      <trkpt lat="43.00552" lon="1.94541">
        <ele>386.6</ele>
        <time>2013-11-16T09:16:17.000Z</time>
      </trkpt>
      <trkpt lat="43.00563" lon="1.94525">
        <ele>384.2</ele>
        <time>2013-11-16T09:16:21.000Z</time>
      </trkpt>
      <trkpt lat="43.00582" lon="1.94504">
        <ele>385.6</ele>
        <time>2013-11-16T09:16:29.000Z</time>
      </trkpt>
      <trkpt lat="43.00584" lon="1.94502">
        <ele>386.1</ele>
        <time>2013-11-16T09:16:30.000Z</time>
      </trkpt>
      <trkpt lat="43.00585" lon="1.94501">
        <ele>387.1</ele>
        <time>2013-11-16T09:16:31.000Z</time>
      </trkpt>
      <trkpt lat="43.00586" lon="1.94499">
        <ele>387.1</ele>
        <time>2013-11-16T09:16:32.000Z</time>
      </trkpt>
      <trkpt lat="43.00587" lon="1.94495">
        <ele>388.5</ele>
        <time>2013-11-16T09:16:34.000Z</time>
      </trkpt>
      <trkpt lat="43.00592" lon="1.94474">
        <ele>389.5</ele>
        <time>2013-11-16T09:16:41.000Z</time>
      </trkpt>
      <trkpt lat="43.00603" lon="1.94439">
        <ele>390.4</ele>
        <time>2013-11-16T09:16:50.000Z</time>
      </trkpt>
      <trkpt lat="43.00615" lon="1.94402">
        <ele>389.5</ele>
        <time>2013-11-16T09:16:58.000Z</time>
      </trkpt>
      <trkpt lat="43.00615" lon="1.94397">
        <ele>388</ele>
        <time>2013-11-16T09:16:59.000Z</time>
      </trkpt>
      <trkpt lat="43.00615" lon="1.94378">
        <ele>389.5</ele>
        <time>2013-11-16T09:17:03.000Z</time>
      </trkpt>
      <trkpt lat="43.00618" lon="1.94342">
        <ele>389.5</ele>
        <time>2013-11-16T09:17:11.000Z</time>
      </trkpt>
      <trkpt lat="43.00619" lon="1.94339">
        <ele>389</ele>
        <time>2013-11-16T09:17:12.000Z</time>
      </trkpt>
      <trkpt lat="43.00621" lon="1.9432">
        <ele>388.5</ele>
        <time>2013-11-16T09:17:18.000Z</time>
      </trkpt>
      <trkpt lat="43.00623" lon="1.94289">
        <ele>392.4</ele>
        <time>2013-11-16T09:17:28.000Z</time>
      </trkpt>
      <trkpt lat="43.00628" lon="1.94272">
        <ele>391.9</ele>
        <time>2013-11-16T09:17:34.000Z</time>
      </trkpt>
      <trkpt lat="43.00642" lon="1.94239">
        <ele>393.3</ele>
        <time>2013-11-16T09:17:46.000Z</time>
      </trkpt>
      <trkpt lat="43.00644" lon="1.9423">
        <ele>392.4</ele>
        <time>2013-11-16T09:17:50.000Z</time>
      </trkpt>
      <trkpt lat="43.00658" lon="1.94223">
        <ele>393.8</ele>
        <time>2013-11-16T09:18:00.000Z</time>
      </trkpt>
      <trkpt lat="43.00663" lon="1.94222">
        <ele>392.4</ele>
        <time>2013-11-16T09:18:02.000Z</time>
      </trkpt>
      <trkpt lat="43.00678" lon="1.94222">
        <ele>396.2</ele>
        <time>2013-11-16T09:18:12.000Z</time>
      </trkpt>
      <trkpt lat="43.00686" lon="1.94221">
        <ele>396.2</ele>
        <time>2013-11-16T09:18:17.000Z</time>
      </trkpt>
      <trkpt lat="43.00695" lon="1.94217">
        <ele>398.1</ele>
        <time>2013-11-16T09:18:23.000Z</time>
      </trkpt>
      <trkpt lat="43.00706" lon="1.94202">
        <ele>401.5</ele>
        <time>2013-11-16T09:18:33.000Z</time>
      </trkpt>
      <trkpt lat="43.00706" lon="1.942">
        <ele>401.5</ele>
        <time>2013-11-16T09:18:34.000Z</time>
      </trkpt>
      <trkpt lat="43.00712" lon="1.94189">
        <ele>401</ele>
        <time>2013-11-16T09:18:40.000Z</time>
      </trkpt>
      <trkpt lat="43.00716" lon="1.94183">
        <ele>402.9</ele>
        <time>2013-11-16T09:18:44.000Z</time>
      </trkpt>
      <trkpt lat="43.00729" lon="1.94159">
        <ele>405.3</ele>
        <time>2013-11-16T09:18:57.000Z</time>
      </trkpt>
      <trkpt lat="43.00736" lon="1.9415">
        <ele>405.8</ele>
        <time>2013-11-16T09:19:03.000Z</time>
      </trkpt>
      <trkpt lat="43.00742" lon="1.94147">
        <ele>406.8</ele>
        <time>2013-11-16T09:19:08.000Z</time>
      </trkpt>
      <trkpt lat="43.00745" lon="1.94146">
        <ele>407.3</ele>
        <time>2013-11-16T09:19:11.000Z</time>
      </trkpt>
      <trkpt lat="43.00757" lon="1.94138">
        <ele>410.6</ele>
        <time>2013-11-16T09:19:20.000Z</time>
      </trkpt>
      <trkpt lat="43.00766" lon="1.94133">
        <ele>410.1</ele>
        <time>2013-11-16T09:19:27.000Z</time>
      </trkpt>
      <trkpt lat="43.00781" lon="1.94135">
        <ele>413.5</ele>
        <time>2013-11-16T09:19:37.000Z</time>
      </trkpt>
      <trkpt lat="43.00782" lon="1.94136">
        <ele>413.5</ele>
        <time>2013-11-16T09:19:38.000Z</time>
      </trkpt>
      <trkpt lat="43.00783" lon="1.94136">
        <ele>413</ele>
        <time>2013-11-16T09:19:39.000Z</time>
      </trkpt>
      <trkpt lat="43.00786" lon="1.94137">
        <ele>414.5</ele>
        <time>2013-11-16T09:19:42.000Z</time>
      </trkpt>
      <trkpt lat="43.00788" lon="1.94138">
        <ele>413.5</ele>
        <time>2013-11-16T09:19:44.000Z</time>
      </trkpt>
      <trkpt lat="43.00792" lon="1.9414">
        <ele>415.4</ele>
        <time>2013-11-16T09:19:47.000Z</time>
      </trkpt>
      <trkpt lat="43.00794" lon="1.94141">
        <ele>415.9</ele>
        <time>2013-11-16T09:19:49.000Z</time>
      </trkpt>
      <trkpt lat="43.008" lon="1.94141">
        <ele>415.9</ele>
        <time>2013-11-16T09:19:53.000Z</time>
      </trkpt>
      <trkpt lat="43.00808" lon="1.94145">
        <ele>416.9</ele>
        <time>2013-11-16T09:19:59.000Z</time>
      </trkpt>
      <trkpt lat="43.00813" lon="1.94148">
        <ele>417.4</ele>
        <time>2013-11-16T09:20:02.000Z</time>
      </trkpt>
      <trkpt lat="43.00817" lon="1.94151">
        <ele>419.8</ele>
        <time>2013-11-16T09:20:05.000Z</time>
      </trkpt>
      <trkpt lat="43.00826" lon="1.94179">
        <ele>421.2</ele>
        <time>2013-11-16T09:20:20.000Z</time>
      </trkpt>
      <trkpt lat="43.00834" lon="1.94198">
        <ele>423.6</ele>
        <time>2013-11-16T09:20:32.000Z</time>
      </trkpt>
      <trkpt lat="43.00838" lon="1.94198">
        <ele>428.4</ele>
        <time>2013-11-16T09:20:36.000Z</time>
      </trkpt>
      <trkpt lat="43.00839" lon="1.94197">
        <ele>425</ele>
        <time>2013-11-16T09:20:37.000Z</time>
      </trkpt>
      <trkpt lat="43.0084" lon="1.94196">
        <ele>423.6</ele>
        <time>2013-11-16T09:20:39.000Z</time>
      </trkpt>
      <trkpt lat="43.00843" lon="1.94194">
        <ele>423.1</ele>
        <time>2013-11-16T09:20:42.000Z</time>
      </trkpt>
      <trkpt lat="43.00846" lon="1.94191">
        <ele>413</ele>
        <time>2013-11-16T09:20:46.000Z</time>
      </trkpt>
      <trkpt lat="43.00847" lon="1.9419">
        <ele>424.6</ele>
        <time>2013-11-16T09:20:47.000Z</time>
      </trkpt>
      <trkpt lat="43.00849" lon="1.94189">
        <ele>425</ele>
        <time>2013-11-16T09:20:49.000Z</time>
      </trkpt>
      <trkpt lat="43.00853" lon="1.94183">
        <ele>423.6</ele>
        <time>2013-11-16T09:20:54.000Z</time>
      </trkpt>
      <trkpt lat="43.00861" lon="1.94164">
        <ele>425.5</ele>
        <time>2013-11-16T09:21:10.000Z</time>
      </trkpt>
      <trkpt lat="43.00865" lon="1.94158">
        <ele>425</ele>
        <time>2013-11-16T09:21:15.000Z</time>
      </trkpt>
      <trkpt lat="43.00866" lon="1.94154">
        <ele>426</ele>
        <time>2013-11-16T09:21:17.000Z</time>
      </trkpt>
      <trkpt lat="43.00869" lon="1.94139">
        <ele>427.9</ele>
        <time>2013-11-16T09:21:27.000Z</time>
      </trkpt>
      <trkpt lat="43.00873" lon="1.94118">
        <ele>431.3</ele>
        <time>2013-11-16T09:21:36.000Z</time>
      </trkpt>
      <trkpt lat="43.00873" lon="1.94113">
        <ele>430.3</ele>
        <time>2013-11-16T09:21:38.000Z</time>
      </trkpt>
      <trkpt lat="43.00874" lon="1.94112">
        <ele>430.8</ele>
        <time>2013-11-16T09:21:39.000Z</time>
      </trkpt>
      <trkpt lat="43.00872" lon="1.94097">
        <ele>431.8</ele>
        <time>2013-11-16T09:21:45.000Z</time>
      </trkpt>
      <trkpt lat="43.00874" lon="1.94071">
        <ele>434.7</ele>
        <time>2013-11-16T09:21:56.000Z</time>
      </trkpt>
      <trkpt lat="43.00872" lon="1.94059">
        <ele>437.1</ele>
        <time>2013-11-16T09:22:00.000Z</time>
      </trkpt>
      <trkpt lat="43.00865" lon="1.94024">
        <ele>439.9</ele>
        <time>2013-11-16T09:22:14.000Z</time>
      </trkpt>
      <trkpt lat="43.00865" lon="1.94022">
        <ele>439.9</ele>
        <time>2013-11-16T09:22:15.000Z</time>
      </trkpt>
      <trkpt lat="43.00864" lon="1.94001">
        <ele>442.3</ele>
        <time>2013-11-16T09:22:24.000Z</time>
      </trkpt>
      <trkpt lat="43.00868" lon="1.93982">
        <ele>443.3</ele>
        <time>2013-11-16T09:22:33.000Z</time>
      </trkpt>
      <trkpt lat="43.00871" lon="1.93969">
        <ele>445.7</ele>
        <time>2013-11-16T09:22:40.000Z</time>
      </trkpt>
      <trkpt lat="43.00873" lon="1.93957">
        <ele>447.6</ele>
        <time>2013-11-16T09:22:46.000Z</time>
      </trkpt>
      <trkpt lat="43.00874" lon="1.93938">
        <ele>449.6</ele>
        <time>2013-11-16T09:22:55.000Z</time>
      </trkpt>
      <trkpt lat="43.00881" lon="1.93896">
        <ele>450.5</ele>
        <time>2013-11-16T09:23:13.000Z</time>
      </trkpt>
      <trkpt lat="43.00882" lon="1.93892">
        <ele>451.5</ele>
        <time>2013-11-16T09:23:15.000Z</time>
      </trkpt>
      <trkpt lat="43.00889" lon="1.93863">
        <ele>452.9</ele>
        <time>2013-11-16T09:23:27.000Z</time>
      </trkpt>
      <trkpt lat="43.00891" lon="1.93856">
        <ele>453.9</ele>
        <time>2013-11-16T09:23:30.000Z</time>
      </trkpt>
      <trkpt lat="43.00894" lon="1.93847">
        <ele>455.8</ele>
        <time>2013-11-16T09:23:35.000Z</time>
      </trkpt>
      <trkpt lat="43.00903" lon="1.9382">
        <ele>456.8</ele>
        <time>2013-11-16T09:23:47.000Z</time>
      </trkpt>
      <trkpt lat="43.00904" lon="1.93816">
        <ele>457.2</ele>
        <time>2013-11-16T09:23:49.000Z</time>
      </trkpt>
      <trkpt lat="43.00905" lon="1.93812">
        <ele>457.2</ele>
        <time>2013-11-16T09:23:51.000Z</time>
      </trkpt>
      <trkpt lat="43.00907" lon="1.93806">
        <ele>458.7</ele>
        <time>2013-11-16T09:23:54.000Z</time>
      </trkpt>
      <trkpt lat="43.00907" lon="1.93804">
        <ele>457.7</ele>
        <time>2013-11-16T09:23:55.000Z</time>
      </trkpt>
      <trkpt lat="43.0092" lon="1.93782">
        <ele>460.1</ele>
        <time>2013-11-16T09:24:08.000Z</time>
      </trkpt>
      <trkpt lat="43.00922" lon="1.93782">
        <ele>460.1</ele>
        <time>2013-11-16T09:24:27.000Z</time>
      </trkpt>
      <trkpt lat="43.00922" lon="1.93782">
        <ele>460.1</ele>
        <time>2013-11-16T09:24:43.000Z</time>
      </trkpt>
      <trkpt lat="43.00922" lon="1.93782">
        <ele>461.6</ele>
        <time>2013-11-16T09:24:56.000Z</time>
      </trkpt>
      <trkpt lat="43.00922" lon="1.93782">
        <ele>460.6</ele>
        <time>2013-11-16T09:25:16.000Z</time>
      </trkpt>
      <trkpt lat="43.00922" lon="1.93782">
        <ele>460.1</ele>
        <time>2013-11-16T09:25:54.000Z</time>
      </trkpt>
      <trkpt lat="43.00922" lon="1.93781">
        <ele>460.6</ele>
        <time>2013-11-16T09:27:14.000Z</time>
      </trkpt>
      <trkpt lat="43.00922" lon="1.93782">
        <ele>461.1</ele>
        <time>2013-11-16T09:27:21.000Z</time>
      </trkpt>
      <trkpt lat="43.00923" lon="1.93781">
        <ele>461.1</ele>
        <time>2013-11-16T09:27:22.000Z</time>
      </trkpt>
      <trkpt lat="43.00935" lon="1.93768">
        <ele>459.7</ele>
        <time>2013-11-16T09:27:29.000Z</time>
      </trkpt>
      <trkpt lat="43.00943" lon="1.93753">
        <ele>461.1</ele>
        <time>2013-11-16T09:27:33.000Z</time>
      </trkpt>
      <trkpt lat="43.00946" lon="1.93748">
        <ele>461.1</ele>
        <time>2013-11-16T09:27:34.000Z</time>
      </trkpt>
      <trkpt lat="43.00964" lon="1.93713">
        <ele>457.7</ele>
        <time>2013-11-16T09:27:40.000Z</time>
      </trkpt>
      <trkpt lat="43.00986" lon="1.9367">
        <ele>456.3</ele>
        <time>2013-11-16T09:27:46.000Z</time>
      </trkpt>
      <trkpt lat="43.00994" lon="1.93654">
        <ele>456.8</ele>
        <time>2013-11-16T09:27:48.000Z</time>
      </trkpt>
      <trkpt lat="43.01002" lon="1.93636">
        <ele>454.8</ele>
        <time>2013-11-16T09:27:50.000Z</time>
      </trkpt>
      <trkpt lat="43.01005" lon="1.93627">
        <ele>454.4</ele>
        <time>2013-11-16T09:27:51.000Z</time>
      </trkpt>
      <trkpt lat="43.01008" lon="1.93617">
        <ele>453.4</ele>
        <time>2013-11-16T09:27:52.000Z</time>
      </trkpt>
      <trkpt lat="43.01022" lon="1.93561">
        <ele>452</ele>
        <time>2013-11-16T09:27:57.000Z</time>
      </trkpt>
      <trkpt lat="43.01024" lon="1.93537">
        <ele>450</ele>
        <time>2013-11-16T09:27:59.000Z</time>
      </trkpt>
      <trkpt lat="43.01024" lon="1.93512">
        <ele>448.6</ele>
        <time>2013-11-16T09:28:01.000Z</time>
      </trkpt>
      <trkpt lat="43.01023" lon="1.93469">
        <ele>444.8</ele>
        <time>2013-11-16T09:28:04.000Z</time>
      </trkpt>
      <trkpt lat="43.01023" lon="1.93447">
        <ele>443.3</ele>
        <time>2013-11-16T09:28:06.000Z</time>
      </trkpt>
      <trkpt lat="43.01025" lon="1.93439">
        <ele>441.4</ele>
        <time>2013-11-16T09:28:07.000Z</time>
      </trkpt>
      <trkpt lat="43.01029" lon="1.93432">
        <ele>439.5</ele>
        <time>2013-11-16T09:28:08.000Z</time>
      </trkpt>
      <trkpt lat="43.01035" lon="1.93428">
        <ele>439.9</ele>
        <time>2013-11-16T09:28:09.000Z</time>
      </trkpt>
      <trkpt lat="43.01041" lon="1.93427">
        <ele>439</ele>
        <time>2013-11-16T09:28:10.000Z</time>
      </trkpt>
      <trkpt lat="43.01047" lon="1.93428">
        <ele>437.1</ele>
        <time>2013-11-16T09:28:11.000Z</time>
      </trkpt>
      <trkpt lat="43.01053" lon="1.93429">
        <ele>436.6</ele>
        <time>2013-11-16T09:28:12.000Z</time>
      </trkpt>
      <trkpt lat="43.01075" lon="1.93438">
        <ele>435.1</ele>
        <time>2013-11-16T09:28:15.000Z</time>
      </trkpt>
      <trkpt lat="43.01127" lon="1.93474">
        <ele>431.3</ele>
        <time>2013-11-16T09:28:21.000Z</time>
      </trkpt>
      <trkpt lat="43.01143" lon="1.93486">
        <ele>428.9</ele>
        <time>2013-11-16T09:28:23.000Z</time>
      </trkpt>
      <trkpt lat="43.01151" lon="1.93488">
        <ele>427.9</ele>
        <time>2013-11-16T09:28:24.000Z</time>
      </trkpt>
      <trkpt lat="43.01158" lon="1.93487">
        <ele>426.5</ele>
        <time>2013-11-16T09:28:25.000Z</time>
      </trkpt>
      <trkpt lat="43.01163" lon="1.93484">
        <ele>424.6</ele>
        <time>2013-11-16T09:28:26.000Z</time>
      </trkpt>
      <trkpt lat="43.01167" lon="1.93477">
        <ele>425.5</ele>
        <time>2013-11-16T09:28:27.000Z</time>
      </trkpt>
      <trkpt lat="43.01168" lon="1.9347">
        <ele>423.1</ele>
        <time>2013-11-16T09:28:28.000Z</time>
      </trkpt>
      <trkpt lat="43.01169" lon="1.93462">
        <ele>423.6</ele>
        <time>2013-11-16T09:28:29.000Z</time>
      </trkpt>
      <trkpt lat="43.01168" lon="1.93453">
        <ele>423.1</ele>
        <time>2013-11-16T09:28:30.000Z</time>
      </trkpt>
      <trkpt lat="43.01167" lon="1.93443">
        <ele>422.2</ele>
        <time>2013-11-16T09:28:31.000Z</time>
      </trkpt>
      <trkpt lat="43.01165" lon="1.93433">
        <ele>421.7</ele>
        <time>2013-11-16T09:28:32.000Z</time>
      </trkpt>
      <trkpt lat="43.01163" lon="1.93423">
        <ele>421.7</ele>
        <time>2013-11-16T09:28:33.000Z</time>
      </trkpt>
      <trkpt lat="43.01159" lon="1.93401">
        <ele>418.8</ele>
        <time>2013-11-16T09:28:35.000Z</time>
      </trkpt>
      <trkpt lat="43.01146" lon="1.93332">
        <ele>414</ele>
        <time>2013-11-16T09:28:41.000Z</time>
      </trkpt>
      <trkpt lat="43.01145" lon="1.93321">
        <ele>412.5</ele>
        <time>2013-11-16T09:28:42.000Z</time>
      </trkpt>
      <trkpt lat="43.01146" lon="1.9331">
        <ele>410.6</ele>
        <time>2013-11-16T09:28:43.000Z</time>
      </trkpt>
      <trkpt lat="43.01149" lon="1.933">
        <ele>410.6</ele>
        <time>2013-11-16T09:28:44.000Z</time>
      </trkpt>
      <trkpt lat="43.01153" lon="1.93289">
        <ele>409.2</ele>
        <time>2013-11-16T09:28:45.000Z</time>
      </trkpt>
      <trkpt lat="43.01159" lon="1.93279">
        <ele>408.7</ele>
        <time>2013-11-16T09:28:46.000Z</time>
      </trkpt>
      <trkpt lat="43.01165" lon="1.93269">
        <ele>408.2</ele>
        <time>2013-11-16T09:28:47.000Z</time>
      </trkpt>
      <trkpt lat="43.01199" lon="1.93219">
        <ele>404.9</ele>
        <time>2013-11-16T09:28:52.000Z</time>
      </trkpt>
      <trkpt lat="43.01208" lon="1.93206">
        <ele>403.4</ele>
        <time>2013-11-16T09:28:54.000Z</time>
      </trkpt>
      <trkpt lat="43.01213" lon="1.93204">
        <ele>402.5</ele>
        <time>2013-11-16T09:28:55.000Z</time>
      </trkpt>
      <trkpt lat="43.01217" lon="1.93205">
        <ele>401.5</ele>
        <time>2013-11-16T09:28:56.000Z</time>
      </trkpt>
      <trkpt lat="43.01222" lon="1.9321">
        <ele>402</ele>
        <time>2013-11-16T09:28:57.000Z</time>
      </trkpt>
      <trkpt lat="43.01225" lon="1.93215">
        <ele>402</ele>
        <time>2013-11-16T09:28:58.000Z</time>
      </trkpt>
      <trkpt lat="43.01227" lon="1.9322">
        <ele>401.5</ele>
        <time>2013-11-16T09:28:59.000Z</time>
      </trkpt>
      <trkpt lat="43.01233" lon="1.93236">
        <ele>400.1</ele>
        <time>2013-11-16T09:29:03.000Z</time>
      </trkpt>
      <trkpt lat="43.01241" lon="1.93244">
        <ele>400.1</ele>
        <time>2013-11-16T09:29:13.000Z</time>
      </trkpt>
      <trkpt lat="43.01241" lon="1.93246">
        <ele>400.1</ele>
        <time>2013-11-16T09:29:30.000Z</time>
      </trkpt>
      <trkpt lat="43.01253" lon="1.93279">
        <ele>398.6</ele>
        <time>2013-11-16T09:29:39.000Z</time>
      </trkpt>
      <trkpt lat="43.01269" lon="1.93344">
        <ele>397.6</ele>
        <time>2013-11-16T09:29:50.000Z</time>
      </trkpt>
      <trkpt lat="43.01276" lon="1.9341">
        <ele>400.5</ele>
        <time>2013-11-16T09:30:03.000Z</time>
      </trkpt>
      <trkpt lat="43.01271" lon="1.93485">
        <ele>402.5</ele>
        <time>2013-11-16T09:30:18.000Z</time>
      </trkpt>
      <trkpt lat="43.01271" lon="1.93497">
        <ele>402.5</ele>
        <time>2013-11-16T09:30:20.000Z</time>
      </trkpt>
      <trkpt lat="43.01271" lon="1.9353">
        <ele>402.9</ele>
        <time>2013-11-16T09:30:26.000Z</time>
      </trkpt>
      <trkpt lat="43.01275" lon="1.93597">
        <ele>406.3</ele>
        <time>2013-11-16T09:30:39.000Z</time>
      </trkpt>
      <trkpt lat="43.01276" lon="1.93601">
        <ele>406.8</ele>
        <time>2013-11-16T09:30:40.000Z</time>
      </trkpt>
      <trkpt lat="43.0129" lon="1.93631">
        <ele>407.7</ele>
        <time>2013-11-16T09:30:50.000Z</time>
      </trkpt>
      <trkpt lat="43.013" lon="1.93643">
        <ele>406.3</ele>
        <time>2013-11-16T09:30:53.000Z</time>
      </trkpt>
      <trkpt lat="43.01325" lon="1.93687">
        <ele>405.8</ele>
        <time>2013-11-16T09:31:01.000Z</time>
      </trkpt>
      <trkpt lat="43.01329" lon="1.93699">
        <ele>404.9</ele>
        <time>2013-11-16T09:31:03.000Z</time>
      </trkpt>
      <trkpt lat="43.01329" lon="1.93704">
        <ele>405.8</ele>
        <time>2013-11-16T09:31:04.000Z</time>
      </trkpt>
      <trkpt lat="43.0133" lon="1.9371">
        <ele>405.8</ele>
        <time>2013-11-16T09:31:05.000Z</time>
      </trkpt>
      <trkpt lat="43.0133" lon="1.93715">
        <ele>406.3</ele>
        <time>2013-11-16T09:31:06.000Z</time>
      </trkpt>
      <trkpt lat="43.01329" lon="1.9372">
        <ele>406.3</ele>
        <time>2013-11-16T09:31:07.000Z</time>
      </trkpt>
      <trkpt lat="43.01328" lon="1.93724">
        <ele>406.8</ele>
        <time>2013-11-16T09:31:08.000Z</time>
      </trkpt>
      <trkpt lat="43.01327" lon="1.93728">
        <ele>407.3</ele>
        <time>2013-11-16T09:31:09.000Z</time>
      </trkpt>
      <trkpt lat="43.01321" lon="1.93746">
        <ele>406.8</ele>
        <time>2013-11-16T09:31:14.000Z</time>
      </trkpt>
      <trkpt lat="43.0132" lon="1.93749">
        <ele>408.2</ele>
        <time>2013-11-16T09:31:15.000Z</time>
      </trkpt>
      <trkpt lat="43.01319" lon="1.93751">
        <ele>407.7</ele>
        <time>2013-11-16T09:31:16.000Z</time>
      </trkpt>
      <trkpt lat="43.0131" lon="1.9377">
        <ele>411.1</ele>
        <time>2013-11-16T09:31:25.000Z</time>
      </trkpt>
      <trkpt lat="43.01301" lon="1.9379">
        <ele>414.5</ele>
        <time>2013-11-16T09:31:35.000Z</time>
      </trkpt>
      <trkpt lat="43.013" lon="1.93792">
        <ele>413.5</ele>
        <time>2013-11-16T09:31:36.000Z</time>
      </trkpt>
      <trkpt lat="43.01295" lon="1.93804">
        <ele>416.4</ele>
        <time>2013-11-16T09:31:42.000Z</time>
      </trkpt>
      <trkpt lat="43.01294" lon="1.93806">
        <ele>416.4</ele>
        <time>2013-11-16T09:31:43.000Z</time>
      </trkpt>
      <trkpt lat="43.01293" lon="1.9381">
        <ele>415.4</ele>
        <time>2013-11-16T09:31:45.000Z</time>
      </trkpt>
      <trkpt lat="43.01289" lon="1.93823">
        <ele>419.3</ele>
        <time>2013-11-16T09:31:52.000Z</time>
      </trkpt>
      <trkpt lat="43.01289" lon="1.93826">
        <ele>419.3</ele>
        <time>2013-11-16T09:31:53.000Z</time>
      </trkpt>
      <trkpt lat="43.01285" lon="1.93845">
        <ele>422.6</ele>
        <time>2013-11-16T09:32:03.000Z</time>
      </trkpt>
      <trkpt lat="43.01284" lon="1.93852">
        <ele>422.2</ele>
        <time>2013-11-16T09:32:06.000Z</time>
      </trkpt>
      <trkpt lat="43.01283" lon="1.93854">
        <ele>421.7</ele>
        <time>2013-11-16T09:32:07.000Z</time>
      </trkpt>
      <trkpt lat="43.01283" lon="1.93856">
        <ele>423.1</ele>
        <time>2013-11-16T09:32:08.000Z</time>
      </trkpt>
      <trkpt lat="43.01282" lon="1.9386">
        <ele>422.2</ele>
        <time>2013-11-16T09:32:10.000Z</time>
      </trkpt>
      <trkpt lat="43.01282" lon="1.93862">
        <ele>423.6</ele>
        <time>2013-11-16T09:32:11.000Z</time>
      </trkpt>
      <trkpt lat="43.0128" lon="1.93877">
        <ele>427.4</ele>
        <time>2013-11-16T09:32:18.000Z</time>
      </trkpt>
      <trkpt lat="43.01279" lon="1.93879">
        <ele>427</ele>
        <time>2013-11-16T09:32:19.000Z</time>
      </trkpt>
      <trkpt lat="43.01282" lon="1.93908">
        <ele>428.9</ele>
        <time>2013-11-16T09:32:32.000Z</time>
      </trkpt>
      <trkpt lat="43.01286" lon="1.93926">
        <ele>429.9</ele>
        <time>2013-11-16T09:32:40.000Z</time>
      </trkpt>
      <trkpt lat="43.01286" lon="1.93928">
        <ele>430.8</ele>
        <time>2013-11-16T09:32:41.000Z</time>
      </trkpt>
      <trkpt lat="43.01286" lon="1.9393">
        <ele>430.3</ele>
        <time>2013-11-16T09:32:42.000Z</time>
      </trkpt>
      <trkpt lat="43.01287" lon="1.93932">
        <ele>430.3</ele>
        <time>2013-11-16T09:32:43.000Z</time>
      </trkpt>
      <trkpt lat="43.01288" lon="1.93935">
        <ele>429.9</ele>
        <time>2013-11-16T09:32:44.000Z</time>
      </trkpt>
      <trkpt lat="43.01289" lon="1.93937">
        <ele>430.3</ele>
        <time>2013-11-16T09:32:45.000Z</time>
      </trkpt>
      <trkpt lat="43.01289" lon="1.9394">
        <ele>431.3</ele>
        <time>2013-11-16T09:32:46.000Z</time>
      </trkpt>
      <trkpt lat="43.0129" lon="1.93942">
        <ele>431.8</ele>
        <time>2013-11-16T09:32:47.000Z</time>
      </trkpt>
      <trkpt lat="43.0129" lon="1.93944">
        <ele>432.3</ele>
        <time>2013-11-16T09:32:48.000Z</time>
      </trkpt>
      <trkpt lat="43.01291" lon="1.93946">
        <ele>433.7</ele>
        <time>2013-11-16T09:32:49.000Z</time>
      </trkpt>
      <trkpt lat="43.01291" lon="1.93948">
        <ele>432.3</ele>
        <time>2013-11-16T09:32:50.000Z</time>
      </trkpt>
      <trkpt lat="43.01296" lon="1.93969">
        <ele>435.1</ele>
        <time>2013-11-16T09:33:00.000Z</time>
      </trkpt>
      <trkpt lat="43.013" lon="1.93989">
        <ele>438</ele>
        <time>2013-11-16T09:33:10.000Z</time>
      </trkpt>
      <trkpt lat="43.013" lon="1.93991">
        <ele>437.5</ele>
        <time>2013-11-16T09:33:11.000Z</time>
      </trkpt>
      <trkpt lat="43.01299" lon="1.93993">
        <ele>438</ele>
        <time>2013-11-16T09:33:12.000Z</time>
      </trkpt>
      <trkpt lat="43.01299" lon="1.93995">
        <ele>439</ele>
        <time>2013-11-16T09:33:13.000Z</time>
      </trkpt>
      <trkpt lat="43.01299" lon="1.93998">
        <ele>438</ele>
        <time>2013-11-16T09:33:14.000Z</time>
      </trkpt>
      <trkpt lat="43.01299" lon="1.94">
        <ele>437.1</ele>
        <time>2013-11-16T09:33:15.000Z</time>
      </trkpt>
      <trkpt lat="43.01299" lon="1.94002">
        <ele>439</ele>
        <time>2013-11-16T09:33:16.000Z</time>
      </trkpt>
      <trkpt lat="43.01298" lon="1.94004">
        <ele>439.9</ele>
        <time>2013-11-16T09:33:17.000Z</time>
      </trkpt>
      <trkpt lat="43.01298" lon="1.94006">
        <ele>439</ele>
        <time>2013-11-16T09:33:18.000Z</time>
      </trkpt>
      <trkpt lat="43.01297" lon="1.94008">
        <ele>439</ele>
        <time>2013-11-16T09:33:19.000Z</time>
      </trkpt>
      <trkpt lat="43.01297" lon="1.9401">
        <ele>438</ele>
        <time>2013-11-16T09:33:20.000Z</time>
      </trkpt>
      <trkpt lat="43.01297" lon="1.94013">
        <ele>439</ele>
        <time>2013-11-16T09:33:21.000Z</time>
      </trkpt>
      <trkpt lat="43.01296" lon="1.94015">
        <ele>438.5</ele>
        <time>2013-11-16T09:33:22.000Z</time>
      </trkpt>
      <trkpt lat="43.01296" lon="1.94017">
        <ele>439</ele>
        <time>2013-11-16T09:33:23.000Z</time>
      </trkpt>
      <trkpt lat="43.01295" lon="1.94019">
        <ele>436.6</ele>
        <time>2013-11-16T09:33:24.000Z</time>
      </trkpt>
      <trkpt lat="43.01295" lon="1.94022">
        <ele>439.5</ele>
        <time>2013-11-16T09:33:25.000Z</time>
      </trkpt>
      <trkpt lat="43.01294" lon="1.94024">
        <ele>440.9</ele>
        <time>2013-11-16T09:33:26.000Z</time>
      </trkpt>
      <trkpt lat="43.01294" lon="1.94026">
        <ele>439</ele>
        <time>2013-11-16T09:33:27.000Z</time>
      </trkpt>
      <trkpt lat="43.01292" lon="1.94036">
        <ele>440.9</ele>
        <time>2013-11-16T09:33:32.000Z</time>
      </trkpt>
      <trkpt lat="43.01291" lon="1.94042">
        <ele>442.3</ele>
        <time>2013-11-16T09:33:35.000Z</time>
      </trkpt>
      <trkpt lat="43.01291" lon="1.9408">
        <ele>442.3</ele>
        <time>2013-11-16T09:33:51.000Z</time>
      </trkpt>
      <trkpt lat="43.0129" lon="1.94122">
        <ele>440.9</ele>
        <time>2013-11-16T09:34:05.000Z</time>
      </trkpt>
      <trkpt lat="43.01287" lon="1.94139">
        <ele>439.9</ele>
        <time>2013-11-16T09:34:12.000Z</time>
      </trkpt>
      <trkpt lat="43.01279" lon="1.94166">
        <ele>440.9</ele>
        <time>2013-11-16T09:34:25.000Z</time>
      </trkpt>
      <trkpt lat="43.01277" lon="1.94174">
        <ele>441.4</ele>
        <time>2013-11-16T09:34:29.000Z</time>
      </trkpt>
      <trkpt lat="43.01267" lon="1.942">
        <ele>441.9</ele>
        <time>2013-11-16T09:34:41.000Z</time>
      </trkpt>
      <trkpt lat="43.01263" lon="1.94217">
        <ele>441.9</ele>
        <time>2013-11-16T09:34:48.000Z</time>
      </trkpt>
      <trkpt lat="43.01259" lon="1.94229">
        <ele>443.3</ele>
        <time>2013-11-16T09:34:53.000Z</time>
      </trkpt>
      <trkpt lat="43.01258" lon="1.94232">
        <ele>442.3</ele>
        <time>2013-11-16T09:34:54.000Z</time>
      </trkpt>
      <trkpt lat="43.01257" lon="1.94235">
        <ele>443.3</ele>
        <time>2013-11-16T09:34:55.000Z</time>
      </trkpt>
      <trkpt lat="43.01257" lon="1.94238">
        <ele>442.8</ele>
        <time>2013-11-16T09:34:56.000Z</time>
      </trkpt>
      <trkpt lat="43.01256" lon="1.94241">
        <ele>441.9</ele>
        <time>2013-11-16T09:34:57.000Z</time>
      </trkpt>
      <trkpt lat="43.01256" lon="1.94244">
        <ele>441.4</ele>
        <time>2013-11-16T09:34:58.000Z</time>
      </trkpt>
      <trkpt lat="43.01255" lon="1.94284">
        <ele>442.8</ele>
        <time>2013-11-16T09:35:10.000Z</time>
      </trkpt>
      <trkpt lat="43.01272" lon="1.94313">
        <ele>443.8</ele>
        <time>2013-11-16T09:35:24.000Z</time>
      </trkpt>
      <trkpt lat="43.01296" lon="1.94344">
        <ele>441.4</ele>
        <time>2013-11-16T09:35:37.000Z</time>
      </trkpt>
      <trkpt lat="43.01305" lon="1.94378">
        <ele>441.9</ele>
        <time>2013-11-16T09:35:50.000Z</time>
      </trkpt>
      <trkpt lat="43.01309" lon="1.94412">
        <ele>443.3</ele>
        <time>2013-11-16T09:36:01.000Z</time>
      </trkpt>
      <trkpt lat="43.01311" lon="1.94424">
        <ele>442.3</ele>
        <time>2013-11-16T09:36:05.000Z</time>
      </trkpt>
      <trkpt lat="43.01319" lon="1.9446">
        <ele>441.4</ele>
        <time>2013-11-16T09:36:16.000Z</time>
      </trkpt>
      <trkpt lat="43.01321" lon="1.94463">
        <ele>440.9</ele>
        <time>2013-11-16T09:36:17.000Z</time>
      </trkpt>
      <trkpt lat="43.01329" lon="1.94483">
        <ele>439.5</ele>
        <time>2013-11-16T09:36:23.000Z</time>
      </trkpt>
      <trkpt lat="43.0133" lon="1.94488">
        <ele>437.5</ele>
        <time>2013-11-16T09:36:32.000Z</time>
      </trkpt>
      <trkpt lat="43.0133" lon="1.94488">
        <ele>439.9</ele>
        <time>2013-11-16T09:36:35.000Z</time>
      </trkpt>
      <trkpt lat="43.01331" lon="1.94493">
        <ele>439.9</ele>
        <time>2013-11-16T09:36:48.000Z</time>
      </trkpt>
      <trkpt lat="43.01331" lon="1.94493">
        <ele>437.1</ele>
        <time>2013-11-16T09:36:51.000Z</time>
      </trkpt>
      <trkpt lat="43.01331" lon="1.94493">
        <ele>437.5</ele>
        <time>2013-11-16T09:36:52.000Z</time>
      </trkpt>
      <trkpt lat="43.01334" lon="1.94506">
        <ele>438.5</ele>
        <time>2013-11-16T09:37:41.000Z</time>
      </trkpt>
      <trkpt lat="43.01334" lon="1.94519">
        <ele>438</ele>
        <time>2013-11-16T09:37:47.000Z</time>
      </trkpt>
      <trkpt lat="43.01333" lon="1.94521">
        <ele>439.5</ele>
        <time>2013-11-16T09:37:48.000Z</time>
      </trkpt>
      <trkpt lat="43.01333" lon="1.94523">
        <ele>438</ele>
        <time>2013-11-16T09:37:49.000Z</time>
      </trkpt>
      <trkpt lat="43.01333" lon="1.94526">
        <ele>437.5</ele>
        <time>2013-11-16T09:37:50.000Z</time>
      </trkpt>
      <trkpt lat="43.01333" lon="1.94529">
        <ele>439.9</ele>
        <time>2013-11-16T09:37:51.000Z</time>
      </trkpt>
      <trkpt lat="43.01333" lon="1.94531">
        <ele>439.5</ele>
        <time>2013-11-16T09:37:52.000Z</time>
      </trkpt>
      <trkpt lat="43.01334" lon="1.94561">
        <ele>440.4</ele>
        <time>2013-11-16T09:38:02.000Z</time>
      </trkpt>
      <trkpt lat="43.01334" lon="1.94591">
        <ele>441.4</ele>
        <time>2013-11-16T09:38:12.000Z</time>
      </trkpt>
      <trkpt lat="43.01335" lon="1.94595">
        <ele>440.9</ele>
        <time>2013-11-16T09:38:13.000Z</time>
      </trkpt>
      <trkpt lat="43.01335" lon="1.94599">
        <ele>440.4</ele>
        <time>2013-11-16T09:38:14.000Z</time>
      </trkpt>
      <trkpt lat="43.01338" lon="1.94638">
        <ele>441.4</ele>
        <time>2013-11-16T09:38:25.000Z</time>
      </trkpt>
      <trkpt lat="43.01339" lon="1.94652">
        <ele>440.4</ele>
        <time>2013-11-16T09:38:36.000Z</time>
      </trkpt>
      <trkpt lat="43.0134" lon="1.94655">
        <ele>439.9</ele>
        <time>2013-11-16T09:38:59.000Z</time>
      </trkpt>
      <trkpt lat="43.01341" lon="1.94657">
        <ele>440.9</ele>
        <time>2013-11-16T09:39:00.000Z</time>
      </trkpt>
      <trkpt lat="43.01344" lon="1.94662">
        <ele>437.5</ele>
        <time>2013-11-16T09:39:07.000Z</time>
      </trkpt>
      <trkpt lat="43.01347" lon="1.94665">
        <ele>440.9</ele>
        <time>2013-11-16T09:39:10.000Z</time>
      </trkpt>
      <trkpt lat="43.01348" lon="1.94667">
        <ele>440.4</ele>
        <time>2013-11-16T09:39:11.000Z</time>
      </trkpt>
      <trkpt lat="43.01364" lon="1.94691">
        <ele>438.5</ele>
        <time>2013-11-16T09:39:26.000Z</time>
      </trkpt>
      <trkpt lat="43.01365" lon="1.94694">
        <ele>439.9</ele>
        <time>2013-11-16T09:39:28.000Z</time>
      </trkpt>
      <trkpt lat="43.01366" lon="1.94697">
        <ele>439</ele>
        <time>2013-11-16T09:39:29.000Z</time>
      </trkpt>
      <trkpt lat="43.01379" lon="1.94715">
        <ele>437.1</ele>
        <time>2013-11-16T09:39:39.000Z</time>
      </trkpt>
      <trkpt lat="43.01387" lon="1.94729">
        <ele>437.1</ele>
        <time>2013-11-16T09:39:46.000Z</time>
      </trkpt>
      <trkpt lat="43.01401" lon="1.94755">
        <ele>436.1</ele>
        <time>2013-11-16T09:39:57.000Z</time>
      </trkpt>
      <trkpt lat="43.01423" lon="1.94791">
        <ele>435.6</ele>
        <time>2013-11-16T09:40:09.000Z</time>
      </trkpt>
      <trkpt lat="43.01434" lon="1.94813">
        <ele>435.6</ele>
        <time>2013-11-16T09:40:54.000Z</time>
      </trkpt>
      <trkpt lat="43.01433" lon="1.94812">
        <ele>434.7</ele>
        <time>2013-11-16T09:40:55.000Z</time>
      </trkpt>
      <trkpt lat="43.01432" lon="1.9481">
        <ele>435.1</ele>
        <time>2013-11-16T09:41:13.000Z</time>
      </trkpt>
      <trkpt lat="43.01432" lon="1.9481">
        <ele>432.3</ele>
        <time>2013-11-16T09:41:30.000Z</time>
      </trkpt>
      <trkpt lat="43.01432" lon="1.9481">
        <ele>435.1</ele>
        <time>2013-11-16T09:41:36.000Z</time>
      </trkpt>
      <trkpt lat="43.01431" lon="1.94813">
        <ele>436.1</ele>
        <time>2013-11-16T09:42:04.000Z</time>
      </trkpt>
      <trkpt lat="43.01431" lon="1.94814">
        <ele>434.2</ele>
        <time>2013-11-16T09:42:51.000Z</time>
      </trkpt>
      <trkpt lat="43.01431" lon="1.94814">
        <ele>436.1</ele>
        <time>2013-11-16T09:42:54.000Z</time>
      </trkpt>
      <trkpt lat="43.01431" lon="1.94814">
        <ele>435.1</ele>
        <time>2013-11-16T09:42:56.000Z</time>
      </trkpt>
      <trkpt lat="43.01431" lon="1.94817">
        <ele>437.5</ele>
        <time>2013-11-16T09:43:11.000Z</time>
      </trkpt>
      <trkpt lat="43.0143" lon="1.94824">
        <ele>434.7</ele>
        <time>2013-11-16T09:43:14.000Z</time>
      </trkpt>
      <trkpt lat="43.01431" lon="1.94831">
        <ele>435.1</ele>
        <time>2013-11-16T09:43:17.000Z</time>
      </trkpt>
      <trkpt lat="43.01436" lon="1.94839">
        <ele>435.6</ele>
        <time>2013-11-16T09:43:22.000Z</time>
      </trkpt>
      <trkpt lat="43.01447" lon="1.94849">
        <ele>436.1</ele>
        <time>2013-11-16T09:43:27.000Z</time>
      </trkpt>
      <trkpt lat="43.01468" lon="1.94876">
        <ele>438</ele>
        <time>2013-11-16T09:43:38.000Z</time>
      </trkpt>
      <trkpt lat="43.01485" lon="1.94907">
        <ele>440.9</ele>
        <time>2013-11-16T09:43:51.000Z</time>
      </trkpt>
      <trkpt lat="43.01504" lon="1.94941">
        <ele>443.3</ele>
        <time>2013-11-16T09:44:05.000Z</time>
      </trkpt>
      <trkpt lat="43.01524" lon="1.94979">
        <ele>441.9</ele>
        <time>2013-11-16T09:44:17.000Z</time>
      </trkpt>
      <trkpt lat="43.01535" lon="1.95017">
        <ele>442.8</ele>
        <time>2013-11-16T09:44:28.000Z</time>
      </trkpt>
      <trkpt lat="43.01548" lon="1.9506">
        <ele>444.3</ele>
        <time>2013-11-16T09:44:42.000Z</time>
      </trkpt>
      <trkpt lat="43.01548" lon="1.95063">
        <ele>444.8</ele>
        <time>2013-11-16T09:44:44.000Z</time>
      </trkpt>
      <trkpt lat="43.01547" lon="1.95068">
        <ele>444.8</ele>
        <time>2013-11-16T09:44:58.000Z</time>
      </trkpt>
      <trkpt lat="43.01549" lon="1.95069">
        <ele>444.3</ele>
        <time>2013-11-16T09:45:06.000Z</time>
      </trkpt>
      <trkpt lat="43.01551" lon="1.95075">
        <ele>446.2</ele>
        <time>2013-11-16T09:45:13.000Z</time>
      </trkpt>
      <trkpt lat="43.01551" lon="1.95075">
        <ele>446.7</ele>
        <time>2013-11-16T09:45:19.000Z</time>
      </trkpt>
      <trkpt lat="43.01552" lon="1.95076">
        <ele>445.2</ele>
        <time>2013-11-16T09:45:21.000Z</time>
      </trkpt>
      <trkpt lat="43.01556" lon="1.95092">
        <ele>445.2</ele>
        <time>2013-11-16T09:45:33.000Z</time>
      </trkpt>
      <trkpt lat="43.01577" lon="1.95122">
        <ele>446.2</ele>
        <time>2013-11-16T09:45:43.000Z</time>
      </trkpt>
      <trkpt lat="43.01591" lon="1.95133">
        <ele>446.2</ele>
        <time>2013-11-16T09:45:47.000Z</time>
      </trkpt>
      <trkpt lat="43.01621" lon="1.9516">
        <ele>446.2</ele>
        <time>2013-11-16T09:45:58.000Z</time>
      </trkpt>
      <trkpt lat="43.01637" lon="1.95177">
        <ele>446.7</ele>
        <time>2013-11-16T09:46:04.000Z</time>
      </trkpt>
      <trkpt lat="43.01638" lon="1.9518">
        <ele>445.7</ele>
        <time>2013-11-16T09:46:05.000Z</time>
      </trkpt>
      <trkpt lat="43.0164" lon="1.95183">
        <ele>445.7</ele>
        <time>2013-11-16T09:46:06.000Z</time>
      </trkpt>
      <trkpt lat="43.01642" lon="1.95187">
        <ele>446.7</ele>
        <time>2013-11-16T09:46:07.000Z</time>
      </trkpt>
      <trkpt lat="43.01644" lon="1.9519">
        <ele>446.2</ele>
        <time>2013-11-16T09:46:08.000Z</time>
      </trkpt>
      <trkpt lat="43.01645" lon="1.95193">
        <ele>446.7</ele>
        <time>2013-11-16T09:46:09.000Z</time>
      </trkpt>
      <trkpt lat="43.01647" lon="1.95196">
        <ele>446.2</ele>
        <time>2013-11-16T09:46:10.000Z</time>
      </trkpt>
      <trkpt lat="43.01649" lon="1.95199">
        <ele>447.2</ele>
        <time>2013-11-16T09:46:11.000Z</time>
      </trkpt>
      <trkpt lat="43.0166" lon="1.95224">
        <ele>445.7</ele>
        <time>2013-11-16T09:46:18.000Z</time>
      </trkpt>
      <trkpt lat="43.01665" lon="1.95243">
        <ele>448.6</ele>
        <time>2013-11-16T09:46:22.000Z</time>
      </trkpt>
      <trkpt lat="43.01676" lon="1.95298">
        <ele>449.1</ele>
        <time>2013-11-16T09:46:35.000Z</time>
      </trkpt>
      <trkpt lat="43.01689" lon="1.95344">
        <ele>450</ele>
        <time>2013-11-16T09:46:47.000Z</time>
      </trkpt>
      <trkpt lat="43.01707" lon="1.95389">
        <ele>450.5</ele>
        <time>2013-11-16T09:47:00.000Z</time>
      </trkpt>
      <trkpt lat="43.01717" lon="1.95424">
        <ele>452.4</ele>
        <time>2013-11-16T09:47:09.000Z</time>
      </trkpt>
      <trkpt lat="43.01725" lon="1.95463">
        <ele>452.9</ele>
        <time>2013-11-16T09:47:19.000Z</time>
      </trkpt>
      <trkpt lat="43.01725" lon="1.95467">
        <ele>453.9</ele>
        <time>2013-11-16T09:47:20.000Z</time>
      </trkpt>
      <trkpt lat="43.01725" lon="1.9547">
        <ele>452.4</ele>
        <time>2013-11-16T09:47:21.000Z</time>
      </trkpt>
      <trkpt lat="43.01725" lon="1.95504">
        <ele>452.9</ele>
        <time>2013-11-16T09:47:31.000Z</time>
      </trkpt>
      <trkpt lat="43.01725" lon="1.95506">
        <ele>453.9</ele>
        <time>2013-11-16T09:47:41.000Z</time>
      </trkpt>
      <trkpt lat="43.01725" lon="1.95508">
        <ele>452</ele>
        <time>2013-11-16T09:47:44.000Z</time>
      </trkpt>
      <trkpt lat="43.01725" lon="1.95515">
        <ele>452.9</ele>
        <time>2013-11-16T09:47:49.000Z</time>
      </trkpt>
      <trkpt lat="43.01725" lon="1.95521">
        <ele>454.4</ele>
        <time>2013-11-16T09:47:58.000Z</time>
      </trkpt>
      <trkpt lat="43.01726" lon="1.95533">
        <ele>452</ele>
        <time>2013-11-16T09:48:39.000Z</time>
      </trkpt>
      <trkpt lat="43.01724" lon="1.95541">
        <ele>451.5</ele>
        <time>2013-11-16T09:48:54.000Z</time>
      </trkpt>
      <trkpt lat="43.01723" lon="1.95543">
        <ele>452</ele>
        <time>2013-11-16T09:48:55.000Z</time>
      </trkpt>
      <trkpt lat="43.01719" lon="1.95551">
        <ele>452.4</ele>
        <time>2013-11-16T09:49:01.000Z</time>
      </trkpt>
      <trkpt lat="43.01714" lon="1.95556">
        <ele>453.9</ele>
        <time>2013-11-16T09:49:05.000Z</time>
      </trkpt>
      <trkpt lat="43.01709" lon="1.95563">
        <ele>454.4</ele>
        <time>2013-11-16T09:49:09.000Z</time>
      </trkpt>
      <trkpt lat="43.01707" lon="1.95564">
        <ele>453.4</ele>
        <time>2013-11-16T09:49:10.000Z</time>
      </trkpt>
      <trkpt lat="43.01704" lon="1.95566">
        <ele>453.9</ele>
        <time>2013-11-16T09:49:12.000Z</time>
      </trkpt>
      <trkpt lat="43.01702" lon="1.9557">
        <ele>454.4</ele>
        <time>2013-11-16T09:49:14.000Z</time>
      </trkpt>
      <trkpt lat="43.01702" lon="1.95573">
        <ele>453.4</ele>
        <time>2013-11-16T09:49:15.000Z</time>
      </trkpt>
      <trkpt lat="43.01701" lon="1.95576">
        <ele>453.9</ele>
        <time>2013-11-16T09:49:16.000Z</time>
      </trkpt>
      <trkpt lat="43.017" lon="1.95579">
        <ele>453.4</ele>
        <time>2013-11-16T09:49:17.000Z</time>
      </trkpt>
      <trkpt lat="43.01699" lon="1.95581">
        <ele>453.9</ele>
        <time>2013-11-16T09:49:18.000Z</time>
      </trkpt>
      <trkpt lat="43.01698" lon="1.95584">
        <ele>453.9</ele>
        <time>2013-11-16T09:49:19.000Z</time>
      </trkpt>
      <trkpt lat="43.01698" lon="1.95587">
        <ele>452.9</ele>
        <time>2013-11-16T09:49:20.000Z</time>
      </trkpt>
      <trkpt lat="43.01697" lon="1.9559">
        <ele>452.9</ele>
        <time>2013-11-16T09:49:21.000Z</time>
      </trkpt>
      <trkpt lat="43.01697" lon="1.95592">
        <ele>454.4</ele>
        <time>2013-11-16T09:49:22.000Z</time>
      </trkpt>
      <trkpt lat="43.01696" lon="1.95595">
        <ele>453.4</ele>
        <time>2013-11-16T09:49:23.000Z</time>
      </trkpt>
      <trkpt lat="43.01695" lon="1.95596">
        <ele>452.9</ele>
        <time>2013-11-16T09:49:24.000Z</time>
      </trkpt>
      <trkpt lat="43.01694" lon="1.95598">
        <ele>453.4</ele>
        <time>2013-11-16T09:49:25.000Z</time>
      </trkpt>
      <trkpt lat="43.01686" lon="1.95628">
        <ele>452</ele>
        <time>2013-11-16T09:49:37.000Z</time>
      </trkpt>
      <trkpt lat="43.01683" lon="1.95634">
        <ele>452.4</ele>
        <time>2013-11-16T09:49:39.000Z</time>
      </trkpt>
      <trkpt lat="43.0168" lon="1.95636">
        <ele>450.5</ele>
        <time>2013-11-16T09:49:40.000Z</time>
      </trkpt>
      <trkpt lat="43.01678" lon="1.95638">
        <ele>452.4</ele>
        <time>2013-11-16T09:49:41.000Z</time>
      </trkpt>
      <trkpt lat="43.01678" lon="1.95641">
        <ele>452</ele>
        <time>2013-11-16T09:49:42.000Z</time>
      </trkpt>
      <trkpt lat="43.01678" lon="1.95644">
        <ele>452.4</ele>
        <time>2013-11-16T09:49:43.000Z</time>
      </trkpt>
      <trkpt lat="43.01679" lon="1.95646">
        <ele>451</ele>
        <time>2013-11-16T09:49:44.000Z</time>
      </trkpt>
      <trkpt lat="43.01681" lon="1.95648">
        <ele>451.5</ele>
        <time>2013-11-16T09:49:45.000Z</time>
      </trkpt>
      <trkpt lat="43.01684" lon="1.9565">
        <ele>450</ele>
        <time>2013-11-16T09:49:46.000Z</time>
      </trkpt>
      <trkpt lat="43.01688" lon="1.95651">
        <ele>450</ele>
        <time>2013-11-16T09:49:47.000Z</time>
      </trkpt>
      <trkpt lat="43.01692" lon="1.95652">
        <ele>448.1</ele>
        <time>2013-11-16T09:49:48.000Z</time>
      </trkpt>
      <trkpt lat="43.01703" lon="1.95655">
        <ele>448.6</ele>
        <time>2013-11-16T09:49:50.000Z</time>
      </trkpt>
      <trkpt lat="43.01709" lon="1.95656">
        <ele>447.6</ele>
        <time>2013-11-16T09:49:51.000Z</time>
      </trkpt>
      <trkpt lat="43.01715" lon="1.95655">
        <ele>447.2</ele>
        <time>2013-11-16T09:49:52.000Z</time>
      </trkpt>
      <trkpt lat="43.01727" lon="1.95656">
        <ele>445.2</ele>
        <time>2013-11-16T09:49:54.000Z</time>
      </trkpt>
      <trkpt lat="43.01731" lon="1.9566">
        <ele>443.3</ele>
        <time>2013-11-16T09:49:55.000Z</time>
      </trkpt>
      <trkpt lat="43.01733" lon="1.95665">
        <ele>442.3</ele>
        <time>2013-11-16T09:49:56.000Z</time>
      </trkpt>
      <trkpt lat="43.01732" lon="1.95672">
        <ele>439.9</ele>
        <time>2013-11-16T09:49:57.000Z</time>
      </trkpt>
      <trkpt lat="43.01731" lon="1.9568">
        <ele>439.5</ele>
        <time>2013-11-16T09:49:58.000Z</time>
      </trkpt>
      <trkpt lat="43.01725" lon="1.95705">
        <ele>437.1</ele>
        <time>2013-11-16T09:50:01.000Z</time>
      </trkpt>
      <trkpt lat="43.01726" lon="1.95711">
        <ele>435.1</ele>
        <time>2013-11-16T09:50:02.000Z</time>
      </trkpt>
      <trkpt lat="43.01728" lon="1.95717">
        <ele>434.2</ele>
        <time>2013-11-16T09:50:03.000Z</time>
      </trkpt>
      <trkpt lat="43.01732" lon="1.9572">
        <ele>435.1</ele>
        <time>2013-11-16T09:50:04.000Z</time>
      </trkpt>
      <trkpt lat="43.01738" lon="1.9572">
        <ele>433.7</ele>
        <time>2013-11-16T09:50:05.000Z</time>
      </trkpt>
      <trkpt lat="43.01743" lon="1.95717">
        <ele>432.3</ele>
        <time>2013-11-16T09:50:06.000Z</time>
      </trkpt>
      <trkpt lat="43.01749" lon="1.95714">
        <ele>432.3</ele>
        <time>2013-11-16T09:50:07.000Z</time>
      </trkpt>
      <trkpt lat="43.01755" lon="1.95709">
        <ele>431.8</ele>
        <time>2013-11-16T09:50:08.000Z</time>
      </trkpt>
      <trkpt lat="43.01776" lon="1.9569">
        <ele>429.4</ele>
        <time>2013-11-16T09:50:11.000Z</time>
      </trkpt>
      <trkpt lat="43.01799" lon="1.95674">
        <ele>427</ele>
        <time>2013-11-16T09:50:14.000Z</time>
      </trkpt>
      <trkpt lat="43.01806" lon="1.95673">
        <ele>425</ele>
        <time>2013-11-16T09:50:15.000Z</time>
      </trkpt>
      <trkpt lat="43.01812" lon="1.95675">
        <ele>422.2</ele>
        <time>2013-11-16T09:50:16.000Z</time>
      </trkpt>
      <trkpt lat="43.01817" lon="1.95682">
        <ele>421.7</ele>
        <time>2013-11-16T09:50:17.000Z</time>
      </trkpt>
      <trkpt lat="43.01823" lon="1.95691">
        <ele>419.8</ele>
        <time>2013-11-16T09:50:18.000Z</time>
      </trkpt>
      <trkpt lat="43.01828" lon="1.95702">
        <ele>419.3</ele>
        <time>2013-11-16T09:50:19.000Z</time>
      </trkpt>
      <trkpt lat="43.01839" lon="1.95723">
        <ele>415.4</ele>
        <time>2013-11-16T09:50:21.000Z</time>
      </trkpt>
      <trkpt lat="43.01843" lon="1.95732">
        <ele>415.4</ele>
        <time>2013-11-16T09:50:22.000Z</time>
      </trkpt>
      <trkpt lat="43.01845" lon="1.95741">
        <ele>415</ele>
        <time>2013-11-16T09:50:23.000Z</time>
      </trkpt>
      <trkpt lat="43.01846" lon="1.9575">
        <ele>412.1</ele>
        <time>2013-11-16T09:50:24.000Z</time>
      </trkpt>
      <trkpt lat="43.01847" lon="1.9576">
        <ele>413.5</ele>
        <time>2013-11-16T09:50:25.000Z</time>
      </trkpt>
      <trkpt lat="43.01851" lon="1.95795">
        <ele>409.7</ele>
        <time>2013-11-16T09:50:28.000Z</time>
      </trkpt>
      <trkpt lat="43.01853" lon="1.95806">
        <ele>409.7</ele>
        <time>2013-11-16T09:50:29.000Z</time>
      </trkpt>
      <trkpt lat="43.01855" lon="1.95817">
        <ele>408.7</ele>
        <time>2013-11-16T09:50:30.000Z</time>
      </trkpt>
      <trkpt lat="43.01856" lon="1.95826">
        <ele>407.3</ele>
        <time>2013-11-16T09:50:31.000Z</time>
      </trkpt>
      <trkpt lat="43.01856" lon="1.95836">
        <ele>405.3</ele>
        <time>2013-11-16T09:50:32.000Z</time>
      </trkpt>
      <trkpt lat="43.01854" lon="1.95858">
        <ele>402</ele>
        <time>2013-11-16T09:50:34.000Z</time>
      </trkpt>
      <trkpt lat="43.01853" lon="1.95871">
        <ele>401.5</ele>
        <time>2013-11-16T09:50:35.000Z</time>
      </trkpt>
      <trkpt lat="43.01852" lon="1.95911">
        <ele>396.7</ele>
        <time>2013-11-16T09:50:38.000Z</time>
      </trkpt>
      <trkpt lat="43.01854" lon="1.95923">
        <ele>395.2</ele>
        <time>2013-11-16T09:50:39.000Z</time>
      </trkpt>
      <trkpt lat="43.01856" lon="1.95934">
        <ele>395.2</ele>
        <time>2013-11-16T09:50:40.000Z</time>
      </trkpt>
      <trkpt lat="43.01859" lon="1.95945">
        <ele>394.3</ele>
        <time>2013-11-16T09:50:41.000Z</time>
      </trkpt>
      <trkpt lat="43.01863" lon="1.95955">
        <ele>392.8</ele>
        <time>2013-11-16T09:50:42.000Z</time>
      </trkpt>
      <trkpt lat="43.0187" lon="1.95975">
        <ele>391.4</ele>
        <time>2013-11-16T09:50:44.000Z</time>
      </trkpt>
      <trkpt lat="43.01922" lon="1.96069">
        <ele>389</ele>
        <time>2013-11-16T09:50:55.000Z</time>
      </trkpt>
      <trkpt lat="43.01929" lon="1.96087">
        <ele>386.6</ele>
        <time>2013-11-16T09:50:57.000Z</time>
      </trkpt>
      <trkpt lat="43.01945" lon="1.96125">
        <ele>384.7</ele>
        <time>2013-11-16T09:51:01.000Z</time>
      </trkpt>
      <trkpt lat="43.01961" lon="1.9615">
        <ele>384.2</ele>
        <time>2013-11-16T09:51:04.000Z</time>
      </trkpt>
      <trkpt lat="43.01996" lon="1.96189">
        <ele>383.2</ele>
        <time>2013-11-16T09:51:10.000Z</time>
      </trkpt>
      <trkpt lat="43.02029" lon="1.96254">
        <ele>378.9</ele>
        <time>2013-11-16T09:51:18.000Z</time>
      </trkpt>
      <trkpt lat="43.02037" lon="1.96268">
        <ele>377.9</ele>
        <time>2013-11-16T09:51:20.000Z</time>
      </trkpt>
      <trkpt lat="43.02046" lon="1.96284">
        <ele>374.6</ele>
        <time>2013-11-16T09:51:22.000Z</time>
      </trkpt>
      <trkpt lat="43.02051" lon="1.96292">
        <ele>375.1</ele>
        <time>2013-11-16T09:51:23.000Z</time>
      </trkpt>
      <trkpt lat="43.02056" lon="1.96301">
        <ele>373.1</ele>
        <time>2013-11-16T09:51:24.000Z</time>
      </trkpt>
      <trkpt lat="43.02065" lon="1.96321">
        <ele>370.2</ele>
        <time>2013-11-16T09:51:26.000Z</time>
      </trkpt>
      <trkpt lat="43.02075" lon="1.96342">
        <ele>368.8</ele>
        <time>2013-11-16T09:51:28.000Z</time>
      </trkpt>
      <trkpt lat="43.02084" lon="1.96361">
        <ele>363.5</ele>
        <time>2013-11-16T09:51:30.000Z</time>
      </trkpt>
      <trkpt lat="43.02092" lon="1.96375">
        <ele>360.2</ele>
        <time>2013-11-16T09:51:32.000Z</time>
      </trkpt>
      <trkpt lat="43.02094" lon="1.96381">
        <ele>359.7</ele>
        <time>2013-11-16T09:51:33.000Z</time>
      </trkpt>
      <trkpt lat="43.02094" lon="1.96386">
        <ele>359.2</ele>
        <time>2013-11-16T09:51:34.000Z</time>
      </trkpt>
      <trkpt lat="43.02093" lon="1.96391">
        <ele>357.8</ele>
        <time>2013-11-16T09:51:35.000Z</time>
      </trkpt>
      <trkpt lat="43.02092" lon="1.96396">
        <ele>356.8</ele>
        <time>2013-11-16T09:51:36.000Z</time>
      </trkpt>
      <trkpt lat="43.02091" lon="1.964">
        <ele>356.3</ele>
        <time>2013-11-16T09:51:37.000Z</time>
      </trkpt>
      <trkpt lat="43.02092" lon="1.96405">
        <ele>355.3</ele>
        <time>2013-11-16T09:51:38.000Z</time>
      </trkpt>
      <trkpt lat="43.02094" lon="1.96409">
        <ele>355.8</ele>
        <time>2013-11-16T09:51:39.000Z</time>
      </trkpt>
      <trkpt lat="43.02098" lon="1.96411">
        <ele>355.3</ele>
        <time>2013-11-16T09:51:40.000Z</time>
      </trkpt>
      <trkpt lat="43.02102" lon="1.96413">
        <ele>355.3</ele>
        <time>2013-11-16T09:51:41.000Z</time>
      </trkpt>
      <trkpt lat="43.02104" lon="1.96414">
        <ele>353.4</ele>
        <time>2013-11-16T09:51:42.000Z</time>
      </trkpt>
      <trkpt lat="43.02105" lon="1.96414">
        <ele>353.4</ele>
        <time>2013-11-16T09:51:43.000Z</time>
      </trkpt>
      <trkpt lat="43.0212" lon="1.96427">
        <ele>352</ele>
        <time>2013-11-16T09:51:52.000Z</time>
      </trkpt>
      <trkpt lat="43.02124" lon="1.96432">
        <ele>350.1</ele>
        <time>2013-11-16T09:51:53.000Z</time>
      </trkpt>
      <trkpt lat="43.02128" lon="1.96437">
        <ele>350.1</ele>
        <time>2013-11-16T09:51:54.000Z</time>
      </trkpt>
      <trkpt lat="43.02136" lon="1.96448">
        <ele>349.1</ele>
        <time>2013-11-16T09:51:56.000Z</time>
      </trkpt>
      <trkpt lat="43.02139" lon="1.96453">
        <ele>347.7</ele>
        <time>2013-11-16T09:51:57.000Z</time>
      </trkpt>
      <trkpt lat="43.02141" lon="1.96459">
        <ele>349.1</ele>
        <time>2013-11-16T09:51:58.000Z</time>
      </trkpt>
      <trkpt lat="43.02144" lon="1.96464">
        <ele>347.2</ele>
        <time>2013-11-16T09:51:59.000Z</time>
      </trkpt>
      <trkpt lat="43.02147" lon="1.96471">
        <ele>347.2</ele>
        <time>2013-11-16T09:52:00.000Z</time>
      </trkpt>
      <trkpt lat="43.02166" lon="1.96502">
        <ele>343.8</ele>
        <time>2013-11-16T09:52:06.000Z</time>
      </trkpt>
      <trkpt lat="43.02167" lon="1.96505">
        <ele>343.3</ele>
        <time>2013-11-16T09:52:07.000Z</time>
      </trkpt>
      <trkpt lat="43.02166" lon="1.96508">
        <ele>342.4</ele>
        <time>2013-11-16T09:52:08.000Z</time>
      </trkpt>
      <trkpt lat="43.02163" lon="1.96521">
        <ele>343.3</ele>
        <time>2013-11-16T09:52:14.000Z</time>
      </trkpt>
      <trkpt lat="43.02164" lon="1.96523">
        <ele>342.4</ele>
        <time>2013-11-16T09:52:15.000Z</time>
      </trkpt>
      <trkpt lat="43.02165" lon="1.96524">
        <ele>341.9</ele>
        <time>2013-11-16T09:52:16.000Z</time>
      </trkpt>
      <trkpt lat="43.02167" lon="1.96525">
        <ele>343.8</ele>
        <time>2013-11-16T09:52:17.000Z</time>
      </trkpt>
      <trkpt lat="43.02169" lon="1.96528">
        <ele>343.8</ele>
        <time>2013-11-16T09:52:18.000Z</time>
      </trkpt>
      <trkpt lat="43.02184" lon="1.96556">
        <ele>345.7</ele>
        <time>2013-11-16T09:52:27.000Z</time>
      </trkpt>
      <trkpt lat="43.02192" lon="1.96591">
        <ele>348.6</ele>
        <time>2013-11-16T09:52:37.000Z</time>
      </trkpt>
      <trkpt lat="43.02205" lon="1.9664">
        <ele>347.7</ele>
        <time>2013-11-16T09:52:52.000Z</time>
      </trkpt>
      <trkpt lat="43.02211" lon="1.96664">
        <ele>347.7</ele>
        <time>2013-11-16T09:53:03.000Z</time>
      </trkpt>
      <trkpt lat="43.02211" lon="1.96661">
        <ele>348.6</ele>
        <time>2013-11-16T09:53:06.000Z</time>
      </trkpt>
      <trkpt lat="43.02211" lon="1.9666">
        <ele>347.7</ele>
        <time>2013-11-16T09:53:07.000Z</time>
      </trkpt>
      <trkpt lat="43.0221" lon="1.96656">
        <ele>348.1</ele>
        <time>2013-11-16T09:53:10.000Z</time>
      </trkpt>
      <trkpt lat="43.02209" lon="1.96655">
        <ele>348.1</ele>
        <time>2013-11-16T09:53:11.000Z</time>
      </trkpt>
      <trkpt lat="43.02207" lon="1.9665">
        <ele>347.7</ele>
        <time>2013-11-16T09:53:18.000Z</time>
      </trkpt>
      <trkpt lat="43.02207" lon="1.96652">
        <ele>348.1</ele>
        <time>2013-11-16T09:53:19.000Z</time>
      </trkpt>
      <trkpt lat="43.02208" lon="1.96653">
        <ele>348.6</ele>
        <time>2013-11-16T09:53:20.000Z</time>
      </trkpt>
      <trkpt lat="43.02209" lon="1.96655">
        <ele>348.6</ele>
        <time>2013-11-16T09:53:21.000Z</time>
      </trkpt>
      <trkpt lat="43.0221" lon="1.96656">
        <ele>348.1</ele>
        <time>2013-11-16T09:53:35.000Z</time>
      </trkpt>
      <trkpt lat="43.02211" lon="1.96659">
        <ele>347.7</ele>
        <time>2013-11-16T09:53:52.000Z</time>
      </trkpt>
      <trkpt lat="43.02211" lon="1.96661">
        <ele>346.7</ele>
        <time>2013-11-16T09:53:53.000Z</time>
      </trkpt>
      <trkpt lat="43.02212" lon="1.96663">
        <ele>347.7</ele>
        <time>2013-11-16T09:53:54.000Z</time>
      </trkpt>
      <trkpt lat="43.02213" lon="1.96666">
        <ele>348.1</ele>
        <time>2013-11-16T09:53:55.000Z</time>
      </trkpt>
      <trkpt lat="43.02214" lon="1.96668">
        <ele>347.2</ele>
        <time>2013-11-16T09:53:56.000Z</time>
      </trkpt>
      <trkpt lat="43.02214" lon="1.96671">
        <ele>347.7</ele>
        <time>2013-11-16T09:53:57.000Z</time>
      </trkpt>
      <trkpt lat="43.02224" lon="1.96707">
        <ele>348.1</ele>
        <time>2013-11-16T09:54:09.000Z</time>
      </trkpt>
      <trkpt lat="43.02229" lon="1.96726">
        <ele>349.1</ele>
        <time>2013-11-16T09:54:16.000Z</time>
      </trkpt>
      <trkpt lat="43.02229" lon="1.96728">
        <ele>350.1</ele>
        <time>2013-11-16T09:54:17.000Z</time>
      </trkpt>
      <trkpt lat="43.02227" lon="1.96739">
        <ele>351.5</ele>
        <time>2013-11-16T09:56:37.000Z</time>
      </trkpt>
      <trkpt lat="43.02228" lon="1.96741">
        <ele>352.5</ele>
        <time>2013-11-16T09:56:38.000Z</time>
      </trkpt>
      <trkpt lat="43.02228" lon="1.96743">
        <ele>351.5</ele>
        <time>2013-11-16T09:56:39.000Z</time>
      </trkpt>
      <trkpt lat="43.02232" lon="1.96763">
        <ele>351</ele>
        <time>2013-11-16T09:56:50.000Z</time>
      </trkpt>
      <trkpt lat="43.02236" lon="1.96766">
        <ele>351</ele>
        <time>2013-11-16T09:56:53.000Z</time>
      </trkpt>
      <trkpt lat="43.02247" lon="1.96796">
        <ele>349.1</ele>
        <time>2013-11-16T09:57:03.000Z</time>
      </trkpt>
      <trkpt lat="43.02257" lon="1.96833">
        <ele>348.6</ele>
        <time>2013-11-16T09:57:16.000Z</time>
      </trkpt>
      <trkpt lat="43.02256" lon="1.96835">
        <ele>349.1</ele>
        <time>2013-11-16T09:57:17.000Z</time>
      </trkpt>
      <trkpt lat="43.02255" lon="1.96836">
        <ele>349.6</ele>
        <time>2013-11-16T09:57:18.000Z</time>
      </trkpt>
      <trkpt lat="43.02247" lon="1.96835">
        <ele>350.1</ele>
        <time>2013-11-16T09:57:29.000Z</time>
      </trkpt>
      <trkpt lat="43.02248" lon="1.96833">
        <ele>349.6</ele>
        <time>2013-11-16T09:57:30.000Z</time>
      </trkpt>
      <trkpt lat="43.02248" lon="1.96832">
        <ele>349.1</ele>
        <time>2013-11-16T09:57:37.000Z</time>
      </trkpt>
      <trkpt lat="43.02249" lon="1.96834">
        <ele>349.6</ele>
        <time>2013-11-16T09:57:38.000Z</time>
      </trkpt>
      <trkpt lat="43.02242" lon="1.96836">
        <ele>350.5</ele>
        <time>2013-11-16T09:57:46.000Z</time>
      </trkpt>
      <trkpt lat="43.02242" lon="1.96836">
        <ele>350.5</ele>
        <time>2013-11-16T09:57:59.000Z</time>
      </trkpt>
      <trkpt lat="43.02225" lon="1.96826">
        <ele>347.2</ele>
        <time>2013-11-16T09:58:07.000Z</time>
      </trkpt>
      <trkpt lat="43.02215" lon="1.96822">
        <ele>345.3</ele>
        <time>2013-11-16T09:58:10.000Z</time>
      </trkpt>
      <trkpt lat="43.02196" lon="1.96834">
        <ele>341.9</ele>
        <time>2013-11-16T09:58:16.000Z</time>
      </trkpt>
      <trkpt lat="43.02195" lon="1.96841">
        <ele>340.9</ele>
        <time>2014-02-15T10:28:29.000Z</time>
      </trkpt>
      <trkpt lat="43.02194" lon="1.9684">
        <ele>340.9</ele>
        <time>2014-02-15T10:28:28.000Z</time>
      </trkpt>
      <trkpt lat="43.02163" lon="1.9681">
        <ele>339</ele>
        <time>2014-02-15T10:28:14.000Z</time>
      </trkpt>
      <trkpt lat="43.0214" lon="1.96771">
        <ele>338.5</ele>
        <time>2014-02-15T10:28:04.000Z</time>
      </trkpt>
      <trkpt lat="43.02138" lon="1.96723">
        <ele>339.5</ele>
        <time>2014-02-15T10:27:53.000Z</time>
      </trkpt>
      <trkpt lat="43.02137" lon="1.96721">
        <ele>339</ele>
        <time>2014-02-15T10:27:52.000Z</time>
      </trkpt>
      <trkpt lat="43.02136" lon="1.9672">
        <ele>339</ele>
        <time>2014-02-15T10:27:51.000Z</time>
      </trkpt>
      <trkpt lat="43.02139" lon="1.96712">
        <ele>339.5</ele>
        <time>2014-02-15T10:24:30.000Z</time>
      </trkpt>
      <trkpt lat="43.02144" lon="1.96685">
        <ele>340.9</ele>
        <time>2014-02-15T10:24:18.000Z</time>
      </trkpt>
      <trkpt lat="43.02144" lon="1.96683">
        <ele>339.5</ele>
        <time>2014-02-15T10:22:57.000Z</time>
      </trkpt>
      <trkpt lat="43.02145" lon="1.96683">
        <ele>340.4</ele>
        <time>2014-02-15T10:22:42.000Z</time>
      </trkpt>
      <trkpt lat="43.02146" lon="1.96682">
        <ele>340.4</ele>
        <time>2014-02-15T10:22:41.000Z</time>
      </trkpt>
      <trkpt lat="43.02147" lon="1.9668">
        <ele>339.5</ele>
        <time>2014-02-15T10:22:40.000Z</time>
      </trkpt>
      <trkpt lat="43.02148" lon="1.96678">
        <ele>340.4</ele>
        <time>2014-02-15T10:22:39.000Z</time>
      </trkpt>
      <trkpt lat="43.02148" lon="1.96676">
        <ele>340.9</ele>
        <time>2014-02-15T10:22:38.000Z</time>
      </trkpt>
      <trkpt lat="43.02149" lon="1.96674">
        <ele>340.9</ele>
        <time>2014-02-15T10:22:37.000Z</time>
      </trkpt>
      <trkpt lat="43.02149" lon="1.96672">
        <ele>340.4</ele>
        <time>2014-02-15T10:22:36.000Z</time>
      </trkpt>
      <trkpt lat="43.02149" lon="1.9667">
        <ele>340.4</ele>
        <time>2014-02-15T10:22:35.000Z</time>
      </trkpt>
      <trkpt lat="43.02149" lon="1.96668">
        <ele>340.9</ele>
        <time>2014-02-15T10:22:34.000Z</time>
      </trkpt>
      <trkpt lat="43.0215" lon="1.96667">
        <ele>340.4</ele>
        <time>2014-02-15T10:22:33.000Z</time>
      </trkpt>
      <trkpt lat="43.02151" lon="1.96667">
        <ele>339.5</ele>
        <time>2014-02-15T10:22:32.000Z</time>
      </trkpt>
      <trkpt lat="43.02152" lon="1.96666">
        <ele>341.4</ele>
        <time>2014-02-15T10:21:57.000Z</time>
      </trkpt>
      <trkpt lat="43.02152" lon="1.96664">
        <ele>341.4</ele>
        <time>2014-02-15T10:21:56.000Z</time>
      </trkpt>
      <trkpt lat="43.02152" lon="1.96662">
        <ele>341.4</ele>
        <time>2014-02-15T10:21:55.000Z</time>
      </trkpt>
      <trkpt lat="43.02152" lon="1.9666">
        <ele>340.9</ele>
        <time>2014-02-15T10:21:54.000Z</time>
      </trkpt>
      <trkpt lat="43.02153" lon="1.96658">
        <ele>340.9</ele>
        <time>2014-02-15T10:21:53.000Z</time>
      </trkpt>
      <trkpt lat="43.02153" lon="1.96603">
        <ele>342.9</ele>
        <time>2014-02-15T10:21:38.000Z</time>
      </trkpt>
      <trkpt lat="43.02153" lon="1.96599">
        <ele>342.9</ele>
        <time>2014-02-15T10:21:37.000Z</time>
      </trkpt>
      <trkpt lat="43.02153" lon="1.96596">
        <ele>342.4</ele>
        <time>2014-02-15T10:21:36.000Z</time>
      </trkpt>
      <trkpt lat="43.02153" lon="1.96593">
        <ele>342.4</ele>
        <time>2014-02-15T10:21:35.000Z</time>
      </trkpt>
      <trkpt lat="43.02153" lon="1.9659">
        <ele>341.9</ele>
        <time>2014-02-15T10:21:34.000Z</time>
      </trkpt>
      <trkpt lat="43.02153" lon="1.96588">
        <ele>342.9</ele>
        <time>2014-02-15T10:21:33.000Z</time>
      </trkpt>
      <trkpt lat="43.02153" lon="1.96586">
        <ele>341.9</ele>
        <time>2014-02-15T10:21:32.000Z</time>
      </trkpt>
      <trkpt lat="43.02152" lon="1.96586">
        <ele>342.4</ele>
        <time>2014-02-15T10:21:20.000Z</time>
      </trkpt>
      <trkpt lat="43.02152" lon="1.96586">
        <ele>342.4</ele>
        <time>2014-02-15T10:21:00.000Z</time>
      </trkpt>
      <trkpt lat="43.02152" lon="1.96578">
        <ele>340.9</ele>
        <time>2014-02-15T10:20:56.000Z</time>
      </trkpt>
      <trkpt lat="43.02152" lon="1.96575">
        <ele>342.4</ele>
        <time>2014-02-15T10:20:55.000Z</time>
      </trkpt>
      <trkpt lat="43.02152" lon="1.96571">
        <ele>342.4</ele>
        <time>2014-02-15T10:20:54.000Z</time>
      </trkpt>
      <trkpt lat="43.02153" lon="1.96568">
        <ele>342.4</ele>
        <time>2014-02-15T10:20:53.000Z</time>
      </trkpt>
      <trkpt lat="43.02153" lon="1.96565">
        <ele>343.3</ele>
        <time>2014-02-15T10:20:52.000Z</time>
      </trkpt>
      <trkpt lat="43.02151" lon="1.96563">
        <ele>341.9</ele>
        <time>2014-02-15T10:20:51.000Z</time>
      </trkpt>
      <trkpt lat="43.0215" lon="1.96561">
        <ele>341.4</ele>
        <time>2014-02-15T10:20:50.000Z</time>
      </trkpt>
      <trkpt lat="43.0215" lon="1.96558">
        <ele>341.9</ele>
        <time>2014-02-15T10:20:49.000Z</time>
      </trkpt>
      <trkpt lat="43.02151" lon="1.96556">
        <ele>342.9</ele>
        <time>2014-02-15T10:20:48.000Z</time>
      </trkpt>
      <trkpt lat="43.02152" lon="1.96556">
        <ele>341.9</ele>
        <time>2014-02-15T10:20:47.000Z</time>
      </trkpt>
      <trkpt lat="43.02153" lon="1.96558">
        <ele>342.4</ele>
        <time>2014-02-15T10:20:46.000Z</time>
      </trkpt>
      <trkpt lat="43.02152" lon="1.9656">
        <ele>342.4</ele>
        <time>2014-02-15T10:20:45.000Z</time>
      </trkpt>
      <trkpt lat="43.02152" lon="1.96562">
        <ele>341.4</ele>
        <time>2014-02-15T10:20:44.000Z</time>
      </trkpt>
      <trkpt lat="43.02152" lon="1.96561">
        <ele>342.9</ele>
        <time>2014-02-15T10:20:42.000Z</time>
      </trkpt>
      <trkpt lat="43.02152" lon="1.9656">
        <ele>342.4</ele>
        <time>2014-02-15T10:20:41.000Z</time>
      </trkpt>
      <trkpt lat="43.02153" lon="1.96557">
        <ele>341.9</ele>
        <time>2014-02-15T10:20:39.000Z</time>
      </trkpt>
      <trkpt lat="43.02153" lon="1.96554">
        <ele>341.9</ele>
        <time>2014-02-15T10:20:38.000Z</time>
      </trkpt>
      <trkpt lat="43.02153" lon="1.96551">
        <ele>341.4</ele>
        <time>2014-02-15T10:20:37.000Z</time>
      </trkpt>
      <trkpt lat="43.02154" lon="1.96548">
        <ele>341.4</ele>
        <time>2014-02-15T10:20:36.000Z</time>
      </trkpt>
      <trkpt lat="43.02154" lon="1.96544">
        <ele>342.4</ele>
        <time>2014-02-15T10:20:35.000Z</time>
      </trkpt>
      <trkpt lat="43.02155" lon="1.96541">
        <ele>342.4</ele>
        <time>2014-02-15T10:20:34.000Z</time>
      </trkpt>
      <trkpt lat="43.02156" lon="1.96538">
        <ele>341.9</ele>
        <time>2014-02-15T10:20:33.000Z</time>
      </trkpt>
      <trkpt lat="43.02157" lon="1.96535">
        <ele>341.9</ele>
        <time>2014-02-15T10:20:32.000Z</time>
      </trkpt>
      <trkpt lat="43.02158" lon="1.96532">
        <ele>342.4</ele>
        <time>2014-02-15T10:20:31.000Z</time>
      </trkpt>
      <trkpt lat="43.02158" lon="1.96529">
        <ele>341.9</ele>
        <time>2014-02-15T10:20:30.000Z</time>
      </trkpt>
      <trkpt lat="43.02159" lon="1.96528">
        <ele>340.9</ele>
        <time>2014-02-15T10:20:29.000Z</time>
      </trkpt>
      <trkpt lat="43.02159" lon="1.96526">
        <ele>340.9</ele>
        <time>2014-02-15T10:20:28.000Z</time>
      </trkpt>
      <trkpt lat="43.0216" lon="1.96524">
        <ele>340.9</ele>
        <time>2014-02-15T10:20:27.000Z</time>
      </trkpt>
      <trkpt lat="43.02159" lon="1.96527">
        <ele>341.4</ele>
        <time>2014-02-15T10:20:18.000Z</time>
      </trkpt>
      <trkpt lat="43.02165" lon="1.96501">
        <ele>340</ele>
        <time>2014-02-15T10:20:08.000Z</time>
      </trkpt>
      <trkpt lat="43.02165" lon="1.96498">
        <ele>340.4</ele>
        <time>2014-02-15T10:20:07.000Z</time>
      </trkpt>
      <trkpt lat="43.02165" lon="1.96495">
        <ele>340</ele>
        <time>2014-02-15T10:20:06.000Z</time>
      </trkpt>
      <trkpt lat="43.02166" lon="1.96492">
        <ele>340.4</ele>
        <time>2014-02-15T10:20:05.000Z</time>
      </trkpt>
      <trkpt lat="43.02167" lon="1.96489">
        <ele>340.4</ele>
        <time>2014-02-15T10:20:04.000Z</time>
      </trkpt>
      <trkpt lat="43.02168" lon="1.96486">
        <ele>340.9</ele>
        <time>2014-02-15T10:20:03.000Z</time>
      </trkpt>
      <trkpt lat="43.02168" lon="1.96483">
        <ele>340.9</ele>
        <time>2014-02-15T10:20:02.000Z</time>
      </trkpt>
      <trkpt lat="43.02169" lon="1.9648">
        <ele>340</ele>
        <time>2014-02-15T10:20:01.000Z</time>
      </trkpt>
      <trkpt lat="43.02169" lon="1.96477">
        <ele>340.4</ele>
        <time>2014-02-15T10:20:00.000Z</time>
      </trkpt>
      <trkpt lat="43.02165" lon="1.96469">
        <ele>340.9</ele>
        <time>2014-02-15T10:19:57.000Z</time>
      </trkpt>
      <trkpt lat="43.02164" lon="1.96465">
        <ele>340.4</ele>
        <time>2014-02-15T10:19:56.000Z</time>
      </trkpt>
      <trkpt lat="43.02164" lon="1.96457">
        <ele>340.9</ele>
        <time>2014-02-15T10:19:54.000Z</time>
      </trkpt>
      <trkpt lat="43.02168" lon="1.96426">
        <ele>344.3</ele>
        <time>2014-02-15T10:19:45.000Z</time>
      </trkpt>
      <trkpt lat="43.02167" lon="1.96412">
        <ele>346.2</ele>
        <time>2014-02-15T10:19:39.000Z</time>
      </trkpt>
      <trkpt lat="43.02166" lon="1.9641">
        <ele>345.3</ele>
        <time>2014-02-15T10:19:38.000Z</time>
      </trkpt>
      <trkpt lat="43.02166" lon="1.96408">
        <ele>345.3</ele>
        <time>2014-02-15T10:19:37.000Z</time>
      </trkpt>
      <trkpt lat="43.02165" lon="1.96406">
        <ele>345.3</ele>
        <time>2014-02-15T10:19:36.000Z</time>
      </trkpt>
      <trkpt lat="43.02164" lon="1.96403">
        <ele>345.3</ele>
        <time>2014-02-15T10:19:35.000Z</time>
      </trkpt>
      <trkpt lat="43.02162" lon="1.96401">
        <ele>345.3</ele>
        <time>2014-02-15T10:19:34.000Z</time>
      </trkpt>
      <trkpt lat="43.02121" lon="1.96396">
        <ele>344.8</ele>
        <time>2014-02-15T10:19:20.000Z</time>
      </trkpt>
      <trkpt lat="43.02118" lon="1.96396">
        <ele>345.7</ele>
        <time>2014-02-15T10:19:19.000Z</time>
      </trkpt>
      <trkpt lat="43.02116" lon="1.96396">
        <ele>345.3</ele>
        <time>2014-02-15T10:19:18.000Z</time>
      </trkpt>
      <trkpt lat="43.02115" lon="1.96396">
        <ele>345.3</ele>
        <time>2014-02-15T10:19:17.000Z</time>
      </trkpt>
      <trkpt lat="43.02112" lon="1.96396">
        <ele>344.8</ele>
        <time>2014-02-15T10:19:16.000Z</time>
      </trkpt>
      <trkpt lat="43.0211" lon="1.96396">
        <ele>345.3</ele>
        <time>2014-02-15T10:19:15.000Z</time>
      </trkpt>
      <trkpt lat="43.02107" lon="1.96397">
        <ele>345.7</ele>
        <time>2014-02-15T10:19:14.000Z</time>
      </trkpt>
      <trkpt lat="43.02105" lon="1.96397">
        <ele>345.3</ele>
        <time>2014-02-15T10:19:13.000Z</time>
      </trkpt>
      <trkpt lat="43.02103" lon="1.96397">
        <ele>343.8</ele>
        <time>2014-02-15T10:19:12.000Z</time>
      </trkpt>
      <trkpt lat="43.02101" lon="1.96397">
        <ele>345.3</ele>
        <time>2014-02-15T10:19:11.000Z</time>
      </trkpt>
      <trkpt lat="43.02095" lon="1.96395">
        <ele>344.3</ele>
        <time>2014-02-15T10:19:09.000Z</time>
      </trkpt>
      <trkpt lat="43.02058" lon="1.96384">
        <ele>344.8</ele>
        <time>2014-02-15T10:18:56.000Z</time>
      </trkpt>
      <trkpt lat="43.02056" lon="1.96384">
        <ele>345.3</ele>
        <time>2014-02-15T10:18:52.000Z</time>
      </trkpt>
      <trkpt lat="43.02055" lon="1.96383">
        <ele>345.3</ele>
        <time>2014-02-15T10:18:36.000Z</time>
      </trkpt>
      <trkpt lat="43.02054" lon="1.96382">
        <ele>345.3</ele>
        <time>2014-02-15T10:18:35.000Z</time>
      </trkpt>
      <trkpt lat="43.02054" lon="1.9638">
        <ele>344.8</ele>
        <time>2014-02-15T10:18:34.000Z</time>
      </trkpt>
      <trkpt lat="43.02047" lon="1.96377">
        <ele>344.8</ele>
        <time>2014-02-15T10:18:31.000Z</time>
      </trkpt>
      <trkpt lat="43.02044" lon="1.96375">
        <ele>344.8</ele>
        <time>2014-02-15T10:18:30.000Z</time>
      </trkpt>
      <trkpt lat="43.0204" lon="1.96373">
        <ele>345.3</ele>
        <time>2014-02-15T10:18:29.000Z</time>
      </trkpt>
      <trkpt lat="43.02037" lon="1.96372">
        <ele>344.8</ele>
        <time>2014-02-15T10:18:28.000Z</time>
      </trkpt>
      <trkpt lat="43.02034" lon="1.9637">
        <ele>344.3</ele>
        <time>2014-02-15T10:18:27.000Z</time>
      </trkpt>
      <trkpt lat="43.02031" lon="1.96367">
        <ele>344.8</ele>
        <time>2014-02-15T10:18:26.000Z</time>
      </trkpt>
      <trkpt lat="43.02014" lon="1.9636">
        <ele>344.3</ele>
        <time>2014-02-15T10:18:21.000Z</time>
      </trkpt>
      <trkpt lat="43.0196" lon="1.96338">
        <ele>343.8</ele>
        <time>2014-02-15T10:18:08.000Z</time>
      </trkpt>
      <trkpt lat="43.01956" lon="1.96336">
        <ele>344.3</ele>
        <time>2014-02-15T10:18:07.000Z</time>
      </trkpt>
      <trkpt lat="43.01923" lon="1.96321">
        <ele>345.3</ele>
        <time>2014-02-15T10:17:59.000Z</time>
      </trkpt>
      <trkpt lat="43.01919" lon="1.96319">
        <ele>344.3</ele>
        <time>2014-02-15T10:17:58.000Z</time>
      </trkpt>
      <trkpt lat="43.01883" lon="1.96301">
        <ele>344.3</ele>
        <time>2014-02-15T10:17:47.000Z</time>
      </trkpt>
      <trkpt lat="43.01863" lon="1.96293">
        <ele>344.3</ele>
        <time>2014-02-15T10:17:36.000Z</time>
      </trkpt>
      <trkpt lat="43.01857" lon="1.96291">
        <ele>344.8</ele>
        <time>2014-02-15T10:17:26.000Z</time>
      </trkpt>
      <trkpt lat="43.01855" lon="1.9629">
        <ele>343.8</ele>
        <time>2014-02-15T10:16:41.000Z</time>
      </trkpt>
      <trkpt lat="43.01843" lon="1.96276">
        <ele>343.8</ele>
        <time>2014-02-15T10:16:29.000Z</time>
      </trkpt>
      <trkpt lat="43.01804" lon="1.96255">
        <ele>344.3</ele>
        <time>2014-02-15T10:16:14.000Z</time>
      </trkpt>
      <trkpt lat="43.01775" lon="1.96242">
        <ele>344.3</ele>
        <time>2014-02-15T10:16:02.000Z</time>
      </trkpt>
      <trkpt lat="43.01763" lon="1.96235">
        <ele>344.8</ele>
        <time>2014-02-15T10:15:43.000Z</time>
      </trkpt>
      <trkpt lat="43.01763" lon="1.96235">
        <ele>343.3</ele>
        <time>2014-02-15T10:15:27.000Z</time>
      </trkpt>
      <trkpt lat="43.01763" lon="1.96235">
        <ele>343.3</ele>
        <time>2014-02-15T10:15:26.000Z</time>
      </trkpt>
      <trkpt lat="43.01757" lon="1.96233">
        <ele>343.8</ele>
        <time>2014-02-15T10:15:14.000Z</time>
      </trkpt>
      <trkpt lat="43.01668" lon="1.96194">
        <ele>343.8</ele>
        <time>2014-02-15T10:15:13.000Z</time>
      </trkpt>
      <trkpt lat="43.01588" lon="1.96163">
        <ele>343.8</ele>
        <time>2014-02-15T10:14:59.000Z</time>
      </trkpt>
      <trkpt lat="43.01488" lon="1.96155">
        <ele>344.3</ele>
        <time>2014-02-15T10:14:05.000Z</time>
      </trkpt>
      <trkpt lat="43.0141" lon="1.96173">
        <ele>345.3</ele>
        <time>2014-02-15T10:13:51.000Z</time>
      </trkpt>
      <trkpt lat="43.014" lon="1.96175">
        <ele>344.8</ele>
        <time>2014-02-15T10:13:49.000Z</time>
      </trkpt>
      <trkpt lat="43.01341" lon="1.96193">
        <ele>344.3</ele>
        <time>2014-02-15T10:13:37.000Z</time>
      </trkpt>
      <trkpt lat="43.01303" lon="1.96202">
        <ele>344.3</ele>
        <time>2014-02-15T10:13:28.000Z</time>
      </trkpt>
      <trkpt lat="43.01292" lon="1.96203">
        <ele>344.3</ele>
        <time>2014-02-15T10:13:26.000Z</time>
      </trkpt>
      <trkpt lat="43.01285" lon="1.96206">
        <ele>343.8</ele>
        <time>2014-02-15T10:13:25.000Z</time>
      </trkpt>
      <trkpt lat="43.01264" lon="1.96211">
        <ele>343.8</ele>
        <time>2014-02-15T10:13:23.000Z</time>
      </trkpt>
      <trkpt lat="43.01237" lon="1.96219">
        <ele>344.3</ele>
        <time>2014-02-15T10:13:14.000Z</time>
      </trkpt>
      <trkpt lat="43.01213" lon="1.96232">
        <ele>344.3</ele>
        <time>2014-02-15T10:13:02.000Z</time>
      </trkpt>
      <trkpt lat="43.01168" lon="1.96263">
        <ele>344.8</ele>
        <time>2014-02-15T10:12:36.000Z</time>
      </trkpt>
      <trkpt lat="43.01161" lon="1.96269">
        <ele>343.8</ele>
        <time>2014-02-15T10:12:24.000Z</time>
      </trkpt>
      <trkpt lat="43.01112" lon="1.96302">
        <ele>345.7</ele>
        <time>2014-02-15T10:12:13.000Z</time>
      </trkpt>
      <trkpt lat="43.01043" lon="1.96345">
        <ele>346.2</ele>
        <time>2014-02-15T10:12:09.000Z</time>
      </trkpt>
      <trkpt lat="43.00995" lon="1.96377">
        <ele>345.3</ele>
        <time>2014-02-15T10:11:52.000Z</time>
      </trkpt>
      <trkpt lat="43.00935" lon="1.96422">
        <ele>345.3</ele>
        <time>2014-02-15T10:11:20.000Z</time>
      </trkpt>
      <trkpt lat="43.00917" lon="1.96464">
        <ele>346.7</ele>
        <time>2014-02-15T10:11:12.000Z</time>
      </trkpt>
      <trkpt lat="43.00916" lon="1.96466">
        <ele>345.7</ele>
        <time>2014-02-15T10:11:11.000Z</time>
      </trkpt>
      <trkpt lat="43.00915" lon="1.96467">
        <ele>345.7</ele>
        <time>2014-02-15T10:11:10.000Z</time>
      </trkpt>
      <trkpt lat="43.00914" lon="1.9647">
        <ele>346.2</ele>
        <time>2014-02-15T10:10:39.000Z</time>
      </trkpt>
      <trkpt lat="43.00913" lon="1.96471">
        <ele>346.2</ele>
        <time>2014-02-15T10:10:26.000Z</time>
      </trkpt>
      <trkpt lat="43.00912" lon="1.96472">
        <ele>346.7</ele>
        <time>2014-02-15T10:10:25.000Z</time>
      </trkpt>
      <trkpt lat="43.00858" lon="1.96543">
        <ele>400.6</ele>
        <time>2013-11-16T10:54:52.393Z</time>
      </trkpt>
      <trkpt lat="43.0081" lon="1.9666">
        <ele>409.5</ele>
        <time>2013-11-16T10:54:55.197Z</time>
      </trkpt>
      <trkpt lat="43.00788" lon="1.96805">
        <ele>418.2</ele>
        <time>2013-11-16T10:54:56.599Z</time>
      </trkpt>
      <trkpt lat="43.00766" lon="1.96983">
        <ele>418.2</ele>
        <time>2013-11-16T10:54:57.300Z</time>
      </trkpt>
      <trkpt lat="43.0076" lon="1.97038">
        <ele>415.9</ele>
        <time>2013-11-16T10:54:57.650Z</time>
      </trkpt>
      <trkpt lat="43.00739" lon="1.97247">
        <ele>415.3</ele>
        <time>2013-11-16T10:54:57.825Z</time>
      </trkpt>
      <trkpt lat="43.00748" lon="1.97376">
        <ele>409.5</ele>
        <time>2013-11-16T10:54:57.913Z</time>
      </trkpt>
      <trkpt lat="43.00755" lon="1.97425">
        <ele>402.1</ele>
        <time>2013-11-16T10:54:57.957Z</time>
      </trkpt>
      <trkpt lat="43.0078" lon="1.97568">
        <ele>397.7</ele>
        <time>2013-11-16T10:54:57.979Z</time>
      </trkpt>
      <trkpt lat="43.00794" lon="1.9764">
        <ele>393.4</ele>
        <time>2013-11-16T10:54:57.990Z</time>
      </trkpt>
      <trkpt lat="43.0083" lon="1.97842">
        <ele>391.9</ele>
        <time>2013-11-16T10:54:57.995Z</time>
      </trkpt>
      <trkpt lat="43.00889" lon="1.98099">
        <ele>394.7</ele>
        <time>2013-11-16T10:54:57.998Z</time>
      </trkpt>
      <trkpt lat="43.009" lon="1.98215">
        <ele>368.9</ele>
        <time>2013-11-16T10:54:57.999Z</time>
      </trkpt>
      <trkpt lat="43.00891" lon="1.98329">
        <ele>361.1</ele>
        <time>2013-11-16T10:54:58.000Z</time>
      </trkpt>
      <trkpt lat="43.00861" lon="1.98459">
        <ele>357.6</ele>
        <time>2013-11-16T10:54:58.000Z</time>
      </trkpt>
      <trkpt lat="43.00823" lon="1.98539">
        <ele>356.8</ele>
        <time>2013-11-16T10:54:58.000Z</time>
      </trkpt>
      <trkpt lat="43.0078" lon="1.98593">
        <ele>356.4</ele>
        <time>2013-11-16T10:54:58.000Z</time>
      </trkpt>
      <trkpt lat="43.00724" lon="1.98651">
        <ele>355.8</ele>
        <time>2013-11-16T10:54:58.000Z</time>
      </trkpt>
      <trkpt lat="43.00657" lon="1.98694">
        <ele>355.5</ele>
        <time>2013-11-16T10:54:58.000Z</time>
      </trkpt>
      <trkpt lat="43.00579" lon="1.98724">
        <ele>355.7</ele>
        <time>2013-11-16T10:54:58.000Z</time>
      </trkpt>
      <trkpt lat="43.00489" lon="1.9875">
        <ele>356.1</ele>
        <time>2013-11-16T10:54:58.000Z</time>
      </trkpt>
      <trkpt lat="43.00417" lon="1.98785">
        <ele>356.4</ele>
        <time>2013-11-16T10:54:58.000Z</time>
      </trkpt>
      <trkpt lat="43.00367" lon="1.98827">
        <ele>356.5</ele>
        <time>2013-11-16T10:54:58.000Z</time>
      </trkpt>
      <trkpt lat="43.00329" lon="1.98867">
        <ele>356.6</ele>
        <time>2013-11-16T10:54:58.000Z</time>
      </trkpt>
      <trkpt lat="43.0032" lon="1.98921">
        <ele>357</ele>
        <time>2013-11-16T10:54:58.000Z</time>
      </trkpt>
      <trkpt lat="43.00327" lon="1.98949">
        <ele>357.7</ele>
        <time>2013-11-16T10:54:58.000Z</time>
      </trkpt>
      <trkpt lat="43.00343" lon="1.98948">
        <ele>358</ele>
        <time>2013-11-16T10:54:58.000Z</time>
      </trkpt>
      <trkpt lat="43.00452" lon="1.98926">
        <ele>358</ele>
        <time>2013-11-16T10:54:58.000Z</time>
      </trkpt>
      <trkpt lat="43.00549" lon="1.98906">
        <ele>357.8</ele>
        <time>2013-11-16T10:54:58.000Z</time>
      </trkpt>
      <trkpt lat="43.00552" lon="1.98959">
        <ele>358.2</ele>
        <time>2013-11-16T10:54:58.000Z</time>
      </trkpt>
      <trkpt lat="43.0058" lon="1.98967">
        <ele>359.5</ele>
        <time>2013-11-16T10:54:58.000Z</time>
      </trkpt>
      <trkpt lat="43.00572" lon="1.9898">
        <ele>357.3</ele>
        <time>2013-11-16T10:54:58.000Z</time>
      </trkpt>
      <trkpt lat="43.00565" lon="1.99067">
        <ele>359.7</ele>
        <time>2013-11-16T10:54:58.000Z</time>
      </trkpt>
      <trkpt lat="43.00555" lon="1.99137">
        <ele>362.2</ele>
        <time>2013-11-16T10:54:58.000Z</time>
      </trkpt>
      <trkpt lat="43.00543" lon="1.99179">
        <ele>368.3</ele>
        <time>2013-11-16T10:54:58.000Z</time>
      </trkpt>
      <trkpt lat="43.00542" lon="1.9918">
        <ele>367.4</ele>
        <time>2013-11-16T10:54:59.000Z</time>
      </trkpt>
      <trkpt lat="43.0054" lon="1.9918">
        <ele>367.4</ele>
        <time>2013-11-16T10:55:00.000Z</time>
      </trkpt>
      <trkpt lat="43.00498" lon="1.99194">
        <ele>369.8</ele>
        <time>2013-11-16T10:55:14.000Z</time>
      </trkpt>
      <trkpt lat="43.00442" lon="1.9921">
        <ele>371.2</ele>
        <time>2013-11-16T10:55:30.000Z</time>
      </trkpt>
      <trkpt lat="43.00438" lon="1.99213">
        <ele>370.2</ele>
        <time>2013-11-16T10:55:33.000Z</time>
      </trkpt>
      <trkpt lat="43.00437" lon="1.99214">
        <ele>370.7</ele>
        <time>2013-11-16T10:55:34.000Z</time>
      </trkpt>
      <trkpt lat="43.00438" lon="1.99216">
        <ele>371.7</ele>
        <time>2013-11-16T10:55:35.000Z</time>
      </trkpt>
      <trkpt lat="43.0044" lon="1.99218">
        <ele>370.2</ele>
        <time>2013-11-16T10:55:36.000Z</time>
      </trkpt>
      <trkpt lat="43.00443" lon="1.9922">
        <ele>370.2</ele>
        <time>2013-11-16T10:55:37.000Z</time>
      </trkpt>
      <trkpt lat="43.00457" lon="1.99244">
        <ele>372.7</ele>
        <time>2013-11-16T10:55:46.000Z</time>
      </trkpt>
      <trkpt lat="43.00463" lon="1.99256">
        <ele>371.7</ele>
        <time>2013-11-16T10:55:49.000Z</time>
      </trkpt>
      <trkpt lat="43.00463" lon="1.9926">
        <ele>371.2</ele>
        <time>2013-11-16T10:55:50.000Z</time>
      </trkpt>
      <trkpt lat="43.00464" lon="1.99267">
        <ele>371.7</ele>
        <time>2013-11-16T10:55:52.000Z</time>
      </trkpt>
      <trkpt lat="43.00466" lon="1.9927">
        <ele>371.2</ele>
        <time>2013-11-16T10:55:53.000Z</time>
      </trkpt>
      <trkpt lat="43.00469" lon="1.99271">
        <ele>370.7</ele>
        <time>2013-11-16T10:55:54.000Z</time>
      </trkpt>
      <trkpt lat="43.00486" lon="1.99281">
        <ele>370.2</ele>
        <time>2013-11-16T10:55:59.000Z</time>
      </trkpt>
      <trkpt lat="43.00492" lon="1.99291">
        <ele>372.2</ele>
        <time>2013-11-16T10:56:02.000Z</time>
      </trkpt>
      <trkpt lat="43.00492" lon="1.99294">
        <ele>371.2</ele>
        <time>2013-11-16T10:56:03.000Z</time>
      </trkpt>
      <trkpt lat="43.00491" lon="1.99297">
        <ele>371.7</ele>
        <time>2013-11-16T10:56:04.000Z</time>
      </trkpt>
      <trkpt lat="43.0049" lon="1.993">
        <ele>371.7</ele>
        <time>2013-11-16T10:56:05.000Z</time>
      </trkpt>
      <trkpt lat="43.00489" lon="1.99304">
        <ele>371.2</ele>
        <time>2013-11-16T10:56:06.000Z</time>
      </trkpt>
      <trkpt lat="43.00488" lon="1.99307">
        <ele>371.2</ele>
        <time>2013-11-16T10:56:07.000Z</time>
      </trkpt>
      <trkpt lat="43.00481" lon="1.99336">
        <ele>373.1</ele>
        <time>2013-11-16T10:56:16.000Z</time>
      </trkpt>
      <trkpt lat="43.00477" lon="1.99341">
        <ele>374.6</ele>
        <time>2013-11-16T10:56:19.000Z</time>
      </trkpt>
      <trkpt lat="43.00477" lon="1.99344">
        <ele>373.6</ele>
        <time>2013-11-16T10:56:34.000Z</time>
      </trkpt>
      <trkpt lat="43.00478" lon="1.99345">
        <ele>374.1</ele>
        <time>2013-11-16T10:57:25.000Z</time>
      </trkpt>
      <trkpt lat="43.00478" lon="1.99345">
        <ele>372.7</ele>
        <time>2013-11-16T10:57:31.000Z</time>
      </trkpt>
      <trkpt lat="43.00478" lon="1.99345">
        <ele>375.1</ele>
        <time>2013-11-16T10:57:42.000Z</time>
      </trkpt>
      <trkpt lat="43.00478" lon="1.99344">
        <ele>373.1</ele>
        <time>2013-11-16T10:59:01.000Z</time>
      </trkpt>
      <trkpt lat="43.00478" lon="1.99344">
        <ele>373.1</ele>
        <time>2013-11-16T10:59:59.000Z</time>
      </trkpt>
      <trkpt lat="43.00478" lon="1.99344">
        <ele>375.1</ele>
        <time>2013-11-16T11:00:44.000Z</time>
      </trkpt>
      <trkpt lat="43.00478" lon="1.99344">
        <ele>374.6</ele>
        <time>2013-11-16T11:00:45.000Z</time>
      </trkpt>
      <trkpt lat="43.00479" lon="1.99347">
        <ele>373.6</ele>
        <time>2013-11-16T11:00:55.000Z</time>
      </trkpt>
      <trkpt lat="43.00481" lon="1.99348">
        <ele>374.1</ele>
        <time>2013-11-16T11:00:56.000Z</time>
      </trkpt>
      <trkpt lat="43.00482" lon="1.99351">
        <ele>374.6</ele>
        <time>2013-11-16T11:00:57.000Z</time>
      </trkpt>
      <trkpt lat="43.00484" lon="1.99353">
        <ele>373.1</ele>
        <time>2013-11-16T11:00:58.000Z</time>
      </trkpt>
      <trkpt lat="43.00485" lon="1.99356">
        <ele>373.6</ele>
        <time>2013-11-16T11:00:59.000Z</time>
      </trkpt>
      <trkpt lat="43.00485" lon="1.99359">
        <ele>374.1</ele>
        <time>2013-11-16T11:01:00.000Z</time>
      </trkpt>
      <trkpt lat="43.00486" lon="1.99363">
        <ele>374.1</ele>
        <time>2013-11-16T11:01:01.000Z</time>
      </trkpt>
      <trkpt lat="43.00485" lon="1.99366">
        <ele>375.1</ele>
        <time>2013-11-16T11:01:02.000Z</time>
      </trkpt>
      <trkpt lat="43.00485" lon="1.99369">
        <ele>375.5</ele>
        <time>2013-11-16T11:01:03.000Z</time>
      </trkpt>
      <trkpt lat="43.00484" lon="1.99372">
        <ele>375.1</ele>
        <time>2013-11-16T11:01:04.000Z</time>
      </trkpt>
      <trkpt lat="43.00483" lon="1.99375">
        <ele>376</ele>
        <time>2013-11-16T11:01:05.000Z</time>
      </trkpt>
      <trkpt lat="43.00482" lon="1.99378">
        <ele>376.5</ele>
        <time>2013-11-16T11:01:06.000Z</time>
      </trkpt>
      <trkpt lat="43.00481" lon="1.9938">
        <ele>376.5</ele>
        <time>2013-11-16T11:01:07.000Z</time>
      </trkpt>
      <trkpt lat="43.0048" lon="1.99382">
        <ele>376.5</ele>
        <time>2013-11-16T11:01:08.000Z</time>
      </trkpt>
      <trkpt lat="43.00478" lon="1.99384">
        <ele>376.5</ele>
        <time>2013-11-16T11:01:09.000Z</time>
      </trkpt>
      <trkpt lat="43.00476" lon="1.99387">
        <ele>376.5</ele>
        <time>2013-11-16T11:01:10.000Z</time>
      </trkpt>
      <trkpt lat="43.00474" lon="1.9939">
        <ele>377</ele>
        <time>2013-11-16T11:01:11.000Z</time>
      </trkpt>
      <trkpt lat="43.00473" lon="1.99392">
        <ele>377</ele>
        <time>2013-11-16T11:01:12.000Z</time>
      </trkpt>
      <trkpt lat="43.00471" lon="1.99396">
        <ele>377.5</ele>
        <time>2013-11-16T11:01:13.000Z</time>
      </trkpt>
      <trkpt lat="43.0047" lon="1.99399">
        <ele>377</ele>
        <time>2013-11-16T11:01:14.000Z</time>
      </trkpt>
      <trkpt lat="43.00465" lon="1.99437">
        <ele>380.3</ele>
        <time>2013-11-16T11:01:25.000Z</time>
      </trkpt>
      <trkpt lat="43.00462" lon="1.99495">
        <ele>382.3</ele>
        <time>2013-11-16T11:01:43.000Z</time>
      </trkpt>
      <trkpt lat="43.00461" lon="1.99519">
        <ele>385.6</ele>
        <time>2013-11-16T11:01:51.000Z</time>
      </trkpt>
      <trkpt lat="43.00462" lon="1.99522">
        <ele>384.7</ele>
        <time>2013-11-16T11:01:52.000Z</time>
      </trkpt>
      <trkpt lat="43.00462" lon="1.99525">
        <ele>385.2</ele>
        <time>2013-11-16T11:01:53.000Z</time>
      </trkpt>
      <trkpt lat="43.00461" lon="1.99528">
        <ele>384.7</ele>
        <time>2013-11-16T11:01:54.000Z</time>
      </trkpt>
      <trkpt lat="43.00461" lon="1.99531">
        <ele>385.2</ele>
        <time>2013-11-16T11:01:55.000Z</time>
      </trkpt>
      <trkpt lat="43.00461" lon="1.99534">
        <ele>385.6</ele>
        <time>2013-11-16T11:01:56.000Z</time>
      </trkpt>
      <trkpt lat="43.00458" lon="1.99566">
        <ele>389</ele>
        <time>2013-11-16T11:02:08.000Z</time>
      </trkpt>
      <trkpt lat="43.00458" lon="1.99569">
        <ele>388.5</ele>
        <time>2013-11-16T11:02:09.000Z</time>
      </trkpt>
      <trkpt lat="43.00457" lon="1.99589">
        <ele>390</ele>
        <time>2013-11-16T11:02:16.000Z</time>
      </trkpt>
      <trkpt lat="43.00445" lon="1.99634">
        <ele>393.3</ele>
        <time>2013-11-16T11:02:34.000Z</time>
      </trkpt>
      <trkpt lat="43.00441" lon="1.99641">
        <ele>393.3</ele>
        <time>2013-11-16T11:02:37.000Z</time>
      </trkpt>
      <trkpt lat="43.0044" lon="1.99642">
        <ele>393.8</ele>
        <time>2013-11-16T11:02:38.000Z</time>
      </trkpt>
      <trkpt lat="43.00436" lon="1.99659">
        <ele>393.8</ele>
        <time>2013-11-16T11:02:46.000Z</time>
      </trkpt>
      <trkpt lat="43.00436" lon="1.99669">
        <ele>397.2</ele>
        <time>2013-11-16T11:02:51.000Z</time>
      </trkpt>
      <trkpt lat="43.00435" lon="1.99671">
        <ele>397.2</ele>
        <time>2013-11-16T11:02:52.000Z</time>
      </trkpt>
      <trkpt lat="43.00435" lon="1.99673">
        <ele>398.1</ele>
        <time>2013-11-16T11:02:53.000Z</time>
      </trkpt>
      <trkpt lat="43.00436" lon="1.99675">
        <ele>397.2</ele>
        <time>2013-11-16T11:02:54.000Z</time>
      </trkpt>
      <trkpt lat="43.00436" lon="1.99678">
        <ele>397.2</ele>
        <time>2013-11-16T11:02:55.000Z</time>
      </trkpt>
      <trkpt lat="43.00437" lon="1.9968">
        <ele>397.6</ele>
        <time>2013-11-16T11:02:56.000Z</time>
      </trkpt>
      <trkpt lat="43.00437" lon="1.99682">
        <ele>397.6</ele>
        <time>2013-11-16T11:02:57.000Z</time>
      </trkpt>
      <trkpt lat="43.00437" lon="1.99683">
        <ele>397.6</ele>
        <time>2013-11-16T11:02:58.000Z</time>
      </trkpt>
      <trkpt lat="43.00436" lon="1.99685">
        <ele>398.1</ele>
        <time>2013-11-16T11:02:59.000Z</time>
      </trkpt>
      <trkpt lat="43.00436" lon="1.99687">
        <ele>399.1</ele>
        <time>2013-11-16T11:03:00.000Z</time>
      </trkpt>
      <trkpt lat="43.00437" lon="1.99689">
        <ele>398.6</ele>
        <time>2013-11-16T11:03:01.000Z</time>
      </trkpt>
      <trkpt lat="43.00437" lon="1.9969">
        <ele>398.1</ele>
        <time>2013-11-16T11:03:02.000Z</time>
      </trkpt>
      <trkpt lat="43.00436" lon="1.99692">
        <ele>397.6</ele>
        <time>2013-11-16T11:03:03.000Z</time>
      </trkpt>
      <trkpt lat="43.00436" lon="1.99694">
        <ele>399.1</ele>
        <time>2013-11-16T11:03:04.000Z</time>
      </trkpt>
      <trkpt lat="43.00433" lon="1.99709">
        <ele>402.5</ele>
        <time>2013-11-16T11:03:11.000Z</time>
      </trkpt>
      <trkpt lat="43.00432" lon="1.9971">
        <ele>401</ele>
        <time>2013-11-16T11:03:12.000Z</time>
      </trkpt>
      <trkpt lat="43.00432" lon="1.99712">
        <ele>400.5</ele>
        <time>2013-11-16T11:03:13.000Z</time>
      </trkpt>
      <trkpt lat="43.00432" lon="1.99714">
        <ele>401.5</ele>
        <time>2013-11-16T11:03:14.000Z</time>
      </trkpt>
      <trkpt lat="43.00432" lon="1.99716">
        <ele>400.5</ele>
        <time>2013-11-16T11:03:15.000Z</time>
      </trkpt>
      <trkpt lat="43.00432" lon="1.99718">
        <ele>402.5</ele>
        <time>2013-11-16T11:03:16.000Z</time>
      </trkpt>
      <trkpt lat="43.00432" lon="1.99719">
        <ele>402.5</ele>
        <time>2013-11-16T11:03:17.000Z</time>
      </trkpt>
      <trkpt lat="43.00431" lon="1.99721">
        <ele>402</ele>
        <time>2013-11-16T11:03:18.000Z</time>
      </trkpt>
      <trkpt lat="43.00431" lon="1.99723">
        <ele>402</ele>
        <time>2013-11-16T11:03:19.000Z</time>
      </trkpt>
      <trkpt lat="43.00426" lon="1.99743">
        <ele>405.3</ele>
        <time>2013-11-16T11:03:29.000Z</time>
      </trkpt>
      <trkpt lat="43.00425" lon="1.99745">
        <ele>405.8</ele>
        <time>2013-11-16T11:03:30.000Z</time>
      </trkpt>
      <trkpt lat="43.00424" lon="1.9975">
        <ele>405.8</ele>
        <time>2013-11-16T11:03:33.000Z</time>
      </trkpt>
      <trkpt lat="43.00424" lon="1.99751">
        <ele>406.3</ele>
        <time>2013-11-16T11:03:34.000Z</time>
      </trkpt>
      <trkpt lat="43.00423" lon="1.99753">
        <ele>407.3</ele>
        <time>2013-11-16T11:03:35.000Z</time>
      </trkpt>
      <trkpt lat="43.00423" lon="1.99755">
        <ele>406.3</ele>
        <time>2013-11-16T11:03:36.000Z</time>
      </trkpt>
      <trkpt lat="43.00423" lon="1.99757">
        <ele>407.3</ele>
        <time>2013-11-16T11:03:37.000Z</time>
      </trkpt>
      <trkpt lat="43.00422" lon="1.99765">
        <ele>407.7</ele>
        <time>2013-11-16T11:03:43.000Z</time>
      </trkpt>
      <trkpt lat="43.00422" lon="1.99767">
        <ele>407.3</ele>
        <time>2013-11-16T11:03:44.000Z</time>
      </trkpt>
      <trkpt lat="43.00423" lon="1.99768">
        <ele>409.7</ele>
        <time>2013-11-16T11:03:45.000Z</time>
      </trkpt>
      <trkpt lat="43.00424" lon="1.99775">
        <ele>410.6</ele>
        <time>2013-11-16T11:03:49.000Z</time>
      </trkpt>
      <trkpt lat="43.00426" lon="1.99789">
        <ele>411.6</ele>
        <time>2013-11-16T11:03:58.000Z</time>
      </trkpt>
      <trkpt lat="43.00426" lon="1.9979">
        <ele>411.1</ele>
        <time>2013-11-16T11:03:59.000Z</time>
      </trkpt>
      <trkpt lat="43.00427" lon="1.99792">
        <ele>412.1</ele>
        <time>2013-11-16T11:04:00.000Z</time>
      </trkpt>
      <trkpt lat="43.00427" lon="1.99793">
        <ele>412.5</ele>
        <time>2013-11-16T11:04:01.000Z</time>
      </trkpt>
      <trkpt lat="43.00427" lon="1.99795">
        <ele>411.6</ele>
        <time>2013-11-16T11:04:02.000Z</time>
      </trkpt>
      <trkpt lat="43.00427" lon="1.99797">
        <ele>412.1</ele>
        <time>2013-11-16T11:04:03.000Z</time>
      </trkpt>
      <trkpt lat="43.00428" lon="1.99801">
        <ele>413.5</ele>
        <time>2013-11-16T11:04:05.000Z</time>
      </trkpt>
      <trkpt lat="43.0043" lon="1.99808">
        <ele>414</ele>
        <time>2013-11-16T11:04:10.000Z</time>
      </trkpt>
      <trkpt lat="43.0043" lon="1.9981">
        <ele>413.5</ele>
        <time>2013-11-16T11:04:11.000Z</time>
      </trkpt>
      <trkpt lat="43.00431" lon="1.99818">
        <ele>415.9</ele>
        <time>2013-11-16T11:04:15.000Z</time>
      </trkpt>
      <trkpt lat="43.00432" lon="1.99823">
        <ele>415.9</ele>
        <time>2013-11-16T11:04:18.000Z</time>
      </trkpt>
      <trkpt lat="43.00432" lon="1.99824">
        <ele>415.9</ele>
        <time>2013-11-16T11:04:19.000Z</time>
      </trkpt>
      <trkpt lat="43.00432" lon="1.99826">
        <ele>415.9</ele>
        <time>2013-11-16T11:04:20.000Z</time>
      </trkpt>
      <trkpt lat="43.00433" lon="1.99836">
        <ele>417.4</ele>
        <time>2013-11-16T11:04:26.000Z</time>
      </trkpt>
      <trkpt lat="43.00433" lon="1.99839">
        <ele>417.4</ele>
        <time>2013-11-16T11:04:27.000Z</time>
      </trkpt>
      <trkpt lat="43.00432" lon="1.99841">
        <ele>417.8</ele>
        <time>2013-11-16T11:04:28.000Z</time>
      </trkpt>
      <trkpt lat="43.00432" lon="1.99842">
        <ele>417.4</ele>
        <time>2013-11-16T11:04:29.000Z</time>
      </trkpt>
      <trkpt lat="43.00432" lon="1.99844">
        <ele>418.3</ele>
        <time>2013-11-16T11:04:30.000Z</time>
      </trkpt>
      <trkpt lat="43.00431" lon="1.99846">
        <ele>417.8</ele>
        <time>2013-11-16T11:04:31.000Z</time>
      </trkpt>
      <trkpt lat="43.00431" lon="1.99848">
        <ele>417.8</ele>
        <time>2013-11-16T11:04:32.000Z</time>
      </trkpt>
      <trkpt lat="43.00431" lon="1.99849">
        <ele>418.8</ele>
        <time>2013-11-16T11:04:33.000Z</time>
      </trkpt>
      <trkpt lat="43.00431" lon="1.99851">
        <ele>418.8</ele>
        <time>2013-11-16T11:04:34.000Z</time>
      </trkpt>
      <trkpt lat="43.00431" lon="1.99853">
        <ele>418.3</ele>
        <time>2013-11-16T11:04:35.000Z</time>
      </trkpt>
      <trkpt lat="43.00431" lon="1.99855">
        <ele>419.8</ele>
        <time>2013-11-16T11:04:36.000Z</time>
      </trkpt>
      <trkpt lat="43.00431" lon="1.99857">
        <ele>419.3</ele>
        <time>2013-11-16T11:04:37.000Z</time>
      </trkpt>
      <trkpt lat="43.0043" lon="1.99859">
        <ele>419.8</ele>
        <time>2013-11-16T11:04:38.000Z</time>
      </trkpt>
      <trkpt lat="43.0043" lon="1.99861">
        <ele>420.2</ele>
        <time>2013-11-16T11:04:39.000Z</time>
      </trkpt>
      <trkpt lat="43.00424" lon="1.99878">
        <ele>423.6</ele>
        <time>2013-11-16T11:04:50.000Z</time>
      </trkpt>
      <trkpt lat="43.00419" lon="1.99897">
        <ele>426</ele>
        <time>2013-11-16T11:05:02.000Z</time>
      </trkpt>
      <trkpt lat="43.00418" lon="1.99907">
        <ele>427.4</ele>
        <time>2013-11-16T11:05:08.000Z</time>
      </trkpt>
      <trkpt lat="43.00418" lon="1.99909">
        <ele>427.4</ele>
        <time>2013-11-16T11:05:09.000Z</time>
      </trkpt>
      <trkpt lat="43.00417" lon="1.9991">
        <ele>427.9</ele>
        <time>2013-11-16T11:05:10.000Z</time>
      </trkpt>
      <trkpt lat="43.00416" lon="1.99912">
        <ele>427.9</ele>
        <time>2013-11-16T11:05:11.000Z</time>
      </trkpt>
      <trkpt lat="43.00416" lon="1.99913">
        <ele>428.9</ele>
        <time>2013-11-16T11:05:12.000Z</time>
      </trkpt>
      <trkpt lat="43.00415" lon="1.99915">
        <ele>428.4</ele>
        <time>2013-11-16T11:05:13.000Z</time>
      </trkpt>
      <trkpt lat="43.00415" lon="1.99917">
        <ele>428.4</ele>
        <time>2013-11-16T11:05:14.000Z</time>
      </trkpt>
      <trkpt lat="43.00417" lon="1.99919">
        <ele>427.9</ele>
        <time>2013-11-16T11:05:16.000Z</time>
      </trkpt>
      <trkpt lat="43.00418" lon="1.9992">
        <ele>429.4</ele>
        <time>2013-11-16T11:05:17.000Z</time>
      </trkpt>
      <trkpt lat="43.00419" lon="1.99921">
        <ele>429.4</ele>
        <time>2013-11-16T11:05:18.000Z</time>
      </trkpt>
      <trkpt lat="43.0042" lon="1.99921">
        <ele>428.4</ele>
        <time>2013-11-16T11:05:19.000Z</time>
      </trkpt>
      <trkpt lat="43.00421" lon="1.99921">
        <ele>429.9</ele>
        <time>2013-11-16T11:05:20.000Z</time>
      </trkpt>
      <trkpt lat="43.00423" lon="1.99921">
        <ele>429.9</ele>
        <time>2013-11-16T11:05:21.000Z</time>
      </trkpt>
      <trkpt lat="43.00424" lon="1.99921">
        <ele>430.3</ele>
        <time>2013-11-16T11:05:22.000Z</time>
      </trkpt>
      <trkpt lat="43.00425" lon="1.9992">
        <ele>430.8</ele>
        <time>2013-11-16T11:05:23.000Z</time>
      </trkpt>
      <trkpt lat="43.00427" lon="1.9992">
        <ele>431.8</ele>
        <time>2013-11-16T11:05:24.000Z</time>
      </trkpt>
      <trkpt lat="43.00428" lon="1.9992">
        <ele>431.3</ele>
        <time>2013-11-16T11:05:25.000Z</time>
      </trkpt>
      <trkpt lat="43.0043" lon="1.99919">
        <ele>430.3</ele>
        <time>2013-11-16T11:05:26.000Z</time>
      </trkpt>
      <trkpt lat="43.00435" lon="1.99916">
        <ele>432.7</ele>
        <time>2013-11-16T11:05:39.000Z</time>
      </trkpt>
      <trkpt lat="43.00445" lon="1.9991">
        <ele>434.7</ele>
        <time>2013-11-16T11:05:52.000Z</time>
      </trkpt>
      <trkpt lat="43.00453" lon="1.99911">
        <ele>436.6</ele>
        <time>2013-11-16T11:06:05.000Z</time>
      </trkpt>
      <trkpt lat="43.00456" lon="1.99911">
        <ele>437.5</ele>
        <time>2013-11-16T11:06:08.000Z</time>
      </trkpt>
      <trkpt lat="43.00466" lon="1.99913">
        <ele>439.5</ele>
        <time>2013-11-16T11:06:20.000Z</time>
      </trkpt>
      <trkpt lat="43.0047" lon="1.99915">
        <ele>442.3</ele>
        <time>2013-11-16T11:06:25.000Z</time>
      </trkpt>
      <trkpt lat="43.00472" lon="1.99916">
        <ele>441.4</ele>
        <time>2013-11-16T11:06:27.000Z</time>
      </trkpt>
      <trkpt lat="43.00475" lon="1.99918">
        <ele>441.4</ele>
        <time>2013-11-16T11:06:39.000Z</time>
      </trkpt>
      <trkpt lat="43.00474" lon="1.99917">
        <ele>442.8</ele>
        <time>2013-11-16T11:06:56.000Z</time>
      </trkpt>
      <trkpt lat="43.00474" lon="1.99917">
        <ele>441.4</ele>
        <time>2013-11-16T11:06:59.000Z</time>
      </trkpt>
      <trkpt lat="43.00474" lon="1.9992">
        <ele>442.8</ele>
        <time>2013-11-16T11:07:52.000Z</time>
      </trkpt>
      <trkpt lat="43.00475" lon="1.99924">
        <ele>443.8</ele>
        <time>2013-11-16T11:08:05.000Z</time>
      </trkpt>
      <trkpt lat="43.00475" lon="1.99926">
        <ele>443.3</ele>
        <time>2013-11-16T11:08:13.000Z</time>
      </trkpt>
      <trkpt lat="43.00475" lon="1.99928">
        <ele>443.8</ele>
        <time>2013-11-16T11:08:14.000Z</time>
      </trkpt>
      <trkpt lat="43.00474" lon="1.99933">
        <ele>445.7</ele>
        <time>2013-11-16T11:08:17.000Z</time>
      </trkpt>
      <trkpt lat="43.00473" lon="1.99935">
        <ele>445.7</ele>
        <time>2013-11-16T11:08:18.000Z</time>
      </trkpt>
      <trkpt lat="43.00473" lon="1.99937">
        <ele>446.2</ele>
        <time>2013-11-16T11:08:19.000Z</time>
      </trkpt>
      <trkpt lat="43.0047" lon="1.99944">
        <ele>446.7</ele>
        <time>2013-11-16T11:08:22.000Z</time>
      </trkpt>
      <trkpt lat="43.00469" lon="1.99946">
        <ele>446.7</ele>
        <time>2013-11-16T11:08:23.000Z</time>
      </trkpt>
      <trkpt lat="43.00469" lon="1.99948">
        <ele>446.2</ele>
        <time>2013-11-16T11:08:24.000Z</time>
      </trkpt>
      <trkpt lat="43.00469" lon="1.9995">
        <ele>447.6</ele>
        <time>2013-11-16T11:08:25.000Z</time>
      </trkpt>
      <trkpt lat="43.00468" lon="1.99952">
        <ele>447.2</ele>
        <time>2013-11-16T11:08:26.000Z</time>
      </trkpt>
      <trkpt lat="43.00467" lon="1.99953">
        <ele>448.6</ele>
        <time>2013-11-16T11:08:27.000Z</time>
      </trkpt>
      <trkpt lat="43.00464" lon="1.9996">
        <ele>449.1</ele>
        <time>2013-11-16T11:08:31.000Z</time>
      </trkpt>
      <trkpt lat="43.00462" lon="1.9997">
        <ele>449.6</ele>
        <time>2013-11-16T11:08:36.000Z</time>
      </trkpt>
      <trkpt lat="43.00462" lon="1.99972">
        <ele>449.6</ele>
        <time>2013-11-16T11:08:37.000Z</time>
      </trkpt>
      <trkpt lat="43.00462" lon="1.99974">
        <ele>450</ele>
        <time>2013-11-16T11:08:38.000Z</time>
      </trkpt>
      <trkpt lat="43.00461" lon="1.99976">
        <ele>450</ele>
        <time>2013-11-16T11:08:39.000Z</time>
      </trkpt>
      <trkpt lat="43.0046" lon="1.99978">
        <ele>452.4</ele>
        <time>2013-11-16T11:08:40.000Z</time>
      </trkpt>
      <trkpt lat="43.0046" lon="1.9998">
        <ele>452</ele>
        <time>2013-11-16T11:08:41.000Z</time>
      </trkpt>
      <trkpt lat="43.0046" lon="1.99982">
        <ele>452.9</ele>
        <time>2013-11-16T11:08:42.000Z</time>
      </trkpt>
      <trkpt lat="43.00459" lon="1.99984">
        <ele>452</ele>
        <time>2013-11-16T11:08:43.000Z</time>
      </trkpt>
      <trkpt lat="43.00459" lon="1.99986">
        <ele>452</ele>
        <time>2013-11-16T11:08:44.000Z</time>
      </trkpt>
      <trkpt lat="43.00459" lon="1.99991">
        <ele>452</ele>
        <time>2013-11-16T11:08:47.000Z</time>
      </trkpt>
      <trkpt lat="43.00458" lon="1.99993">
        <ele>452</ele>
        <time>2013-11-16T11:08:48.000Z</time>
      </trkpt>
      <trkpt lat="43.00459" lon="1.99999">
        <ele>453.9</ele>
        <time>2013-11-16T11:08:52.000Z</time>
      </trkpt>
      <trkpt lat="43.0046" lon="2.00001">
        <ele>453.9</ele>
        <time>2013-11-16T11:08:53.000Z</time>
      </trkpt>
      <trkpt lat="43.00464" lon="2.00016">
        <ele>455.3</ele>
        <time>2013-11-16T11:09:02.000Z</time>
      </trkpt>
      <trkpt lat="43.00469" lon="2.00037">
        <ele>458.2</ele>
        <time>2013-11-16T11:09:16.000Z</time>
      </trkpt>
      <trkpt lat="43.00472" lon="2.00049">
        <ele>459.2</ele>
        <time>2013-11-16T11:09:23.000Z</time>
      </trkpt>
      <trkpt lat="43.00477" lon="2.00064">
        <ele>463</ele>
        <time>2013-11-16T11:09:32.000Z</time>
      </trkpt>
      <trkpt lat="43.0048" lon="2.00079">
        <ele>464.5</ele>
        <time>2013-11-16T11:09:41.000Z</time>
      </trkpt>
      <trkpt lat="43.00482" lon="2.00084">
        <ele>464.9</ele>
        <time>2013-11-16T11:09:45.000Z</time>
      </trkpt>
      <trkpt lat="43.00487" lon="2.001">
        <ele>469.7</ele>
        <time>2013-11-16T11:09:55.000Z</time>
      </trkpt>
      <trkpt lat="43.00486" lon="2.00115">
        <ele>470.2</ele>
        <time>2013-11-16T11:10:03.000Z</time>
      </trkpt>
      <trkpt lat="43.00483" lon="2.00143">
        <ele>472.6</ele>
        <time>2013-11-16T11:10:19.000Z</time>
      </trkpt>
      <trkpt lat="43.00486" lon="2.00177">
        <ele>473.6</ele>
        <time>2013-11-16T11:10:35.000Z</time>
      </trkpt>
      <trkpt lat="43.00486" lon="2.00182">
        <ele>477</ele>
        <time>2013-11-16T11:10:37.000Z</time>
      </trkpt>
      <trkpt lat="43.00496" lon="2.00213">
        <ele>477.4</ele>
        <time>2013-11-16T11:10:51.000Z</time>
      </trkpt>
      <trkpt lat="43.00507" lon="2.00244">
        <ele>480.8</ele>
        <time>2013-11-16T11:11:04.000Z</time>
      </trkpt>
      <trkpt lat="43.00518" lon="2.00278">
        <ele>482.2</ele>
        <time>2013-11-16T11:11:18.000Z</time>
      </trkpt>
      <trkpt lat="43.00524" lon="2.00294">
        <ele>484.6</ele>
        <time>2013-11-16T11:11:24.000Z</time>
      </trkpt>
      <trkpt lat="43.00537" lon="2.00328">
        <ele>487.5</ele>
        <time>2013-11-16T11:11:37.000Z</time>
      </trkpt>
      <trkpt lat="43.00538" lon="2.0033">
        <ele>487.1</ele>
        <time>2013-11-16T11:11:38.000Z</time>
      </trkpt>
      <trkpt lat="43.00546" lon="2.00362">
        <ele>489.5</ele>
        <time>2013-11-16T11:11:49.000Z</time>
      </trkpt>
      <trkpt lat="43.00558" lon="2.00419">
        <ele>489.9</ele>
        <time>2013-11-16T11:12:06.000Z</time>
      </trkpt>
      <trkpt lat="43.00568" lon="2.00472">
        <ele>492.3</ele>
        <time>2013-11-16T11:12:21.000Z</time>
      </trkpt>
      <trkpt lat="43.00574" lon="2.00519">
        <ele>493.8</ele>
        <time>2013-11-16T11:12:34.000Z</time>
      </trkpt>
      <trkpt lat="43.00576" lon="2.00551">
        <ele>495.7</ele>
        <time>2013-11-16T11:12:43.000Z</time>
      </trkpt>
      <trkpt lat="43.00568" lon="2.00556">
        <ele>496.2</ele>
        <time>2013-11-16T11:12:47.000Z</time>
      </trkpt>
      <trkpt lat="43.00551" lon="2.00563">
        <ele>498.6</ele>
        <time>2013-11-16T11:12:57.000Z</time>
      </trkpt>
      <trkpt lat="43.00549" lon="2.00566">
        <ele>498.1</ele>
        <time>2013-11-16T11:13:09.000Z</time>
      </trkpt>
      <trkpt lat="43.00549" lon="2.00566">
        <ele>498.1</ele>
        <time>2013-11-16T11:13:46.000Z</time>
      </trkpt>
      <trkpt lat="43.00549" lon="2.00565">
        <ele>497.1</ele>
        <time>2013-11-16T11:14:20.000Z</time>
      </trkpt>
      <trkpt lat="43.00549" lon="2.00565">
        <ele>496.2</ele>
        <time>2013-11-16T11:14:55.000Z</time>
      </trkpt>
      <trkpt lat="43.00549" lon="2.00567">
        <ele>495.7</ele>
        <time>2013-11-16T11:16:41.000Z</time>
      </trkpt>
      <trkpt lat="43.00549" lon="2.00567">
        <ele>494.7</ele>
        <time>2013-11-16T11:16:52.000Z</time>
      </trkpt>
      <trkpt lat="43.00549" lon="2.00567">
        <ele>495.2</ele>
        <time>2013-11-16T11:17:31.000Z</time>
      </trkpt>
      <trkpt lat="43.00549" lon="2.00567">
        <ele>494.7</ele>
        <time>2013-11-16T11:19:50.000Z</time>
      </trkpt>
      <trkpt lat="43.00549" lon="2.0057">
        <ele>493.8</ele>
        <time>2013-11-16T11:19:52.000Z</time>
      </trkpt>
      <trkpt lat="43.00548" lon="2.00574">
        <ele>494.7</ele>
        <time>2013-11-16T11:19:54.000Z</time>
      </trkpt>
      <trkpt lat="43.00548" lon="2.00598">
        <ele>497.1</ele>
        <time>2013-11-16T11:20:05.000Z</time>
      </trkpt>
      <trkpt lat="43.00548" lon="2.00607">
        <ele>498.6</ele>
        <time>2013-11-16T11:20:10.000Z</time>
      </trkpt>
      <trkpt lat="43.00548" lon="2.00617">
        <ele>498.1</ele>
        <time>2013-11-16T11:20:15.000Z</time>
      </trkpt>
      <trkpt lat="43.00549" lon="2.00622">
        <ele>500</ele>
        <time>2013-11-16T11:20:18.000Z</time>
      </trkpt>
      <trkpt lat="43.00543" lon="2.00655">
        <ele>503.9</ele>
        <time>2013-11-16T11:20:33.000Z</time>
      </trkpt>
      <trkpt lat="43.00532" lon="2.00692">
        <ele>504.4</ele>
        <time>2013-11-16T11:20:50.000Z</time>
      </trkpt>
      <trkpt lat="43.00529" lon="2.00705">
        <ele>506.3</ele>
        <time>2013-11-16T11:20:55.000Z</time>
      </trkpt>
      <trkpt lat="43.00524" lon="2.0074">
        <ele>508.2</ele>
        <time>2013-11-16T11:21:10.000Z</time>
      </trkpt>
      <trkpt lat="43.0052" lon="2.00759">
        <ele>508.2</ele>
        <time>2013-11-16T11:21:17.000Z</time>
      </trkpt>
      <trkpt lat="43.00512" lon="2.00788">
        <ele>508.2</ele>
        <time>2013-11-16T11:21:30.000Z</time>
      </trkpt>
      <trkpt lat="43.0051" lon="2.00796">
        <ele>511.1</ele>
        <time>2013-11-16T11:21:34.000Z</time>
      </trkpt>
      <trkpt lat="43.00499" lon="2.0082">
        <ele>512</ele>
        <time>2013-11-16T11:21:48.000Z</time>
      </trkpt>
      <trkpt lat="43.00495" lon="2.0083">
        <ele>513.5</ele>
        <time>2013-11-16T11:21:53.000Z</time>
      </trkpt>
      <trkpt lat="43.00484" lon="2.00856">
        <ele>516.9</ele>
        <time>2013-11-16T11:22:06.000Z</time>
      </trkpt>
      <trkpt lat="43.00476" lon="2.00875">
        <ele>519.3</ele>
        <time>2013-11-16T11:22:15.000Z</time>
      </trkpt>
      <trkpt lat="43.00472" lon="2.00887">
        <ele>520.7</ele>
        <time>2013-11-16T11:22:22.000Z</time>
      </trkpt>
      <trkpt lat="43.00472" lon="2.00887">
        <ele>520.7</ele>
        <time>2013-11-16T11:22:48.000Z</time>
      </trkpt>
      <trkpt lat="43.00472" lon="2.00887">
        <ele>520.2</ele>
        <time>2013-11-16T11:22:49.000Z</time>
      </trkpt>
      <trkpt lat="43.00466" lon="2.00897">
        <ele>521.2</ele>
        <time>2013-11-16T11:23:15.000Z</time>
      </trkpt>
      <trkpt lat="43.0046" lon="2.00908">
        <ele>522.6</ele>
        <time>2013-11-16T11:23:22.000Z</time>
      </trkpt>
      <trkpt lat="43.00458" lon="2.0091">
        <ele>521.7</ele>
        <time>2013-11-16T11:23:24.000Z</time>
      </trkpt>
      <trkpt lat="43.0044" lon="2.0093">
        <ele>523.1</ele>
        <time>2013-11-16T11:23:39.000Z</time>
      </trkpt>
      <trkpt lat="43.00436" lon="2.00935">
        <ele>525.5</ele>
        <time>2013-11-16T11:23:42.000Z</time>
      </trkpt>
      <trkpt lat="43.0042" lon="2.00956">
        <ele>529.3</ele>
        <time>2013-11-16T11:23:54.000Z</time>
      </trkpt>
      <trkpt lat="43.00408" lon="2.00973">
        <ele>530.3</ele>
        <time>2013-11-16T11:24:04.000Z</time>
      </trkpt>
      <trkpt lat="43.00395" lon="2.00992">
        <ele>534.6</ele>
        <time>2013-11-16T11:24:14.000Z</time>
      </trkpt>
      <trkpt lat="43.0038" lon="2.01029">
        <ele>536.1</ele>
        <time>2013-11-16T11:24:29.000Z</time>
      </trkpt>
      <trkpt lat="43.0038" lon="2.01035">
        <ele>536.6</ele>
        <time>2013-11-16T11:24:31.000Z</time>
      </trkpt>
      <trkpt lat="43.00374" lon="2.01072">
        <ele>539</ele>
        <time>2013-11-16T11:24:44.000Z</time>
      </trkpt>
      <trkpt lat="43.00374" lon="2.01078">
        <ele>540.4</ele>
        <time>2013-11-16T11:24:46.000Z</time>
      </trkpt>
      <trkpt lat="43.00365" lon="2.01114">
        <ele>540.4</ele>
        <time>2013-11-16T11:24:59.000Z</time>
      </trkpt>
      <trkpt lat="43.00361" lon="2.01128">
        <ele>539.9</ele>
        <time>2013-11-16T11:25:05.000Z</time>
      </trkpt>
      <trkpt lat="43.00356" lon="2.01157">
        <ele>541.4</ele>
        <time>2013-11-16T11:25:18.000Z</time>
      </trkpt>
      <trkpt lat="43.00348" lon="2.01191">
        <ele>540.9</ele>
        <time>2013-11-16T11:25:31.000Z</time>
      </trkpt>
      <trkpt lat="43.00336" lon="2.01236">
        <ele>539.9</ele>
        <time>2013-11-16T11:25:45.000Z</time>
      </trkpt>
      <trkpt lat="43.00325" lon="2.01268">
        <ele>539.9</ele>
        <time>2013-11-16T11:25:57.000Z</time>
      </trkpt>
      <trkpt lat="43.00315" lon="2.01288">
        <ele>540.4</ele>
        <time>2013-11-16T11:26:05.000Z</time>
      </trkpt>
      <trkpt lat="43.00303" lon="2.01315">
        <ele>540.4</ele>
        <time>2013-11-16T11:26:14.000Z</time>
      </trkpt>
      <trkpt lat="43.00286" lon="2.01354">
        <ele>539.4</ele>
        <time>2013-11-16T11:26:27.000Z</time>
      </trkpt>
      <trkpt lat="43.00281" lon="2.01362">
        <ele>542.8</ele>
        <time>2013-11-16T11:26:30.000Z</time>
      </trkpt>
      <trkpt lat="43.00271" lon="2.01377">
        <ele>542.8</ele>
        <time>2013-11-16T11:26:36.000Z</time>
      </trkpt>
      <trkpt lat="43.00258" lon="2.01408">
        <ele>544.2</ele>
        <time>2013-11-16T11:26:46.000Z</time>
      </trkpt>
      <trkpt lat="43.00241" lon="2.01453">
        <ele>543.8</ele>
        <time>2013-11-16T11:27:00.000Z</time>
      </trkpt>
      <trkpt lat="43.00229" lon="2.01492">
        <ele>543.8</ele>
        <time>2013-11-16T11:27:13.000Z</time>
      </trkpt>
      <trkpt lat="43.00226" lon="2.015">
        <ele>543.3</ele>
        <time>2013-11-16T11:27:25.000Z</time>
      </trkpt>
      <trkpt lat="43.00226" lon="2.01501">
        <ele>543.8</ele>
        <time>2013-11-16T11:27:46.000Z</time>
      </trkpt>
      <trkpt lat="43.00224" lon="2.01509">
        <ele>542.8</ele>
        <time>2013-11-16T11:28:01.000Z</time>
      </trkpt>
      <trkpt lat="43.00224" lon="2.01509">
        <ele>543.3</ele>
        <time>2013-11-16T11:28:02.000Z</time>
      </trkpt>
      <trkpt lat="43.00224" lon="2.01509">
        <ele>539</ele>
        <time>2013-11-16T11:28:13.000Z</time>
      </trkpt>
      <trkpt lat="43.00224" lon="2.01509">
        <ele>543.8</ele>
        <time>2013-11-16T11:28:14.000Z</time>
      </trkpt>
      <trkpt lat="43.00223" lon="2.01525">
        <ele>542.3</ele>
        <time>2013-11-16T11:29:02.000Z</time>
      </trkpt>
      <trkpt lat="43.00221" lon="2.01583">
        <ele>541.8</ele>
        <time>2013-11-16T11:29:17.000Z</time>
      </trkpt>
      <trkpt lat="43.0022" lon="2.01618">
        <ele>539.9</ele>
        <time>2013-11-16T11:29:25.000Z</time>
      </trkpt>
      <trkpt lat="43.00217" lon="2.01687">
        <ele>542.3</ele>
        <time>2013-11-16T11:29:39.000Z</time>
      </trkpt>
      <trkpt lat="43.00216" lon="2.01692">
        <ele>541.8</ele>
        <time>2013-11-16T11:29:40.000Z</time>
      </trkpt>
      <trkpt lat="43.00214" lon="2.01743">
        <ele>542.3</ele>
        <time>2013-11-16T11:29:53.000Z</time>
      </trkpt>
      <trkpt lat="43.00216" lon="2.01789">
        <ele>543.8</ele>
        <time>2013-11-16T11:30:04.000Z</time>
      </trkpt>
      <trkpt lat="43.00216" lon="2.01838">
        <ele>544.2</ele>
        <time>2013-11-16T11:30:17.000Z</time>
      </trkpt>
      <trkpt lat="43.0021" lon="2.01889">
        <ele>546.2</ele>
        <time>2013-11-16T11:30:29.000Z</time>
      </trkpt>
      <trkpt lat="43.00197" lon="2.01933">
        <ele>546.7</ele>
        <time>2013-11-16T11:30:42.000Z</time>
      </trkpt>
      <trkpt lat="43.00181" lon="2.01961">
        <ele>545.7</ele>
        <time>2013-11-16T11:30:54.000Z</time>
      </trkpt>
      <trkpt lat="43.00175" lon="2.01971">
        <ele>544.2</ele>
        <time>2013-11-16T11:31:01.000Z</time>
      </trkpt>
      <trkpt lat="43.00175" lon="2.01973">
        <ele>544.7</ele>
        <time>2013-11-16T11:31:02.000Z</time>
      </trkpt>
      <trkpt lat="43.00187" lon="2.02">
        <ele>545.2</ele>
        <time>2013-11-16T11:31:16.000Z</time>
      </trkpt>
      <trkpt lat="43.00186" lon="2.02021">
        <ele>545.2</ele>
        <time>2013-11-16T11:31:21.000Z</time>
      </trkpt>
      <trkpt lat="43.00189" lon="2.02051">
        <ele>543.8</ele>
        <time>2013-11-16T11:31:28.000Z</time>
      </trkpt>
      <trkpt lat="43.00208" lon="2.02108">
        <ele>543.8</ele>
        <time>2013-11-16T11:31:41.000Z</time>
      </trkpt>
      <trkpt lat="43.00238" lon="2.02148">
        <ele>542.3</ele>
        <time>2013-11-16T11:31:53.000Z</time>
      </trkpt>
      <trkpt lat="43.00271" lon="2.02165">
        <ele>543.3</ele>
        <time>2013-11-16T11:32:02.000Z</time>
      </trkpt>
      <trkpt lat="43.00279" lon="2.02171">
        <ele>543.3</ele>
        <time>2013-11-16T11:32:04.000Z</time>
      </trkpt>
      <trkpt lat="43.00286" lon="2.02179">
        <ele>543.3</ele>
        <time>2013-11-16T11:32:06.000Z</time>
      </trkpt>
      <trkpt lat="43.0029" lon="2.02183">
        <ele>542.8</ele>
        <time>2013-11-16T11:32:07.000Z</time>
      </trkpt>
      <trkpt lat="43.00318" lon="2.02213">
        <ele>540.9</ele>
        <time>2013-11-16T11:32:14.000Z</time>
      </trkpt>
      <trkpt lat="43.00324" lon="2.02224">
        <ele>540.9</ele>
        <time>2013-11-16T11:32:16.000Z</time>
      </trkpt>
      <trkpt lat="43.00327" lon="2.02229">
        <ele>540.4</ele>
        <time>2013-11-16T11:32:17.000Z</time>
      </trkpt>
      <trkpt lat="43.00329" lon="2.02234">
        <ele>540.9</ele>
        <time>2013-11-16T11:32:18.000Z</time>
      </trkpt>
      <trkpt lat="43.00332" lon="2.02239">
        <ele>539.9</ele>
        <time>2013-11-16T11:32:19.000Z</time>
      </trkpt>
      <trkpt lat="43.00334" lon="2.02243">
        <ele>540.4</ele>
        <time>2013-11-16T11:32:20.000Z</time>
      </trkpt>
      <trkpt lat="43.00336" lon="2.02247">
        <ele>539</ele>
        <time>2013-11-16T11:32:21.000Z</time>
      </trkpt>
      <trkpt lat="43.00338" lon="2.02252">
        <ele>539.4</ele>
        <time>2013-11-16T11:32:22.000Z</time>
      </trkpt>
      <trkpt lat="43.00339" lon="2.02258">
        <ele>539.9</ele>
        <time>2013-11-16T11:32:23.000Z</time>
      </trkpt>
      <trkpt lat="43.0034" lon="2.02266">
        <ele>539.4</ele>
        <time>2013-11-16T11:32:24.000Z</time>
      </trkpt>
      <trkpt lat="43.00342" lon="2.02311">
        <ele>536.6</ele>
        <time>2013-11-16T11:32:29.000Z</time>
      </trkpt>
      <trkpt lat="43.00342" lon="2.0232">
        <ele>536.6</ele>
        <time>2013-11-16T11:32:30.000Z</time>
      </trkpt>
      <trkpt lat="43.00343" lon="2.0233">
        <ele>536.1</ele>
        <time>2013-11-16T11:32:31.000Z</time>
      </trkpt>
      <trkpt lat="43.00348" lon="2.0237">
        <ele>532.2</ele>
        <time>2013-11-16T11:32:35.000Z</time>
      </trkpt>
      <trkpt lat="43.00375" lon="2.02449">
        <ele>529.3</ele>
        <time>2013-11-16T11:32:43.000Z</time>
      </trkpt>
      <trkpt lat="43.00378" lon="2.02459">
        <ele>529.8</ele>
        <time>2013-11-16T11:32:44.000Z</time>
      </trkpt>
      <trkpt lat="43.00385" lon="2.02477">
        <ele>529.8</ele>
        <time>2013-11-16T11:32:46.000Z</time>
      </trkpt>
      <trkpt lat="43.0039" lon="2.02484">
        <ele>528.9</ele>
        <time>2013-11-16T11:32:47.000Z</time>
      </trkpt>
      <trkpt lat="43.00395" lon="2.02491">
        <ele>528.9</ele>
        <time>2013-11-16T11:32:48.000Z</time>
      </trkpt>
      <trkpt lat="43.00405" lon="2.02502">
        <ele>528.4</ele>
        <time>2013-11-16T11:32:50.000Z</time>
      </trkpt>
      <trkpt lat="43.00426" lon="2.02532">
        <ele>529.3</ele>
        <time>2013-11-16T11:32:55.000Z</time>
      </trkpt>
      <trkpt lat="43.0048" lon="2.02598">
        <ele>530.3</ele>
        <time>2013-11-16T11:33:10.000Z</time>
      </trkpt>
      <trkpt lat="43.00497" lon="2.02623">
        <ele>534.2</ele>
        <time>2013-11-16T11:33:19.000Z</time>
      </trkpt>
      <trkpt lat="43.00501" lon="2.02626">
        <ele>536.1</ele>
        <time>2013-11-16T11:33:21.000Z</time>
      </trkpt>
      <trkpt lat="43.00531" lon="2.02633">
        <ele>537.5</ele>
        <time>2013-11-16T11:33:33.000Z</time>
      </trkpt>
      <trkpt lat="43.00574" lon="2.02648">
        <ele>538.5</ele>
        <time>2013-11-16T11:33:48.000Z</time>
      </trkpt>
      <trkpt lat="43.00598" lon="2.02661">
        <ele>538</ele>
        <time>2013-11-16T11:33:55.000Z</time>
      </trkpt>
      <trkpt lat="43.00603" lon="2.02666">
        <ele>538.5</ele>
        <time>2013-11-16T11:33:57.000Z</time>
      </trkpt>
      <trkpt lat="43.00606" lon="2.02667">
        <ele>538</ele>
        <time>2013-11-16T11:33:58.000Z</time>
      </trkpt>
      <trkpt lat="43.0061" lon="2.02669">
        <ele>537.5</ele>
        <time>2013-11-16T11:33:59.000Z</time>
      </trkpt>
      <trkpt lat="43.00614" lon="2.02669">
        <ele>537</ele>
        <time>2013-11-16T11:34:00.000Z</time>
      </trkpt>
      <trkpt lat="43.00618" lon="2.0267">
        <ele>537.5</ele>
        <time>2013-11-16T11:34:01.000Z</time>
      </trkpt>
      <trkpt lat="43.00622" lon="2.02672">
        <ele>537</ele>
        <time>2013-11-16T11:34:02.000Z</time>
      </trkpt>
      <trkpt lat="43.00626" lon="2.02674">
        <ele>537</ele>
        <time>2013-11-16T11:34:03.000Z</time>
      </trkpt>
      <trkpt lat="43.00631" lon="2.02676">
        <ele>537</ele>
        <time>2013-11-16T11:34:04.000Z</time>
      </trkpt>
      <trkpt lat="43.00684" lon="2.02702">
        <ele>535.1</ele>
        <time>2013-11-16T11:34:16.000Z</time>
      </trkpt>
      <trkpt lat="43.00724" lon="2.02721">
        <ele>536.6</ele>
        <time>2013-11-16T11:34:30.000Z</time>
      </trkpt>
      <trkpt lat="43.00744" lon="2.02733">
        <ele>534.6</ele>
        <time>2013-11-16T11:34:43.000Z</time>
      </trkpt>
      <trkpt lat="43.00756" lon="2.02742">
        <ele>537</ele>
        <time>2013-11-16T11:34:50.000Z</time>
      </trkpt>
      <trkpt lat="43.00756" lon="2.02744">
        <ele>537</ele>
        <time>2013-11-16T11:34:51.000Z</time>
      </trkpt>
      <trkpt lat="43.00757" lon="2.02745">
        <ele>536.6</ele>
        <time>2013-11-16T11:34:52.000Z</time>
      </trkpt>
      <trkpt lat="43.00758" lon="2.02747">
        <ele>535.6</ele>
        <time>2013-11-16T11:34:54.000Z</time>
      </trkpt>
      <trkpt lat="43.00759" lon="2.0275">
        <ele>537.5</ele>
        <time>2013-11-16T11:34:56.000Z</time>
      </trkpt>
      <trkpt lat="43.00763" lon="2.02762">
        <ele>536.6</ele>
        <time>2013-11-16T11:35:01.000Z</time>
      </trkpt>
      <trkpt lat="43.00774" lon="2.02791">
        <ele>538</ele>
        <time>2013-11-16T11:35:11.000Z</time>
      </trkpt>
      <trkpt lat="43.00776" lon="2.02801">
        <ele>538.5</ele>
        <time>2013-11-16T11:35:15.000Z</time>
      </trkpt>
      <trkpt lat="43.00779" lon="2.02809">
        <ele>537</ele>
        <time>2013-11-16T11:35:24.000Z</time>
      </trkpt>
      <trkpt lat="43.00779" lon="2.02809">
        <ele>538</ele>
        <time>2013-11-16T11:35:27.000Z</time>
      </trkpt>
      <trkpt lat="43.00779" lon="2.02813">
        <ele>540.4</ele>
        <time>2013-11-16T11:35:29.000Z</time>
      </trkpt>
      <trkpt lat="43.0078" lon="2.02816">
        <ele>539.4</ele>
        <time>2013-11-16T11:35:30.000Z</time>
      </trkpt>
      <trkpt lat="43.00786" lon="2.02851">
        <ele>539.9</ele>
        <time>2013-11-16T11:35:40.000Z</time>
      </trkpt>
      <trkpt lat="43.00784" lon="2.02909">
        <ele>542.8</ele>
        <time>2013-11-16T11:35:54.000Z</time>
      </trkpt>
      <trkpt lat="43.00768" lon="2.02985">
        <ele>543.3</ele>
        <time>2013-11-16T11:36:10.000Z</time>
      </trkpt>
      <trkpt lat="43.00761" lon="2.03019">
        <ele>544.2</ele>
        <time>2013-11-16T11:36:18.000Z</time>
      </trkpt>
      <trkpt lat="43.00767" lon="2.03057">
        <ele>543.3</ele>
        <time>2013-11-16T11:36:25.000Z</time>
      </trkpt>
      <trkpt lat="43.00769" lon="2.03064">
        <ele>543.3</ele>
        <time>2013-11-16T11:36:26.000Z</time>
      </trkpt>
      <trkpt lat="43.00772" lon="2.03083">
        <ele>544.2</ele>
        <time>2013-11-16T11:36:29.000Z</time>
      </trkpt>
      <trkpt lat="43.00773" lon="2.03105">
        <ele>542.3</ele>
        <time>2013-11-16T11:36:32.000Z</time>
      </trkpt>
      <trkpt lat="43.00773" lon="2.03112">
        <ele>543.8</ele>
        <time>2013-11-16T11:36:33.000Z</time>
      </trkpt>
      <trkpt lat="43.00772" lon="2.0312">
        <ele>542.3</ele>
        <time>2013-11-16T11:36:34.000Z</time>
      </trkpt>
      <trkpt lat="43.00771" lon="2.03127">
        <ele>543.3</ele>
        <time>2013-11-16T11:36:35.000Z</time>
      </trkpt>
      <trkpt lat="43.00769" lon="2.03135">
        <ele>543.3</ele>
        <time>2013-11-16T11:36:36.000Z</time>
      </trkpt>
      <trkpt lat="43.0076" lon="2.03169">
        <ele>543.3</ele>
        <time>2013-11-16T11:36:41.000Z</time>
      </trkpt>
      <trkpt lat="43.00758" lon="2.03175">
        <ele>543.8</ele>
        <time>2013-11-16T11:36:42.000Z</time>
      </trkpt>
      <trkpt lat="43.00755" lon="2.03181">
        <ele>543.8</ele>
        <time>2013-11-16T11:36:43.000Z</time>
      </trkpt>
      <trkpt lat="43.00748" lon="2.03199">
        <ele>544.7</ele>
        <time>2013-11-16T11:36:46.000Z</time>
      </trkpt>
      <trkpt lat="43.00746" lon="2.03206">
        <ele>545.7</ele>
        <time>2013-11-16T11:36:47.000Z</time>
      </trkpt>
      <trkpt lat="43.00744" lon="2.03219">
        <ele>546.7</ele>
        <time>2013-11-16T11:36:49.000Z</time>
      </trkpt>
      <trkpt lat="43.00737" lon="2.03238">
        <ele>546.2</ele>
        <time>2013-11-16T11:36:52.000Z</time>
      </trkpt>
      <trkpt lat="43.00734" lon="2.03244">
        <ele>547.6</ele>
        <time>2013-11-16T11:36:53.000Z</time>
      </trkpt>
      <trkpt lat="43.00728" lon="2.03253">
        <ele>549.1</ele>
        <time>2013-11-16T11:36:55.000Z</time>
      </trkpt>
      <trkpt lat="43.00726" lon="2.03258">
        <ele>547.6</ele>
        <time>2013-11-16T11:36:56.000Z</time>
      </trkpt>
      <trkpt lat="43.00723" lon="2.03263">
        <ele>548.6</ele>
        <time>2013-11-16T11:36:57.000Z</time>
      </trkpt>
      <trkpt lat="43.00711" lon="2.03278">
        <ele>550</ele>
        <time>2013-11-16T11:37:01.000Z</time>
      </trkpt>
      <trkpt lat="43.00674" lon="2.03324">
        <ele>551</ele>
        <time>2013-11-16T11:37:15.000Z</time>
      </trkpt>
      <trkpt lat="43.00641" lon="2.03349">
        <ele>552.9</ele>
        <time>2013-11-16T11:37:26.000Z</time>
      </trkpt>
      <trkpt lat="43.00638" lon="2.03353">
        <ele>552.4</ele>
        <time>2013-11-16T11:37:27.000Z</time>
      </trkpt>
      <trkpt lat="43.00628" lon="2.03385">
        <ele>552.4</ele>
        <time>2013-11-16T11:37:34.000Z</time>
      </trkpt>
      <trkpt lat="43.00628" lon="2.03396">
        <ele>552.9</ele>
        <time>2013-11-16T11:37:36.000Z</time>
      </trkpt>
      <trkpt lat="43.00629" lon="2.03401">
        <ele>553.4</ele>
        <time>2013-11-16T11:37:37.000Z</time>
      </trkpt>
      <trkpt lat="43.0063" lon="2.03406">
        <ele>553.9</ele>
        <time>2013-11-16T11:37:38.000Z</time>
      </trkpt>
      <trkpt lat="43.00627" lon="2.03424">
        <ele>553.9</ele>
        <time>2013-11-16T11:37:42.000Z</time>
      </trkpt>
      <trkpt lat="43.00624" lon="2.03426">
        <ele>555.8</ele>
        <time>2013-11-16T11:37:43.000Z</time>
      </trkpt>
      <trkpt lat="43.00622" lon="2.03428">
        <ele>554.3</ele>
        <time>2013-11-16T11:37:44.000Z</time>
      </trkpt>
      <trkpt lat="43.00619" lon="2.03429">
        <ele>555.3</ele>
        <time>2013-11-16T11:37:45.000Z</time>
      </trkpt>
      <trkpt lat="43.00616" lon="2.0343">
        <ele>556.3</ele>
        <time>2013-11-16T11:37:46.000Z</time>
      </trkpt>
      <trkpt lat="43.00614" lon="2.03431">
        <ele>556.3</ele>
        <time>2013-11-16T11:37:47.000Z</time>
      </trkpt>
      <trkpt lat="43.00578" lon="2.0345">
        <ele>557.2</ele>
        <time>2013-11-16T11:37:57.000Z</time>
      </trkpt>
      <trkpt lat="43.00576" lon="2.03454">
        <ele>557.2</ele>
        <time>2013-11-16T11:37:58.000Z</time>
      </trkpt>
      <trkpt lat="43.00564" lon="2.03492">
        <ele>558.2</ele>
        <time>2013-11-16T11:38:06.000Z</time>
      </trkpt>
      <trkpt lat="43.00564" lon="2.03497">
        <ele>557.7</ele>
        <time>2013-11-16T11:38:07.000Z</time>
      </trkpt>
      <trkpt lat="43.00564" lon="2.03503">
        <ele>557.7</ele>
        <time>2013-11-16T11:38:08.000Z</time>
      </trkpt>
      <trkpt lat="43.00562" lon="2.03509">
        <ele>556.7</ele>
        <time>2013-11-16T11:38:09.000Z</time>
      </trkpt>
      <trkpt lat="43.0056" lon="2.03515">
        <ele>556.7</ele>
        <time>2013-11-16T11:38:10.000Z</time>
      </trkpt>
      <trkpt lat="43.00558" lon="2.0352">
        <ele>558.7</ele>
        <time>2013-11-16T11:38:11.000Z</time>
      </trkpt>
      <trkpt lat="43.00556" lon="2.03526">
        <ele>558.2</ele>
        <time>2013-11-16T11:38:12.000Z</time>
      </trkpt>
      <trkpt lat="43.00554" lon="2.03532">
        <ele>559.1</ele>
        <time>2013-11-16T11:38:13.000Z</time>
      </trkpt>
      <trkpt lat="43.00552" lon="2.03538">
        <ele>559.1</ele>
        <time>2013-11-16T11:38:14.000Z</time>
      </trkpt>
      <trkpt lat="43.0055" lon="2.03543">
        <ele>557.2</ele>
        <time>2013-11-16T11:38:15.000Z</time>
      </trkpt>
      <trkpt lat="43.00548" lon="2.03549">
        <ele>558.7</ele>
        <time>2013-11-16T11:38:16.000Z</time>
      </trkpt>
      <trkpt lat="43.00546" lon="2.03555">
        <ele>557.7</ele>
        <time>2013-11-16T11:38:17.000Z</time>
      </trkpt>
      <trkpt lat="43.00545" lon="2.03561">
        <ele>556.7</ele>
        <time>2013-11-16T11:38:18.000Z</time>
      </trkpt>
      <trkpt lat="43.00544" lon="2.03567">
        <ele>557.7</ele>
        <time>2013-11-16T11:38:19.000Z</time>
      </trkpt>
      <trkpt lat="43.00542" lon="2.03573">
        <ele>557.2</ele>
        <time>2013-11-16T11:38:20.000Z</time>
      </trkpt>
      <trkpt lat="43.00538" lon="2.03592">
        <ele>557.7</ele>
        <time>2013-11-16T11:38:23.000Z</time>
      </trkpt>
      <trkpt lat="43.00536" lon="2.03597">
        <ele>557.7</ele>
        <time>2013-11-16T11:38:24.000Z</time>
      </trkpt>
      <trkpt lat="43.00534" lon="2.03602">
        <ele>558.2</ele>
        <time>2013-11-16T11:38:25.000Z</time>
      </trkpt>
      <trkpt lat="43.00524" lon="2.03622">
        <ele>559.6</ele>
        <time>2013-11-16T11:38:29.000Z</time>
      </trkpt>
      <trkpt lat="43.00522" lon="2.03627">
        <ele>556.7</ele>
        <time>2013-11-16T11:38:30.000Z</time>
      </trkpt>
      <trkpt lat="43.00519" lon="2.03631">
        <ele>557.7</ele>
        <time>2013-11-16T11:38:31.000Z</time>
      </trkpt>
      <trkpt lat="43.00481" lon="2.03658">
        <ele>557.7</ele>
        <time>2013-11-16T11:38:42.000Z</time>
      </trkpt>
      <trkpt lat="43.00447" lon="2.03667">
        <ele>559.6</ele>
        <time>2013-11-16T11:38:53.000Z</time>
      </trkpt>
      <trkpt lat="43.00443" lon="2.03668">
        <ele>560.1</ele>
        <time>2013-11-16T11:38:55.000Z</time>
      </trkpt>
      <trkpt lat="43.00429" lon="2.03675">
        <ele>561.6</ele>
        <time>2013-11-16T11:39:05.000Z</time>
      </trkpt>
      <trkpt lat="43.00428" lon="2.03676">
        <ele>561.6</ele>
        <time>2013-11-16T11:39:06.000Z</time>
      </trkpt>
      <trkpt lat="43.00426" lon="2.03676">
        <ele>562.5</ele>
        <time>2013-11-16T11:39:07.000Z</time>
      </trkpt>
      <trkpt lat="43.00425" lon="2.03677">
        <ele>561.6</ele>
        <time>2013-11-16T11:39:08.000Z</time>
      </trkpt>
      <trkpt lat="43.00423" lon="2.03677">
        <ele>563</ele>
        <time>2013-11-16T11:39:09.000Z</time>
      </trkpt>
      <trkpt lat="43.00422" lon="2.03678">
        <ele>562</ele>
        <time>2013-11-16T11:39:10.000Z</time>
      </trkpt>
      <trkpt lat="43.0042" lon="2.03679">
        <ele>561.6</ele>
        <time>2013-11-16T11:39:11.000Z</time>
      </trkpt>
      <trkpt lat="43.00405" lon="2.03685">
        <ele>564</ele>
        <time>2013-11-16T11:39:20.000Z</time>
      </trkpt>
      <trkpt lat="43.00404" lon="2.03686">
        <ele>564.9</ele>
        <time>2013-11-16T11:39:21.000Z</time>
      </trkpt>
      <trkpt lat="43.00402" lon="2.03688">
        <ele>564</ele>
        <time>2013-11-16T11:39:22.000Z</time>
      </trkpt>
      <trkpt lat="43.00401" lon="2.0369">
        <ele>564.4</ele>
        <time>2013-11-16T11:39:23.000Z</time>
      </trkpt>
      <trkpt lat="43.004" lon="2.03692">
        <ele>564.4</ele>
        <time>2013-11-16T11:39:24.000Z</time>
      </trkpt>
      <trkpt lat="43.00398" lon="2.03694">
        <ele>565.9</ele>
        <time>2013-11-16T11:39:25.000Z</time>
      </trkpt>
      <trkpt lat="43.00397" lon="2.03696">
        <ele>564.9</ele>
        <time>2013-11-16T11:39:26.000Z</time>
      </trkpt>
      <trkpt lat="43.00395" lon="2.03698">
        <ele>564.9</ele>
        <time>2013-11-16T11:39:27.000Z</time>
      </trkpt>
      <trkpt lat="43.00393" lon="2.037">
        <ele>565.4</ele>
        <time>2013-11-16T11:39:28.000Z</time>
      </trkpt>
      <trkpt lat="43.00391" lon="2.03703">
        <ele>565.9</ele>
        <time>2013-11-16T11:39:29.000Z</time>
      </trkpt>
      <trkpt lat="43.00389" lon="2.03705">
        <ele>566.4</ele>
        <time>2013-11-16T11:39:30.000Z</time>
      </trkpt>
      <trkpt lat="43.00388" lon="2.03708">
        <ele>566.4</ele>
        <time>2013-11-16T11:39:31.000Z</time>
      </trkpt>
      <trkpt lat="43.00386" lon="2.03711">
        <ele>565.4</ele>
        <time>2013-11-16T11:39:32.000Z</time>
      </trkpt>
      <trkpt lat="43.00383" lon="2.03713">
        <ele>565.9</ele>
        <time>2013-11-16T11:39:33.000Z</time>
      </trkpt>
      <trkpt lat="43.00381" lon="2.03717">
        <ele>566.4</ele>
        <time>2013-11-16T11:39:34.000Z</time>
      </trkpt>
      <trkpt lat="43.00373" lon="2.03729">
        <ele>566.4</ele>
        <time>2013-11-16T11:39:39.000Z</time>
      </trkpt>
      <trkpt lat="43.00372" lon="2.03731">
        <ele>567.3</ele>
        <time>2013-11-16T11:39:40.000Z</time>
      </trkpt>
      <trkpt lat="43.00371" lon="2.03733">
        <ele>567.3</ele>
        <time>2013-11-16T11:39:41.000Z</time>
      </trkpt>
      <trkpt lat="43.00369" lon="2.03736">
        <ele>566.4</ele>
        <time>2013-11-16T11:39:43.000Z</time>
      </trkpt>
      <trkpt lat="43.00368" lon="2.03737">
        <ele>566.8</ele>
        <time>2013-11-16T11:40:04.000Z</time>
      </trkpt>
      <trkpt lat="43.00365" lon="2.03741">
        <ele>565.9</ele>
        <time>2013-11-16T11:40:29.000Z</time>
      </trkpt>
      <trkpt lat="43.00362" lon="2.03747">
        <ele>566.8</ele>
        <time>2013-11-16T11:40:31.000Z</time>
      </trkpt>
      <trkpt lat="43.00341" lon="2.0378">
        <ele>566.8</ele>
        <time>2013-11-16T11:40:42.000Z</time>
      </trkpt>
      <trkpt lat="43.00332" lon="2.038">
        <ele>564.9</ele>
        <time>2013-11-16T11:40:48.000Z</time>
      </trkpt>
      <trkpt lat="43.00314" lon="2.0384">
        <ele>566.4</ele>
        <time>2013-11-16T11:41:00.000Z</time>
      </trkpt>
      <trkpt lat="43.00293" lon="2.03872">
        <ele>569.2</ele>
        <time>2013-11-16T11:41:09.000Z</time>
      </trkpt>
      <trkpt lat="43.00277" lon="2.03892">
        <ele>570.2</ele>
        <time>2013-11-16T11:41:20.000Z</time>
      </trkpt>
      <trkpt lat="43.00267" lon="2.03905">
        <ele>569.2</ele>
        <time>2013-11-16T11:41:28.000Z</time>
      </trkpt>
      <trkpt lat="43.00266" lon="2.03907">
        <ele>569.7</ele>
        <time>2013-11-16T11:41:40.000Z</time>
      </trkpt>
      <trkpt lat="43.00257" lon="2.03918">
        <ele>570.7</ele>
        <time>2013-11-16T11:41:54.000Z</time>
      </trkpt>
      <trkpt lat="43.00234" lon="2.0395">
        <ele>570.2</ele>
        <time>2013-11-16T11:42:05.000Z</time>
      </trkpt>
      <trkpt lat="43.00229" lon="2.03953">
        <ele>572.1</ele>
        <time>2013-11-16T11:42:07.000Z</time>
      </trkpt>
      <trkpt lat="43.00204" lon="2.0397">
        <ele>567.3</ele>
        <time>2013-11-16T11:42:14.000Z</time>
      </trkpt>
      <trkpt lat="43.002" lon="2.03973">
        <ele>567.8</ele>
        <time>2013-11-16T11:42:15.000Z</time>
      </trkpt>
      <trkpt lat="43.00189" lon="2.03978">
        <ele>565.4</ele>
        <time>2013-11-16T11:42:18.000Z</time>
      </trkpt>
      <trkpt lat="43.00182" lon="2.03981">
        <ele>562</ele>
        <time>2013-11-16T11:42:20.000Z</time>
      </trkpt>
      <trkpt lat="43.00179" lon="2.03984">
        <ele>562</ele>
        <time>2013-11-16T11:42:21.000Z</time>
      </trkpt>
      <trkpt lat="43.00173" lon="2.03994">
        <ele>558.7</ele>
        <time>2013-11-16T11:42:24.000Z</time>
      </trkpt>
      <trkpt lat="43.00171" lon="2.03997">
        <ele>559.1</ele>
        <time>2013-11-16T11:42:25.000Z</time>
      </trkpt>
      <trkpt lat="43.00168" lon="2.04002">
        <ele>558.2</ele>
        <time>2013-11-16T11:42:26.000Z</time>
      </trkpt>
      <trkpt lat="43.00165" lon="2.04008">
        <ele>557.7</ele>
        <time>2013-11-16T11:42:27.000Z</time>
      </trkpt>
      <trkpt lat="43.00164" lon="2.04013">
        <ele>556.3</ele>
        <time>2013-11-16T11:42:28.000Z</time>
      </trkpt>
      <trkpt lat="43.00163" lon="2.04019">
        <ele>555.8</ele>
        <time>2013-11-16T11:42:29.000Z</time>
      </trkpt>
      <trkpt lat="43.00163" lon="2.04023">
        <ele>556.3</ele>
        <time>2013-11-16T11:42:30.000Z</time>
      </trkpt>
      <trkpt lat="43.0016" lon="2.04042">
        <ele>554.8</ele>
        <time>2013-11-16T11:42:36.000Z</time>
      </trkpt>
      <trkpt lat="43.00158" lon="2.04049">
        <ele>556.7</ele>
        <time>2013-11-16T11:42:38.000Z</time>
      </trkpt>
      <trkpt lat="43.00157" lon="2.0406">
        <ele>555.8</ele>
        <time>2013-11-16T11:42:41.000Z</time>
      </trkpt>
      <trkpt lat="43.00156" lon="2.04066">
        <ele>558.2</ele>
        <time>2013-11-16T11:42:43.000Z</time>
      </trkpt>
      <trkpt lat="43.00163" lon="2.04093">
        <ele>560.6</ele>
        <time>2013-11-16T11:42:53.000Z</time>
      </trkpt>
      <trkpt lat="43.00171" lon="2.04102">
        <ele>562</ele>
        <time>2013-11-16T11:43:02.000Z</time>
      </trkpt>
      <trkpt lat="43.00174" lon="2.04105">
        <ele>560.1</ele>
        <time>2013-11-16T11:43:18.000Z</time>
      </trkpt>
      <trkpt lat="43.00175" lon="2.04106">
        <ele>563.5</ele>
        <time>2013-11-16T11:43:27.000Z</time>
      </trkpt>
      <trkpt lat="43.00175" lon="2.04111">
        <ele>563.5</ele>
        <time>2013-11-16T11:43:37.000Z</time>
      </trkpt>
      <trkpt lat="43.00173" lon="2.04122">
        <ele>564.4</ele>
        <time>2013-11-16T11:43:46.000Z</time>
      </trkpt>
      <trkpt lat="43.00171" lon="2.04124">
        <ele>564</ele>
        <time>2013-11-16T11:43:48.000Z</time>
      </trkpt>
      <trkpt lat="43.0017" lon="2.04127">
        <ele>565.4</ele>
        <time>2013-11-16T11:43:51.000Z</time>
      </trkpt>
      <trkpt lat="43.00169" lon="2.04129">
        <ele>567.3</ele>
        <time>2013-11-16T11:43:53.000Z</time>
      </trkpt>
      <trkpt lat="43.00168" lon="2.04132">
        <ele>567.8</ele>
        <time>2013-11-16T11:44:01.000Z</time>
      </trkpt>
      <trkpt lat="43.00159" lon="2.04134">
        <ele>568.8</ele>
        <time>2013-11-16T11:44:11.000Z</time>
      </trkpt>
      <trkpt lat="43.00153" lon="2.04135">
        <ele>568.8</ele>
        <time>2013-11-16T11:44:15.000Z</time>
      </trkpt>
      <trkpt lat="43.00152" lon="2.04136">
        <ele>569.7</ele>
        <time>2013-11-16T11:44:16.000Z</time>
      </trkpt>
      <trkpt lat="43.00132" lon="2.04144">
        <ele>570.2</ele>
        <time>2013-11-16T11:44:26.000Z</time>
      </trkpt>
      <trkpt lat="43.00131" lon="2.04146">
        <ele>569.7</ele>
        <time>2013-11-16T11:44:27.000Z</time>
      </trkpt>
      <trkpt lat="43.0013" lon="2.04147">
        <ele>571.2</ele>
        <time>2013-11-16T11:44:28.000Z</time>
      </trkpt>
      <trkpt lat="43.00129" lon="2.04149">
        <ele>572.6</ele>
        <time>2013-11-16T11:44:29.000Z</time>
      </trkpt>
      <trkpt lat="43.00127" lon="2.0415">
        <ele>571.6</ele>
        <time>2013-11-16T11:44:30.000Z</time>
      </trkpt>
      <trkpt lat="43.00124" lon="2.04152">
        <ele>571.2</ele>
        <time>2013-11-16T11:44:32.000Z</time>
      </trkpt>
      <trkpt lat="43.00121" lon="2.04154">
        <ele>572.1</ele>
        <time>2013-11-16T11:44:34.000Z</time>
      </trkpt>
      <trkpt lat="43.00107" lon="2.04161">
        <ele>575</ele>
        <time>2013-11-16T11:44:43.000Z</time>
      </trkpt>
      <trkpt lat="43.00095" lon="2.0417">
        <ele>573.6</ele>
        <time>2013-11-16T11:44:51.000Z</time>
      </trkpt>
      <trkpt lat="43.00094" lon="2.04171">
        <ele>574.5</ele>
        <time>2013-11-16T11:44:52.000Z</time>
      </trkpt>
      <trkpt lat="43.00092" lon="2.04173">
        <ele>573.6</ele>
        <time>2013-11-16T11:44:53.000Z</time>
      </trkpt>
      <trkpt lat="43.0009" lon="2.04174">
        <ele>574.5</ele>
        <time>2013-11-16T11:44:54.000Z</time>
      </trkpt>
      <trkpt lat="43.00089" lon="2.04175">
        <ele>576</ele>
        <time>2013-11-16T11:44:55.000Z</time>
      </trkpt>
      <trkpt lat="43.00072" lon="2.04189">
        <ele>576.5</ele>
        <time>2013-11-16T11:45:08.000Z</time>
      </trkpt>
      <trkpt lat="43.00068" lon="2.04195">
        <ele>576.9</ele>
        <time>2013-11-16T11:45:12.000Z</time>
      </trkpt>
      <trkpt lat="43.00067" lon="2.04197">
        <ele>576.9</ele>
        <time>2013-11-16T11:45:13.000Z</time>
      </trkpt>
      <trkpt lat="43.00066" lon="2.04198">
        <ele>576.9</ele>
        <time>2013-11-16T11:45:14.000Z</time>
      </trkpt>
      <trkpt lat="43.00066" lon="2.04201">
        <ele>578.4</ele>
        <time>2013-11-16T11:45:16.000Z</time>
      </trkpt>
      <trkpt lat="43.00065" lon="2.04203">
        <ele>578.4</ele>
        <time>2013-11-16T11:45:17.000Z</time>
      </trkpt>
      <trkpt lat="43.00063" lon="2.04207">
        <ele>577.9</ele>
        <time>2013-11-16T11:45:20.000Z</time>
      </trkpt>
      <trkpt lat="43.00061" lon="2.0421">
        <ele>578.9</ele>
        <time>2013-11-16T11:45:23.000Z</time>
      </trkpt>
      <trkpt lat="43.0006" lon="2.04211">
        <ele>579.3</ele>
        <time>2013-11-16T11:45:24.000Z</time>
      </trkpt>
      <trkpt lat="43.00056" lon="2.04231">
        <ele>581.7</ele>
        <time>2013-11-16T11:45:36.000Z</time>
      </trkpt>
      <trkpt lat="43.00055" lon="2.04235">
        <ele>581.3</ele>
        <time>2013-11-16T11:45:38.000Z</time>
      </trkpt>
      <trkpt lat="43.00052" lon="2.04252">
        <ele>584.1</ele>
        <time>2013-11-16T11:45:48.000Z</time>
      </trkpt>
      <trkpt lat="43.00052" lon="2.04254">
        <ele>583.7</ele>
        <time>2013-11-16T11:45:49.000Z</time>
      </trkpt>
      <trkpt lat="43.00051" lon="2.0427">
        <ele>586.5</ele>
        <time>2013-11-16T11:45:58.000Z</time>
      </trkpt>
      <trkpt lat="43.00051" lon="2.04272">
        <ele>586.5</ele>
        <time>2013-11-16T11:45:59.000Z</time>
      </trkpt>
      <trkpt lat="43.00052" lon="2.04275">
        <ele>585.6</ele>
        <time>2013-11-16T11:46:00.000Z</time>
      </trkpt>
      <trkpt lat="43.00053" lon="2.04278">
        <ele>585.6</ele>
        <time>2013-11-16T11:46:01.000Z</time>
      </trkpt>
      <trkpt lat="43.00055" lon="2.04302">
        <ele>588</ele>
        <time>2013-11-16T11:46:09.000Z</time>
      </trkpt>
      <trkpt lat="43.00058" lon="2.04315">
        <ele>589.4</ele>
        <time>2013-11-16T11:46:14.000Z</time>
      </trkpt>
      <trkpt lat="43.00059" lon="2.04337">
        <ele>590.4</ele>
        <time>2013-11-16T11:46:24.000Z</time>
      </trkpt>
      <trkpt lat="43.00059" lon="2.04339">
        <ele>592.3</ele>
        <time>2013-11-16T11:46:25.000Z</time>
      </trkpt>
      <trkpt lat="43.00059" lon="2.04341">
        <ele>589.9</ele>
        <time>2013-11-16T11:46:26.000Z</time>
      </trkpt>
      <trkpt lat="43.00059" lon="2.04344">
        <ele>591.8</ele>
        <time>2013-11-16T11:46:27.000Z</time>
      </trkpt>
      <trkpt lat="43.00059" lon="2.04347">
        <ele>592.3</ele>
        <time>2013-11-16T11:46:28.000Z</time>
      </trkpt>
      <trkpt lat="43.00059" lon="2.0435">
        <ele>592.8</ele>
        <time>2013-11-16T11:46:29.000Z</time>
      </trkpt>
      <trkpt lat="43.0006" lon="2.04352">
        <ele>592.3</ele>
        <time>2013-11-16T11:46:30.000Z</time>
      </trkpt>
      <trkpt lat="43.0006" lon="2.04355">
        <ele>591.8</ele>
        <time>2013-11-16T11:46:31.000Z</time>
      </trkpt>
      <trkpt lat="43.0006" lon="2.04357">
        <ele>592.8</ele>
        <time>2013-11-16T11:46:32.000Z</time>
      </trkpt>
      <trkpt lat="43.00061" lon="2.04359">
        <ele>593.3</ele>
        <time>2013-11-16T11:46:33.000Z</time>
      </trkpt>
      <trkpt lat="43.0006" lon="2.04361">
        <ele>593.3</ele>
        <time>2013-11-16T11:46:34.000Z</time>
      </trkpt>
      <trkpt lat="43.00061" lon="2.04366">
        <ele>593.8</ele>
        <time>2013-11-16T11:46:36.000Z</time>
      </trkpt>
      <trkpt lat="43.00064" lon="2.04383">
        <ele>596.2</ele>
        <time>2013-11-16T11:46:43.000Z</time>
      </trkpt>
      <trkpt lat="43.00064" lon="2.04385">
        <ele>595.2</ele>
        <time>2013-11-16T11:46:44.000Z</time>
      </trkpt>
      <trkpt lat="43.00066" lon="2.04393">
        <ele>596.2</ele>
        <time>2013-11-16T11:46:47.000Z</time>
      </trkpt>
      <trkpt lat="43.00068" lon="2.044">
        <ele>598.1</ele>
        <time>2013-11-16T11:46:50.000Z</time>
      </trkpt>
      <trkpt lat="43.00072" lon="2.04413">
        <ele>599</ele>
        <time>2013-11-16T11:46:56.000Z</time>
      </trkpt>
      <trkpt lat="43.00073" lon="2.04415">
        <ele>599.5</ele>
        <time>2013-11-16T11:46:57.000Z</time>
      </trkpt>
      <trkpt lat="43.00073" lon="2.04418">
        <ele>600</ele>
        <time>2013-11-16T11:46:58.000Z</time>
      </trkpt>
      <trkpt lat="43.00074" lon="2.0442">
        <ele>599.5</ele>
        <time>2013-11-16T11:46:59.000Z</time>
      </trkpt>
      <trkpt lat="43.00075" lon="2.04422">
        <ele>600</ele>
        <time>2013-11-16T11:47:00.000Z</time>
      </trkpt>
      <trkpt lat="43.00075" lon="2.04424">
        <ele>600.5</ele>
        <time>2013-11-16T11:47:01.000Z</time>
      </trkpt>
      <trkpt lat="43.00076" lon="2.04427">
        <ele>601</ele>
        <time>2013-11-16T11:47:02.000Z</time>
      </trkpt>
      <trkpt lat="43.00089" lon="2.04447">
        <ele>603.4</ele>
        <time>2013-11-16T11:47:14.000Z</time>
      </trkpt>
      <trkpt lat="43.00092" lon="2.04452">
        <ele>604.3</ele>
        <time>2013-11-16T11:47:18.000Z</time>
      </trkpt>
      <trkpt lat="43.00107" lon="2.04471">
        <ele>606.3</ele>
        <time>2013-11-16T11:47:33.000Z</time>
      </trkpt>
      <trkpt lat="43.00117" lon="2.04488">
        <ele>607.7</ele>
        <time>2013-11-16T11:47:45.000Z</time>
      </trkpt>
      <trkpt lat="43.00119" lon="2.04495">
        <ele>606.7</ele>
        <time>2013-11-16T11:47:57.000Z</time>
      </trkpt>
      <trkpt lat="43.00129" lon="2.04525">
        <ele>603.4</ele>
        <time>2013-11-16T11:48:08.000Z</time>
      </trkpt>
      <trkpt lat="43.00129" lon="2.04528">
        <ele>603.4</ele>
        <time>2013-11-16T11:48:09.000Z</time>
      </trkpt>
      <trkpt lat="43.0013" lon="2.0453">
        <ele>603.9</ele>
        <time>2013-11-16T11:48:21.000Z</time>
      </trkpt>
      <trkpt lat="43.0013" lon="2.0453">
        <ele>604.3</ele>
        <time>2013-11-16T11:48:32.000Z</time>
      </trkpt>
      <trkpt lat="43.0013" lon="2.0453">
        <ele>604.3</ele>
        <time>2013-11-16T11:49:01.000Z</time>
      </trkpt>
      <trkpt lat="43.0013" lon="2.0453">
        <ele>602.9</ele>
        <time>2013-11-16T11:49:04.000Z</time>
      </trkpt>
      <trkpt lat="43.00132" lon="2.04534">
        <ele>603.4</ele>
        <time>2013-11-16T11:49:44.000Z</time>
      </trkpt>
      <trkpt lat="43.00132" lon="2.04535">
        <ele>602.9</ele>
        <time>2013-11-16T11:50:04.000Z</time>
      </trkpt>
      <trkpt lat="43.00133" lon="2.04537">
        <ele>603.4</ele>
        <time>2013-11-16T11:50:05.000Z</time>
      </trkpt>
      <trkpt lat="43.00134" lon="2.04539">
        <ele>603.4</ele>
        <time>2013-11-16T11:50:06.000Z</time>
      </trkpt>
      <trkpt lat="43.00135" lon="2.04541">
        <ele>603.4</ele>
        <time>2013-11-16T11:50:07.000Z</time>
      </trkpt>
      <trkpt lat="43.00135" lon="2.04543">
        <ele>604.8</ele>
        <time>2013-11-16T11:50:08.000Z</time>
      </trkpt>
      <trkpt lat="43.00136" lon="2.04544">
        <ele>601.9</ele>
        <time>2013-11-16T11:50:09.000Z</time>
      </trkpt>
      <trkpt lat="43.00137" lon="2.04546">
        <ele>603.4</ele>
        <time>2013-11-16T11:50:10.000Z</time>
      </trkpt>
      <trkpt lat="43.0014" lon="2.04555">
        <ele>603.9</ele>
        <time>2013-11-16T11:50:14.000Z</time>
      </trkpt>
      <trkpt lat="43.0014" lon="2.04557">
        <ele>603.4</ele>
        <time>2013-11-16T11:50:15.000Z</time>
      </trkpt>
      <trkpt lat="43.00141" lon="2.0456">
        <ele>603.9</ele>
        <time>2013-11-16T11:50:16.000Z</time>
      </trkpt>
      <trkpt lat="43.00144" lon="2.04575">
        <ele>604.8</ele>
        <time>2013-11-16T11:50:23.000Z</time>
      </trkpt>
      <trkpt lat="43.00144" lon="2.04578">
        <ele>604.8</ele>
        <time>2013-11-16T11:50:24.000Z</time>
      </trkpt>
      <trkpt lat="43.00146" lon="2.04607">
        <ele>605.8</ele>
        <time>2013-11-16T11:50:38.000Z</time>
      </trkpt>
      <trkpt lat="43.00146" lon="2.04633">
        <ele>609.6</ele>
        <time>2013-11-16T11:50:49.000Z</time>
      </trkpt>
      <trkpt lat="43.00141" lon="2.04662">
        <ele>609.6</ele>
        <time>2013-11-16T11:51:01.000Z</time>
      </trkpt>
      <trkpt lat="43.00138" lon="2.04676">
        <ele>607.7</ele>
        <time>2013-11-16T11:51:06.000Z</time>
      </trkpt>
      <trkpt lat="43.00135" lon="2.04689">
        <ele>607.7</ele>
        <time>2013-11-16T11:51:10.000Z</time>
      </trkpt>
      <trkpt lat="43.00132" lon="2.047">
        <ele>611.5</ele>
        <time>2013-11-16T11:51:13.000Z</time>
      </trkpt>
      <trkpt lat="43.00129" lon="2.04718">
        <ele>609.1</ele>
        <time>2013-11-16T11:51:17.000Z</time>
      </trkpt>
      <trkpt lat="43.00121" lon="2.04743">
        <ele>607.7</ele>
        <time>2013-11-16T11:51:22.000Z</time>
      </trkpt>
      <trkpt lat="43.00093" lon="2.04792">
        <ele>608.2</ele>
        <time>2013-11-16T11:51:34.000Z</time>
      </trkpt>
      <trkpt lat="43.00074" lon="2.0483">
        <ele>609.1</ele>
        <time>2013-11-16T11:51:43.000Z</time>
      </trkpt>
      <trkpt lat="43.00046" lon="2.04887">
        <ele>610.6</ele>
        <time>2013-11-16T11:51:58.000Z</time>
      </trkpt>
      <trkpt lat="43.00014" lon="2.04942">
        <ele>612</ele>
        <time>2013-11-16T11:52:13.000Z</time>
      </trkpt>
      <trkpt lat="43.00012" lon="2.04946">
        <ele>611.5</ele>
        <time>2013-11-16T11:52:14.000Z</time>
      </trkpt>
      <trkpt lat="42.99971" lon="2.04989">
        <ele>613.9</ele>
        <time>2013-11-16T11:52:29.000Z</time>
      </trkpt>
      <trkpt lat="42.99935" lon="2.05021">
        <ele>617.8</ele>
        <time>2013-11-16T11:52:42.000Z</time>
      </trkpt>
      <trkpt lat="42.99915" lon="2.05071">
        <ele>618.3</ele>
        <time>2013-11-16T11:52:55.000Z</time>
      </trkpt>
      <trkpt lat="42.99905" lon="2.05106">
        <ele>621.2</ele>
        <time>2013-11-16T11:53:03.000Z</time>
      </trkpt>
      <trkpt lat="42.99902" lon="2.05115">
        <ele>618.3</ele>
        <time>2013-11-16T11:53:05.000Z</time>
      </trkpt>
      <trkpt lat="42.99884" lon="2.05163">
        <ele>621.2</ele>
        <time>2013-11-16T11:53:16.000Z</time>
      </trkpt>
      <trkpt lat="42.99856" lon="2.05231">
        <ele>620.2</ele>
        <time>2013-11-16T11:53:30.000Z</time>
      </trkpt>
      <trkpt lat="42.99823" lon="2.05301">
        <ele>619.7</ele>
        <time>2013-11-16T11:53:45.000Z</time>
      </trkpt>
      <trkpt lat="42.99817" lon="2.05314">
        <ele>621.2</ele>
        <time>2013-11-16T11:53:49.000Z</time>
      </trkpt>
      <trkpt lat="42.9981" lon="2.05325">
        <ele>620.7</ele>
        <time>2013-11-16T11:53:55.000Z</time>
      </trkpt>
      <trkpt lat="42.99808" lon="2.05324">
        <ele>621.6</ele>
        <time>2013-11-16T11:53:56.000Z</time>
      </trkpt>
      <trkpt lat="42.99806" lon="2.05324">
        <ele>621.2</ele>
        <time>2013-11-16T11:53:58.000Z</time>
      </trkpt>
      <trkpt lat="42.99805" lon="2.05325">
        <ele>621.2</ele>
        <time>2013-11-16T11:53:59.000Z</time>
      </trkpt>
      <trkpt lat="42.99804" lon="2.05326">
        <ele>622.6</ele>
        <time>2013-11-16T11:54:00.000Z</time>
      </trkpt>
      <trkpt lat="42.9981" lon="2.05327">
        <ele>621.2</ele>
        <time>2013-11-16T11:54:06.000Z</time>
      </trkpt>
      <trkpt lat="42.99768" lon="2.05344">
        <ele>622.6</ele>
        <time>2013-11-16T11:54:55.000Z</time>
      </trkpt>
      <trkpt lat="42.99738" lon="2.05375">
        <ele>622.6</ele>
        <time>2013-11-16T11:55:04.000Z</time>
      </trkpt>
      <trkpt lat="42.99726" lon="2.05385">
        <ele>620.2</ele>
        <time>2013-11-16T11:55:07.000Z</time>
      </trkpt>
      <trkpt lat="42.99719" lon="2.05393">
        <ele>620.2</ele>
        <time>2013-11-16T11:55:09.000Z</time>
      </trkpt>
      <trkpt lat="42.99715" lon="2.05396">
        <ele>621.2</ele>
        <time>2013-11-16T11:55:10.000Z</time>
      </trkpt>
      <trkpt lat="42.99664" lon="2.05425">
        <ele>619.7</ele>
        <time>2013-11-16T11:55:21.000Z</time>
      </trkpt>
      <trkpt lat="42.99649" lon="2.05429">
        <ele>620.2</ele>
        <time>2013-11-16T11:55:24.000Z</time>
      </trkpt>
      <trkpt lat="42.99644" lon="2.05429">
        <ele>620.2</ele>
        <time>2013-11-16T11:55:25.000Z</time>
      </trkpt>
      <trkpt lat="42.99635" lon="2.05429">
        <ele>620.2</ele>
        <time>2013-11-16T11:55:27.000Z</time>
      </trkpt>
      <trkpt lat="42.9963" lon="2.0543">
        <ele>620.2</ele>
        <time>2013-11-16T11:55:28.000Z</time>
      </trkpt>
      <trkpt lat="42.99625" lon="2.05431">
        <ele>621.2</ele>
        <time>2013-11-16T11:55:29.000Z</time>
      </trkpt>
      <trkpt lat="42.9962" lon="2.05432">
        <ele>621.6</ele>
        <time>2013-11-16T11:55:30.000Z</time>
      </trkpt>
      <trkpt lat="42.99615" lon="2.05432">
        <ele>620.2</ele>
        <time>2013-11-16T11:55:31.000Z</time>
      </trkpt>
      <trkpt lat="42.99611" lon="2.05431">
        <ele>620.2</ele>
        <time>2013-11-16T11:55:32.000Z</time>
      </trkpt>
      <trkpt lat="42.99563" lon="2.0542">
        <ele>618.8</ele>
        <time>2013-11-16T11:55:43.000Z</time>
      </trkpt>
      <trkpt lat="42.99559" lon="2.05418">
        <ele>618.3</ele>
        <time>2013-11-16T11:55:44.000Z</time>
      </trkpt>
      <trkpt lat="42.99555" lon="2.05414">
        <ele>618.8</ele>
        <time>2013-11-16T11:55:45.000Z</time>
      </trkpt>
      <trkpt lat="42.9955" lon="2.0541">
        <ele>618.8</ele>
        <time>2013-11-16T11:55:46.000Z</time>
      </trkpt>
      <trkpt lat="42.99546" lon="2.05405">
        <ele>619.2</ele>
        <time>2013-11-16T11:55:47.000Z</time>
      </trkpt>
      <trkpt lat="42.99542" lon="2.05399">
        <ele>618.3</ele>
        <time>2013-11-16T11:55:48.000Z</time>
      </trkpt>
      <trkpt lat="42.99539" lon="2.05393">
        <ele>618.8</ele>
        <time>2013-11-16T11:55:49.000Z</time>
      </trkpt>
      <trkpt lat="42.99535" lon="2.05387">
        <ele>617.8</ele>
        <time>2013-11-16T11:55:50.000Z</time>
      </trkpt>
      <trkpt lat="42.99532" lon="2.0538">
        <ele>618.3</ele>
        <time>2013-11-16T11:55:51.000Z</time>
      </trkpt>
      <trkpt lat="42.99517" lon="2.05339">
        <ele>616.8</ele>
        <time>2013-11-16T11:55:58.000Z</time>
      </trkpt>
      <trkpt lat="42.99515" lon="2.05333">
        <ele>616.3</ele>
        <time>2013-11-16T11:55:59.000Z</time>
      </trkpt>
      <trkpt lat="42.99512" lon="2.05328">
        <ele>616.8</ele>
        <time>2013-11-16T11:56:00.000Z</time>
      </trkpt>
      <trkpt lat="42.99509" lon="2.05322">
        <ele>617.3</ele>
        <time>2013-11-16T11:56:01.000Z</time>
      </trkpt>
      <trkpt lat="42.99503" lon="2.05312">
        <ele>616.8</ele>
        <time>2013-11-16T11:56:03.000Z</time>
      </trkpt>
      <trkpt lat="42.99499" lon="2.05308">
        <ele>617.3</ele>
        <time>2013-11-16T11:56:04.000Z</time>
      </trkpt>
      <trkpt lat="42.99495" lon="2.05304">
        <ele>617.3</ele>
        <time>2013-11-16T11:56:05.000Z</time>
      </trkpt>
      <trkpt lat="42.9949" lon="2.05301">
        <ele>616.8</ele>
        <time>2013-11-16T11:56:06.000Z</time>
      </trkpt>
      <trkpt lat="42.99485" lon="2.05299">
        <ele>617.8</ele>
        <time>2013-11-16T11:56:07.000Z</time>
      </trkpt>
      <trkpt lat="42.9948" lon="2.05298">
        <ele>616.8</ele>
        <time>2013-11-16T11:56:08.000Z</time>
      </trkpt>
      <trkpt lat="42.99475" lon="2.05297">
        <ele>618.3</ele>
        <time>2013-11-16T11:56:09.000Z</time>
      </trkpt>
      <trkpt lat="42.99469" lon="2.05297">
        <ele>616.8</ele>
        <time>2013-11-16T11:56:10.000Z</time>
      </trkpt>
      <trkpt lat="42.99459" lon="2.05297">
        <ele>616.3</ele>
        <time>2013-11-16T11:56:12.000Z</time>
      </trkpt>
      <trkpt lat="42.99454" lon="2.05298">
        <ele>616.3</ele>
        <time>2013-11-16T11:56:13.000Z</time>
      </trkpt>
      <trkpt lat="42.99449" lon="2.05299">
        <ele>615.9</ele>
        <time>2013-11-16T11:56:14.000Z</time>
      </trkpt>
      <trkpt lat="42.99418" lon="2.05303">
        <ele>615.9</ele>
        <time>2013-11-16T11:56:20.000Z</time>
      </trkpt>
      <trkpt lat="42.99412" lon="2.05304">
        <ele>616.3</ele>
        <time>2013-11-16T11:56:21.000Z</time>
      </trkpt>
      <trkpt lat="42.99381" lon="2.05307">
        <ele>614.9</ele>
        <time>2013-11-16T11:56:27.000Z</time>
      </trkpt>
      <trkpt lat="42.99364" lon="2.05309">
        <ele>616.3</ele>
        <time>2013-11-16T11:56:30.000Z</time>
      </trkpt>
      <trkpt lat="42.99343" lon="2.0531">
        <ele>614.9</ele>
        <time>2013-11-16T11:56:34.000Z</time>
      </trkpt>
      <trkpt lat="42.99338" lon="2.0531">
        <ele>615.4</ele>
        <time>2013-11-16T11:56:35.000Z</time>
      </trkpt>
      <trkpt lat="42.99333" lon="2.05309">
        <ele>614.9</ele>
        <time>2013-11-16T11:56:36.000Z</time>
      </trkpt>
      <trkpt lat="42.99328" lon="2.05307">
        <ele>614.9</ele>
        <time>2013-11-16T11:56:37.000Z</time>
      </trkpt>
      <trkpt lat="42.99322" lon="2.05304">
        <ele>615.9</ele>
        <time>2013-11-16T11:56:38.000Z</time>
      </trkpt>
      <trkpt lat="42.99317" lon="2.05301">
        <ele>615.9</ele>
        <time>2013-11-16T11:56:39.000Z</time>
      </trkpt>
      <trkpt lat="42.99312" lon="2.05297">
        <ele>615.4</ele>
        <time>2013-11-16T11:56:40.000Z</time>
      </trkpt>
      <trkpt lat="42.99308" lon="2.05292">
        <ele>614.4</ele>
        <time>2013-11-16T11:56:41.000Z</time>
      </trkpt>
      <trkpt lat="42.993" lon="2.05283">
        <ele>613.9</ele>
        <time>2013-11-16T11:56:43.000Z</time>
      </trkpt>
      <trkpt lat="42.99283" lon="2.05261">
        <ele>613.9</ele>
        <time>2013-11-16T11:56:47.000Z</time>
      </trkpt>
      <trkpt lat="42.9928" lon="2.05255">
        <ele>614.9</ele>
        <time>2013-11-16T11:56:48.000Z</time>
      </trkpt>
      <trkpt lat="42.99273" lon="2.05246">
        <ele>612</ele>
        <time>2013-11-16T11:56:50.000Z</time>
      </trkpt>
      <trkpt lat="42.9927" lon="2.05241">
        <ele>613.5</ele>
        <time>2013-11-16T11:56:51.000Z</time>
      </trkpt>
      <trkpt lat="42.99241" lon="2.05221">
        <ele>612.5</ele>
        <time>2013-11-16T12:00:57.000Z</time>
      </trkpt>
      <trkpt lat="42.99241" lon="2.05224">
        <ele>611.1</ele>
        <time>2013-11-16T12:00:58.000Z</time>
      </trkpt>
      <trkpt lat="42.99241" lon="2.05227">
        <ele>610.1</ele>
        <time>2013-11-16T12:00:59.000Z</time>
      </trkpt>
      <trkpt lat="42.99241" lon="2.0523">
        <ele>612</ele>
        <time>2013-11-16T12:01:00.000Z</time>
      </trkpt>
      <trkpt lat="42.99238" lon="2.05258">
        <ele>614.4</ele>
        <time>2013-11-16T12:01:10.000Z</time>
      </trkpt>
      <trkpt lat="42.99236" lon="2.05285">
        <ele>616.8</ele>
        <time>2013-11-16T12:01:19.000Z</time>
      </trkpt>
      <trkpt lat="42.99234" lon="2.05317">
        <ele>620.2</ele>
        <time>2013-11-16T12:01:30.000Z</time>
      </trkpt>
      <trkpt lat="42.99232" lon="2.05346">
        <ele>622.6</ele>
        <time>2013-11-16T12:01:41.000Z</time>
      </trkpt>
      <trkpt lat="42.99229" lon="2.05379">
        <ele>626.4</ele>
        <time>2013-11-16T12:01:51.000Z</time>
      </trkpt>
      <trkpt lat="42.99226" lon="2.05433">
        <ele>628.8</ele>
        <time>2013-11-16T12:02:06.000Z</time>
      </trkpt>
      <trkpt lat="42.99226" lon="2.05459">
        <ele>632.7</ele>
        <time>2013-11-16T12:02:13.000Z</time>
      </trkpt>
      <trkpt lat="42.9922" lon="2.05491">
        <ele>633.7</ele>
        <time>2013-11-16T12:02:23.000Z</time>
      </trkpt>
      <trkpt lat="42.9921" lon="2.0552">
        <ele>637</ele>
        <time>2013-11-16T12:02:32.000Z</time>
      </trkpt>
      <trkpt lat="42.99198" lon="2.05545">
        <ele>640.9</ele>
        <time>2013-11-16T12:02:42.000Z</time>
      </trkpt>
      <trkpt lat="42.99172" lon="2.05565">
        <ele>641.8</ele>
        <time>2013-11-16T12:02:55.000Z</time>
      </trkpt>
      <trkpt lat="42.99168" lon="2.05567">
        <ele>643.3</ele>
        <time>2013-11-16T12:02:57.000Z</time>
      </trkpt>
      <trkpt lat="42.99149" lon="2.05582">
        <ele>646.6</ele>
        <time>2013-11-16T12:03:07.000Z</time>
      </trkpt>
      <trkpt lat="42.99147" lon="2.05584">
        <ele>646.6</ele>
        <time>2013-11-16T12:03:08.000Z</time>
      </trkpt>
      <trkpt lat="42.9913" lon="2.05603">
        <ele>649.5</ele>
        <time>2013-11-16T12:03:18.000Z</time>
      </trkpt>
      <trkpt lat="42.99092" lon="2.05647">
        <ele>651.9</ele>
        <time>2013-11-16T12:11:14.000Z</time>
      </trkpt>
      <trkpt lat="42.99075" lon="2.05665">
        <ele>654.8</ele>
        <time>2013-11-16T12:11:25.000Z</time>
      </trkpt>
      <trkpt lat="42.99062" lon="2.05681">
        <ele>658.2</ele>
        <time>2013-11-16T12:11:34.000Z</time>
      </trkpt>
      <trkpt lat="42.99044" lon="2.05702">
        <ele>660.6</ele>
        <time>2013-11-16T12:11:46.000Z</time>
      </trkpt>
      <trkpt lat="42.99021" lon="2.05722">
        <ele>663.5</ele>
        <time>2013-11-16T12:11:59.000Z</time>
      </trkpt>
      <trkpt lat="42.99013" lon="2.05729">
        <ele>665.4</ele>
        <time>2013-11-16T12:12:03.000Z</time>
      </trkpt>
      <trkpt lat="42.9899" lon="2.05748">
        <ele>667.3</ele>
        <time>2013-11-16T12:12:14.000Z</time>
      </trkpt>
      <trkpt lat="42.98979" lon="2.0576">
        <ele>670.2</ele>
        <time>2013-11-16T12:12:20.000Z</time>
      </trkpt>
      <trkpt lat="42.98956" lon="2.05778">
        <ele>670.7</ele>
        <time>2013-11-16T12:12:31.000Z</time>
      </trkpt>
      <trkpt lat="42.98933" lon="2.05801">
        <ele>674</ele>
        <time>2013-11-16T12:12:43.000Z</time>
      </trkpt>
      <trkpt lat="42.98931" lon="2.05803">
        <ele>670.7</ele>
        <time>2013-11-16T12:12:44.000Z</time>
      </trkpt>
      <trkpt lat="42.98926" lon="2.0581">
        <ele>675</ele>
        <time>2013-11-16T12:12:47.000Z</time>
      </trkpt>
      <trkpt lat="42.98899" lon="2.05839">
        <ele>675</ele>
        <time>2013-11-16T12:13:00.000Z</time>
      </trkpt>
      <trkpt lat="42.98897" lon="2.05841">
        <ele>675</ele>
        <time>2013-11-16T12:13:01.000Z</time>
      </trkpt>
      <trkpt lat="42.98869" lon="2.05874">
        <ele>675.5</ele>
        <time>2013-11-16T12:13:14.000Z</time>
      </trkpt>
      <trkpt lat="42.98859" lon="2.05889">
        <ele>678.4</ele>
        <time>2013-11-16T12:13:19.000Z</time>
      </trkpt>
      <trkpt lat="42.98837" lon="2.05916">
        <ele>682.7</ele>
        <time>2013-11-16T12:13:28.000Z</time>
      </trkpt>
      <trkpt lat="42.98835" lon="2.05919">
        <ele>678.8</ele>
        <time>2013-11-16T12:13:29.000Z</time>
      </trkpt>
      <trkpt lat="42.98833" lon="2.05922">
        <ele>682.7</ele>
        <time>2013-11-16T12:13:30.000Z</time>
      </trkpt>
      <trkpt lat="42.98831" lon="2.05925">
        <ele>679.3</ele>
        <time>2013-11-16T12:13:31.000Z</time>
      </trkpt>
      <trkpt lat="42.98827" lon="2.0593">
        <ele>678.8</ele>
        <time>2013-11-16T12:13:33.000Z</time>
      </trkpt>
      <trkpt lat="42.98818" lon="2.05939">
        <ele>680.3</ele>
        <time>2013-11-16T12:13:37.000Z</time>
      </trkpt>
      <trkpt lat="42.98798" lon="2.0597">
        <ele>680.3</ele>
        <time>2013-11-16T12:13:49.000Z</time>
      </trkpt>
      <trkpt lat="42.98795" lon="2.05977">
        <ele>682.7</ele>
        <time>2013-11-16T12:13:52.000Z</time>
      </trkpt>
      <trkpt lat="42.98793" lon="2.05979">
        <ele>680.8</ele>
        <time>2013-11-16T12:13:53.000Z</time>
      </trkpt>
      <trkpt lat="42.98792" lon="2.05982">
        <ele>681.7</ele>
        <time>2013-11-16T12:14:09.000Z</time>
      </trkpt>
      <trkpt lat="42.98792" lon="2.05982">
        <ele>682.7</ele>
        <time>2013-11-16T12:14:20.000Z</time>
      </trkpt>
      <trkpt lat="42.98792" lon="2.05983">
        <ele>681.7</ele>
        <time>2013-11-16T12:14:36.000Z</time>
      </trkpt>
      <trkpt lat="42.98792" lon="2.05985">
        <ele>682.2</ele>
        <time>2013-11-16T12:14:37.000Z</time>
      </trkpt>
      <trkpt lat="42.98792" lon="2.05987">
        <ele>682.2</ele>
        <time>2013-11-16T12:14:38.000Z</time>
      </trkpt>
      <trkpt lat="42.98791" lon="2.0599">
        <ele>682.7</ele>
        <time>2013-11-16T12:14:39.000Z</time>
      </trkpt>
      <trkpt lat="42.98791" lon="2.05993">
        <ele>682.7</ele>
        <time>2013-11-16T12:14:40.000Z</time>
      </trkpt>
      <trkpt lat="42.9879" lon="2.05996">
        <ele>681.7</ele>
        <time>2013-11-16T12:14:41.000Z</time>
      </trkpt>
      <trkpt lat="42.98788" lon="2.06">
        <ele>682.2</ele>
        <time>2013-11-16T12:14:42.000Z</time>
      </trkpt>
      <trkpt lat="42.98747" lon="2.06089">
        <ele>679.8</ele>
        <time>2013-11-16T12:16:05.000Z</time>
      </trkpt>
      <trkpt lat="42.98716" lon="2.06139">
        <ele>678.8</ele>
        <time>2013-11-16T12:16:15.000Z</time>
      </trkpt>
      <trkpt lat="42.98708" lon="2.06149">
        <ele>677.9</ele>
        <time>2013-11-16T12:16:17.000Z</time>
      </trkpt>
      <trkpt lat="42.98704" lon="2.06154">
        <ele>677.9</ele>
        <time>2013-11-16T12:16:18.000Z</time>
      </trkpt>
      <trkpt lat="42.98695" lon="2.06162">
        <ele>676.9</ele>
        <time>2013-11-16T12:16:20.000Z</time>
      </trkpt>
      <trkpt lat="42.98678" lon="2.0617">
        <ele>677.9</ele>
        <time>2013-11-16T12:16:28.000Z</time>
      </trkpt>
      <trkpt lat="42.98678" lon="2.0617">
        <ele>676.4</ele>
        <time>2013-11-16T12:16:45.000Z</time>
      </trkpt>
      <trkpt lat="42.98676" lon="2.06169">
        <ele>676.9</ele>
        <time>2013-11-16T12:17:19.000Z</time>
      </trkpt>
      <trkpt lat="42.98651" lon="2.06163">
        <ele>673.5</ele>
        <time>2013-11-16T12:17:26.000Z</time>
      </trkpt>
      <trkpt lat="42.98618" lon="2.06143">
        <ele>672.1</ele>
        <time>2013-11-16T12:17:35.000Z</time>
      </trkpt>
      <trkpt lat="42.98613" lon="2.0614">
        <ele>671.6</ele>
        <time>2013-11-16T12:17:36.000Z</time>
      </trkpt>
      <trkpt lat="42.98608" lon="2.06136">
        <ele>672.6</ele>
        <time>2013-11-16T12:17:37.000Z</time>
      </trkpt>
      <trkpt lat="42.98594" lon="2.06122">
        <ele>669.2</ele>
        <time>2013-11-16T12:17:40.000Z</time>
      </trkpt>
      <trkpt lat="42.98589" lon="2.06117">
        <ele>670.7</ele>
        <time>2013-11-16T12:17:41.000Z</time>
      </trkpt>
      <trkpt lat="42.98578" lon="2.06105">
        <ele>667.8</ele>
        <time>2013-11-16T12:17:43.000Z</time>
      </trkpt>
      <trkpt lat="42.98572" lon="2.061">
        <ele>664.4</ele>
        <time>2013-11-16T12:17:44.000Z</time>
      </trkpt>
      <trkpt lat="42.98566" lon="2.06094">
        <ele>664.9</ele>
        <time>2013-11-16T12:17:45.000Z</time>
      </trkpt>
      <trkpt lat="42.98561" lon="2.06087">
        <ele>663.5</ele>
        <time>2013-11-16T12:17:46.000Z</time>
      </trkpt>
      <trkpt lat="42.98556" lon="2.06081">
        <ele>663.9</ele>
        <time>2013-11-16T12:17:47.000Z</time>
      </trkpt>
      <trkpt lat="42.98543" lon="2.06061">
        <ele>661.5</ele>
        <time>2013-11-16T12:17:50.000Z</time>
      </trkpt>
      <trkpt lat="42.9854" lon="2.06053">
        <ele>660.6</ele>
        <time>2013-11-16T12:17:51.000Z</time>
      </trkpt>
      <trkpt lat="42.98537" lon="2.06046">
        <ele>661.5</ele>
        <time>2013-11-16T12:17:52.000Z</time>
      </trkpt>
      <trkpt lat="42.98535" lon="2.06038">
        <ele>660.1</ele>
        <time>2013-11-16T12:17:53.000Z</time>
      </trkpt>
      <trkpt lat="42.98533" lon="2.06031">
        <ele>658.2</ele>
        <time>2013-11-16T12:17:54.000Z</time>
      </trkpt>
      <trkpt lat="42.98532" lon="2.06023">
        <ele>658.2</ele>
        <time>2013-11-16T12:17:55.000Z</time>
      </trkpt>
      <trkpt lat="42.9853" lon="2.06001">
        <ele>654.8</ele>
        <time>2013-11-16T12:17:58.000Z</time>
      </trkpt>
      <trkpt lat="42.98529" lon="2.05984">
        <ele>655.8</ele>
        <time>2013-11-16T12:18:00.000Z</time>
      </trkpt>
      <trkpt lat="42.98528" lon="2.05974">
        <ele>653.8</ele>
        <time>2013-11-16T12:18:01.000Z</time>
      </trkpt>
      <trkpt lat="42.98527" lon="2.05964">
        <ele>652.9</ele>
        <time>2013-11-16T12:18:02.000Z</time>
      </trkpt>
      <trkpt lat="42.98525" lon="2.05954">
        <ele>650</ele>
        <time>2013-11-16T12:18:03.000Z</time>
      </trkpt>
      <trkpt lat="42.98522" lon="2.05944">
        <ele>651</ele>
        <time>2013-11-16T12:18:04.000Z</time>
      </trkpt>
      <trkpt lat="42.98517" lon="2.05936">
        <ele>650.5</ele>
        <time>2013-11-16T12:18:05.000Z</time>
      </trkpt>
      <trkpt lat="42.98512" lon="2.05929">
        <ele>648.6</ele>
        <time>2013-11-16T12:18:06.000Z</time>
      </trkpt>
      <trkpt lat="42.98507" lon="2.05923">
        <ele>648.6</ele>
        <time>2013-11-16T12:18:07.000Z</time>
      </trkpt>
      <trkpt lat="42.98502" lon="2.05918">
        <ele>646.6</ele>
        <time>2013-11-16T12:18:08.000Z</time>
      </trkpt>
      <trkpt lat="42.98497" lon="2.05913">
        <ele>647.1</ele>
        <time>2013-11-16T12:18:09.000Z</time>
      </trkpt>
      <trkpt lat="42.98473" lon="2.05884">
        <ele>643.3</ele>
        <time>2013-11-16T12:18:15.000Z</time>
      </trkpt>
      <trkpt lat="42.9847" lon="2.0588">
        <ele>643.3</ele>
        <time>2013-11-16T12:18:16.000Z</time>
      </trkpt>
      <trkpt lat="42.98455" lon="2.05867">
        <ele>641.8</ele>
        <time>2013-11-16T12:18:22.000Z</time>
      </trkpt>
      <trkpt lat="42.98437" lon="2.05859">
        <ele>645.2</ele>
        <time>2013-11-16T12:18:28.000Z</time>
      </trkpt>
      <trkpt lat="42.98435" lon="2.05856">
        <ele>643.3</ele>
        <time>2013-11-16T12:18:29.000Z</time>
      </trkpt>
      <trkpt lat="42.98434" lon="2.05854">
        <ele>644.2</ele>
        <time>2013-11-16T12:18:30.000Z</time>
      </trkpt>
      <trkpt lat="42.98434" lon="2.05852">
        <ele>643.3</ele>
        <time>2013-11-16T12:18:31.000Z</time>
      </trkpt>
      <trkpt lat="42.98435" lon="2.0585">
        <ele>644.2</ele>
        <time>2013-11-16T12:18:32.000Z</time>
      </trkpt>
      <trkpt lat="42.98437" lon="2.05849">
        <ele>642.3</ele>
        <time>2013-11-16T12:18:33.000Z</time>
      </trkpt>
      <trkpt lat="42.98442" lon="2.05849">
        <ele>643.3</ele>
        <time>2013-11-16T12:18:43.000Z</time>
      </trkpt>
      <trkpt lat="42.98449" lon="2.05853">
        <ele>639.9</ele>
        <time>2013-11-16T12:18:53.000Z</time>
      </trkpt>
      <trkpt lat="42.98452" lon="2.05854">
        <ele>639.9</ele>
        <time>2013-11-16T12:18:54.000Z</time>
      </trkpt>
      <trkpt lat="42.98484" lon="2.05865">
        <ele>636.5</ele>
        <time>2013-11-16T12:19:05.000Z</time>
      </trkpt>
      <trkpt lat="42.98499" lon="2.05867">
        <ele>636.1</ele>
        <time>2013-11-16T12:19:09.000Z</time>
      </trkpt>
      <trkpt lat="42.98505" lon="2.05867">
        <ele>635.6</ele>
        <time>2013-11-16T12:19:11.000Z</time>
      </trkpt>
      <trkpt lat="42.98526" lon="2.05871">
        <ele>634.1</ele>
        <time>2013-11-16T12:19:17.000Z</time>
      </trkpt>
      <trkpt lat="42.98538" lon="2.05878">
        <ele>632.7</ele>
        <time>2013-11-16T12:19:20.000Z</time>
      </trkpt>
      <trkpt lat="42.98547" lon="2.05886">
        <ele>631.7</ele>
        <time>2013-11-16T12:19:23.000Z</time>
      </trkpt>
      <trkpt lat="42.98553" lon="2.05892">
        <ele>628.8</ele>
        <time>2013-11-16T12:19:25.000Z</time>
      </trkpt>
      <trkpt lat="42.98571" lon="2.05912">
        <ele>627.4</ele>
        <time>2013-11-16T12:19:31.000Z</time>
      </trkpt>
      <trkpt lat="42.98577" lon="2.05916">
        <ele>626.4</ele>
        <time>2013-11-16T12:19:34.000Z</time>
      </trkpt>
      <trkpt lat="42.98584" lon="2.05921">
        <ele>625</ele>
        <time>2013-11-16T12:19:37.000Z</time>
      </trkpt>
      <trkpt lat="42.98597" lon="2.05931">
        <ele>622.6</ele>
        <time>2013-11-16T12:19:44.000Z</time>
      </trkpt>
      <trkpt lat="42.98606" lon="2.05934">
        <ele>623.1</ele>
        <time>2013-11-16T12:19:50.000Z</time>
      </trkpt>
      <trkpt lat="42.98619" lon="2.0594">
        <ele>621.2</ele>
        <time>2013-11-16T12:19:57.000Z</time>
      </trkpt>
      <trkpt lat="42.98621" lon="2.0594">
        <ele>622.6</ele>
        <time>2013-11-16T12:19:58.000Z</time>
      </trkpt>
      <trkpt lat="42.98632" lon="2.05937">
        <ele>622.6</ele>
        <time>2013-11-16T12:20:09.000Z</time>
      </trkpt>
      <trkpt lat="42.98644" lon="2.05935">
        <ele>622.6</ele>
        <time>2013-11-16T12:20:15.000Z</time>
      </trkpt>
      <trkpt lat="42.98655" lon="2.05927">
        <ele>622.1</ele>
        <time>2013-11-16T12:20:20.000Z</time>
      </trkpt>
      <trkpt lat="42.98669" lon="2.05912">
        <ele>624</ele>
        <time>2013-11-16T12:20:27.000Z</time>
      </trkpt>
      <trkpt lat="42.98673" lon="2.05907">
        <ele>622.1</ele>
        <time>2013-11-16T12:20:30.000Z</time>
      </trkpt>
      <trkpt lat="42.98684" lon="2.05899">
        <ele>623.6</ele>
        <time>2013-11-16T12:20:35.000Z</time>
      </trkpt>
      <trkpt lat="42.98689" lon="2.05895">
        <ele>624</ele>
        <time>2013-11-16T12:20:37.000Z</time>
      </trkpt>
      <trkpt lat="42.98696" lon="2.05889">
        <ele>624</ele>
        <time>2013-11-16T12:20:41.000Z</time>
      </trkpt>
      <trkpt lat="42.98708" lon="2.0588">
        <ele>625.5</ele>
        <time>2013-11-16T12:20:47.000Z</time>
      </trkpt>
      <trkpt lat="42.98719" lon="2.05871">
        <ele>626.4</ele>
        <time>2013-11-16T12:20:53.000Z</time>
      </trkpt>
      <trkpt lat="42.98728" lon="2.0586">
        <ele>626.9</ele>
        <time>2013-11-16T12:20:59.000Z</time>
      </trkpt>
      <trkpt lat="42.98738" lon="2.05849">
        <ele>627.4</ele>
        <time>2013-11-16T12:21:06.000Z</time>
      </trkpt>
      <trkpt lat="42.98747" lon="2.0583">
        <ele>626.9</ele>
        <time>2013-11-16T12:21:11.000Z</time>
      </trkpt>
      <trkpt lat="42.98749" lon="2.05824">
        <ele>626</ele>
        <time>2013-11-16T12:21:12.000Z</time>
      </trkpt>
      <trkpt lat="42.9875" lon="2.05819">
        <ele>625.5</ele>
        <time>2013-11-16T12:21:13.000Z</time>
      </trkpt>
      <trkpt lat="42.98752" lon="2.05814">
        <ele>624.5</ele>
        <time>2013-11-16T12:21:14.000Z</time>
      </trkpt>
      <trkpt lat="42.98753" lon="2.05809">
        <ele>624.5</ele>
        <time>2013-11-16T12:21:15.000Z</time>
      </trkpt>
      <trkpt lat="42.98754" lon="2.05806">
        <ele>625.5</ele>
        <time>2013-11-16T12:21:16.000Z</time>
      </trkpt>
      <trkpt lat="42.98756" lon="2.05802">
        <ele>625.5</ele>
        <time>2013-11-16T12:21:17.000Z</time>
      </trkpt>
      <trkpt lat="42.98757" lon="2.05798">
        <ele>623.6</ele>
        <time>2013-11-16T12:21:18.000Z</time>
      </trkpt>
      <trkpt lat="42.98762" lon="2.05781">
        <ele>624</ele>
        <time>2013-11-16T12:21:23.000Z</time>
      </trkpt>
      <trkpt lat="42.98764" lon="2.05776">
        <ele>624</ele>
        <time>2013-11-16T12:21:26.000Z</time>
      </trkpt>
      <trkpt lat="42.98765" lon="2.05774">
        <ele>623.1</ele>
        <time>2013-11-16T12:21:27.000Z</time>
      </trkpt>
      <trkpt lat="42.98765" lon="2.0577">
        <ele>622.6</ele>
        <time>2013-11-16T12:21:28.000Z</time>
      </trkpt>
      <trkpt lat="42.98765" lon="2.05767">
        <ele>622.1</ele>
        <time>2013-11-16T12:21:29.000Z</time>
      </trkpt>
      <trkpt lat="42.98766" lon="2.05765">
        <ele>622.1</ele>
        <time>2013-11-16T12:21:30.000Z</time>
      </trkpt>
      <trkpt lat="42.98767" lon="2.05761">
        <ele>622.1</ele>
        <time>2013-11-16T12:21:32.000Z</time>
      </trkpt>
      <trkpt lat="42.98767" lon="2.05759">
        <ele>620.7</ele>
        <time>2013-11-16T12:21:33.000Z</time>
      </trkpt>
      <trkpt lat="42.98767" lon="2.05756">
        <ele>624</ele>
        <time>2013-11-16T12:21:34.000Z</time>
      </trkpt>
      <trkpt lat="42.98767" lon="2.05754">
        <ele>623.1</ele>
        <time>2013-11-16T12:21:35.000Z</time>
      </trkpt>
      <trkpt lat="42.98768" lon="2.05752">
        <ele>623.1</ele>
        <time>2013-11-16T12:21:36.000Z</time>
      </trkpt>
      <trkpt lat="42.98768" lon="2.05749">
        <ele>623.6</ele>
        <time>2013-11-16T12:21:37.000Z</time>
      </trkpt>
      <trkpt lat="42.9877" lon="2.05722">
        <ele>625.5</ele>
        <time>2013-11-16T12:21:46.000Z</time>
      </trkpt>
      <trkpt lat="42.9877" lon="2.05719">
        <ele>625</ele>
        <time>2013-11-16T12:21:47.000Z</time>
      </trkpt>
      <trkpt lat="42.9877" lon="2.05715">
        <ele>625.5</ele>
        <time>2013-11-16T12:21:48.000Z</time>
      </trkpt>
      <trkpt lat="42.9877" lon="2.05711">
        <ele>625</ele>
        <time>2013-11-16T12:21:49.000Z</time>
      </trkpt>
      <trkpt lat="42.9877" lon="2.05707">
        <ele>627.4</ele>
        <time>2013-11-16T12:21:50.000Z</time>
      </trkpt>
      <trkpt lat="42.9877" lon="2.05703">
        <ele>626</ele>
        <time>2013-11-16T12:21:51.000Z</time>
      </trkpt>
      <trkpt lat="42.98769" lon="2.05686">
        <ele>626</ele>
        <time>2013-11-16T12:21:57.000Z</time>
      </trkpt>
      <trkpt lat="42.98769" lon="2.05683">
        <ele>626</ele>
        <time>2013-11-16T12:21:58.000Z</time>
      </trkpt>
      <trkpt lat="42.9877" lon="2.0568">
        <ele>625</ele>
        <time>2013-11-16T12:21:59.000Z</time>
      </trkpt>
      <trkpt lat="42.98771" lon="2.05678">
        <ele>626</ele>
        <time>2013-11-16T12:22:00.000Z</time>
      </trkpt>
      <trkpt lat="42.98771" lon="2.05674">
        <ele>626</ele>
        <time>2013-11-16T12:22:01.000Z</time>
      </trkpt>
      <trkpt lat="42.98771" lon="2.05671">
        <ele>626</ele>
        <time>2013-11-16T12:22:02.000Z</time>
      </trkpt>
      <trkpt lat="42.98772" lon="2.05662">
        <ele>624.5</ele>
        <time>2013-11-16T12:22:05.000Z</time>
      </trkpt>
      <trkpt lat="42.98772" lon="2.0566">
        <ele>626</ele>
        <time>2013-11-16T12:22:06.000Z</time>
      </trkpt>
      <trkpt lat="42.98773" lon="2.05657">
        <ele>625.5</ele>
        <time>2013-11-16T12:22:07.000Z</time>
      </trkpt>
      <trkpt lat="42.98773" lon="2.05654">
        <ele>625.5</ele>
        <time>2013-11-16T12:22:08.000Z</time>
      </trkpt>
      <trkpt lat="42.98773" lon="2.05651">
        <ele>625.5</ele>
        <time>2013-11-16T12:22:09.000Z</time>
      </trkpt>
      <trkpt lat="42.98774" lon="2.05648">
        <ele>626.9</ele>
        <time>2013-11-16T12:22:10.000Z</time>
      </trkpt>
      <trkpt lat="42.98773" lon="2.05644">
        <ele>626.9</ele>
        <time>2013-11-16T12:22:11.000Z</time>
      </trkpt>
      <trkpt lat="42.98773" lon="2.05641">
        <ele>625</ele>
        <time>2013-11-16T12:22:12.000Z</time>
      </trkpt>
      <trkpt lat="42.98773" lon="2.05637">
        <ele>626</ele>
        <time>2013-11-16T12:22:13.000Z</time>
      </trkpt>
      <trkpt lat="42.98774" lon="2.05634">
        <ele>624.5</ele>
        <time>2013-11-16T12:22:14.000Z</time>
      </trkpt>
      <trkpt lat="42.98774" lon="2.05631">
        <ele>625.5</ele>
        <time>2013-11-16T12:22:15.000Z</time>
      </trkpt>
      <trkpt lat="42.98774" lon="2.05628">
        <ele>624</ele>
        <time>2013-11-16T12:22:16.000Z</time>
      </trkpt>
      <trkpt lat="42.98773" lon="2.05594">
        <ele>625</ele>
        <time>2013-11-16T12:22:25.000Z</time>
      </trkpt>
      <trkpt lat="42.98768" lon="2.05561">
        <ele>624.5</ele>
        <time>2013-11-16T12:22:34.000Z</time>
      </trkpt>
      <trkpt lat="42.98766" lon="2.05555">
        <ele>624.5</ele>
        <time>2013-11-16T12:22:36.000Z</time>
      </trkpt>
      <trkpt lat="42.98765" lon="2.05553">
        <ele>625</ele>
        <time>2013-11-16T12:22:37.000Z</time>
      </trkpt>
      <trkpt lat="42.98763" lon="2.05549">
        <ele>624.5</ele>
        <time>2013-11-16T12:22:39.000Z</time>
      </trkpt>
      <trkpt lat="42.98763" lon="2.05546">
        <ele>624</ele>
        <time>2013-11-16T12:22:40.000Z</time>
      </trkpt>
      <trkpt lat="42.98762" lon="2.05532">
        <ele>625</ele>
        <time>2013-11-16T12:22:45.000Z</time>
      </trkpt>
      <trkpt lat="42.98761" lon="2.0552">
        <ele>624</ele>
        <time>2013-11-16T12:22:49.000Z</time>
      </trkpt>
      <trkpt lat="42.9876" lon="2.05518">
        <ele>624.5</ele>
        <time>2013-11-16T12:22:50.000Z</time>
      </trkpt>
      <trkpt lat="42.9876" lon="2.05515">
        <ele>623.6</ele>
        <time>2013-11-16T12:22:51.000Z</time>
      </trkpt>
      <trkpt lat="42.9876" lon="2.05511">
        <ele>624</ele>
        <time>2013-11-16T12:22:52.000Z</time>
      </trkpt>
      <trkpt lat="42.98759" lon="2.05507">
        <ele>624.5</ele>
        <time>2013-11-16T12:22:53.000Z</time>
      </trkpt>
      <trkpt lat="42.98759" lon="2.05504">
        <ele>624.5</ele>
        <time>2013-11-16T12:22:54.000Z</time>
      </trkpt>
      <trkpt lat="42.98759" lon="2.05501">
        <ele>625.5</ele>
        <time>2013-11-16T12:22:55.000Z</time>
      </trkpt>
      <trkpt lat="42.98759" lon="2.05497">
        <ele>624.5</ele>
        <time>2013-11-16T12:22:56.000Z</time>
      </trkpt>
      <trkpt lat="42.98758" lon="2.05493">
        <ele>624.5</ele>
        <time>2013-11-16T12:22:57.000Z</time>
      </trkpt>
      <trkpt lat="42.98757" lon="2.05489">
        <ele>622.6</ele>
        <time>2013-11-16T12:22:58.000Z</time>
      </trkpt>
      <trkpt lat="42.98756" lon="2.05485">
        <ele>624</ele>
        <time>2013-11-16T12:22:59.000Z</time>
      </trkpt>
      <trkpt lat="42.98748" lon="2.05444">
        <ele>624</ele>
        <time>2013-11-16T12:23:08.000Z</time>
      </trkpt>
      <trkpt lat="42.98745" lon="2.05432">
        <ele>622.6</ele>
        <time>2013-11-16T12:23:10.000Z</time>
      </trkpt>
      <trkpt lat="42.9874" lon="2.05406">
        <ele>620.7</ele>
        <time>2013-11-16T12:23:14.000Z</time>
      </trkpt>
      <trkpt lat="42.98738" lon="2.054">
        <ele>619.2</ele>
        <time>2013-11-16T12:23:15.000Z</time>
      </trkpt>
      <trkpt lat="42.98737" lon="2.05394">
        <ele>618.8</ele>
        <time>2013-11-16T12:23:16.000Z</time>
      </trkpt>
      <trkpt lat="42.98736" lon="2.05388">
        <ele>619.2</ele>
        <time>2013-11-16T12:23:17.000Z</time>
      </trkpt>
      <trkpt lat="42.98735" lon="2.05381">
        <ele>619.2</ele>
        <time>2013-11-16T12:23:18.000Z</time>
      </trkpt>
      <trkpt lat="42.98734" lon="2.05376">
        <ele>617.8</ele>
        <time>2013-11-16T12:23:19.000Z</time>
      </trkpt>
      <trkpt lat="42.98732" lon="2.0537">
        <ele>617.8</ele>
        <time>2013-11-16T12:23:20.000Z</time>
      </trkpt>
      <trkpt lat="42.98729" lon="2.05365">
        <ele>615.4</ele>
        <time>2013-11-16T12:23:21.000Z</time>
      </trkpt>
      <trkpt lat="42.98727" lon="2.05359">
        <ele>614.9</ele>
        <time>2013-11-16T12:23:22.000Z</time>
      </trkpt>
      <trkpt lat="42.98725" lon="2.05354">
        <ele>615.4</ele>
        <time>2013-11-16T12:23:23.000Z</time>
      </trkpt>
      <trkpt lat="42.98723" lon="2.05335">
        <ele>613</ele>
        <time>2013-11-16T12:23:27.000Z</time>
      </trkpt>
      <trkpt lat="42.98724" lon="2.05317">
        <ele>610.1</ele>
        <time>2013-11-16T12:23:36.000Z</time>
      </trkpt>
      <trkpt lat="42.98724" lon="2.05317">
        <ele>613.5</ele>
        <time>2013-11-16T12:23:39.000Z</time>
      </trkpt>
      <trkpt lat="42.98724" lon="2.05317">
        <ele>611.5</ele>
        <time>2013-11-16T12:23:51.000Z</time>
      </trkpt>
      <trkpt lat="42.98721" lon="2.05313">
        <ele>612.5</ele>
        <time>2013-11-16T12:24:01.000Z</time>
      </trkpt>
      <trkpt lat="42.98694" lon="2.05292">
        <ele>609.6</ele>
        <time>2013-11-16T12:24:10.000Z</time>
      </trkpt>
      <trkpt lat="42.98691" lon="2.05288">
        <ele>609.1</ele>
        <time>2013-11-16T12:24:11.000Z</time>
      </trkpt>
      <trkpt lat="42.98687" lon="2.05283">
        <ele>610.6</ele>
        <time>2013-11-16T12:24:12.000Z</time>
      </trkpt>
      <trkpt lat="42.98683" lon="2.05277">
        <ele>608.2</ele>
        <time>2013-11-16T12:24:13.000Z</time>
      </trkpt>
      <trkpt lat="42.98678" lon="2.05265">
        <ele>609.6</ele>
        <time>2013-11-16T12:24:15.000Z</time>
      </trkpt>
      <trkpt lat="42.9867" lon="2.05244">
        <ele>608.7</ele>
        <time>2013-11-16T12:24:19.000Z</time>
      </trkpt>
      <trkpt lat="42.98668" lon="2.05239">
        <ele>609.1</ele>
        <time>2013-11-16T12:24:20.000Z</time>
      </trkpt>
      <trkpt lat="42.98666" lon="2.05233">
        <ele>608.7</ele>
        <time>2013-11-16T12:24:21.000Z</time>
      </trkpt>
      <trkpt lat="42.98653" lon="2.05176">
        <ele>604.8</ele>
        <time>2013-11-16T12:24:30.000Z</time>
      </trkpt>
      <trkpt lat="42.98647" lon="2.05157">
        <ele>605.3</ele>
        <time>2013-11-16T12:24:32.000Z</time>
      </trkpt>
      <trkpt lat="42.98643" lon="2.05148">
        <ele>604.8</ele>
        <time>2013-11-16T12:24:33.000Z</time>
      </trkpt>
      <trkpt lat="42.98639" lon="2.05138">
        <ele>602.4</ele>
        <time>2013-11-16T12:24:34.000Z</time>
      </trkpt>
      <trkpt lat="42.98635" lon="2.05129">
        <ele>601.4</ele>
        <time>2013-11-16T12:24:35.000Z</time>
      </trkpt>
      <trkpt lat="42.98631" lon="2.05119">
        <ele>601.9</ele>
        <time>2013-11-16T12:24:36.000Z</time>
      </trkpt>
      <trkpt lat="42.98626" lon="2.05103">
        <ele>599.5</ele>
        <time>2013-11-16T12:24:38.000Z</time>
      </trkpt>
      <trkpt lat="42.98624" lon="2.05096">
        <ele>600.5</ele>
        <time>2013-11-16T12:24:39.000Z</time>
      </trkpt>
      <trkpt lat="42.98621" lon="2.0508">
        <ele>599.5</ele>
        <time>2013-11-16T12:24:42.000Z</time>
      </trkpt>
      <trkpt lat="42.98619" lon="2.05072">
        <ele>597.6</ele>
        <time>2013-11-16T12:24:44.000Z</time>
      </trkpt>
      <trkpt lat="42.98618" lon="2.05068">
        <ele>599</ele>
        <time>2013-11-16T12:24:45.000Z</time>
      </trkpt>
      <trkpt lat="42.98613" lon="2.0503">
        <ele>600</ele>
        <time>2013-11-16T12:24:56.000Z</time>
      </trkpt>
      <trkpt lat="42.986" lon="2.04995">
        <ele>599</ele>
        <time>2013-11-16T12:25:05.000Z</time>
      </trkpt>
      <trkpt lat="42.98596" lon="2.0498">
        <ele>600</ele>
        <time>2013-11-16T12:25:09.000Z</time>
      </trkpt>
      <trkpt lat="42.98587" lon="2.04949">
        <ele>597.1</ele>
        <time>2013-11-16T12:25:18.000Z</time>
      </trkpt>
      <trkpt lat="42.98585" lon="2.04938">
        <ele>598.1</ele>
        <time>2013-11-16T12:25:21.000Z</time>
      </trkpt>
      <trkpt lat="42.98584" lon="2.04933">
        <ele>599</ele>
        <time>2013-11-16T12:25:22.000Z</time>
      </trkpt>
      <trkpt lat="42.98582" lon="2.04929">
        <ele>595.2</ele>
        <time>2013-11-16T12:25:23.000Z</time>
      </trkpt>
      <trkpt lat="42.9858" lon="2.04924">
        <ele>596.6</ele>
        <time>2013-11-16T12:25:24.000Z</time>
      </trkpt>
      <trkpt lat="42.98568" lon="2.04906">
        <ele>593.3</ele>
        <time>2013-11-16T12:25:28.000Z</time>
      </trkpt>
      <trkpt lat="42.98566" lon="2.04902">
        <ele>593.3</ele>
        <time>2013-11-16T12:25:29.000Z</time>
      </trkpt>
      <trkpt lat="42.98563" lon="2.04897">
        <ele>591.8</ele>
        <time>2013-11-16T12:25:30.000Z</time>
      </trkpt>
      <trkpt lat="42.98559" lon="2.04892">
        <ele>591.8</ele>
        <time>2013-11-16T12:25:31.000Z</time>
      </trkpt>
      <trkpt lat="42.98556" lon="2.04887">
        <ele>591.8</ele>
        <time>2013-11-16T12:25:32.000Z</time>
      </trkpt>
      <trkpt lat="42.98552" lon="2.04882">
        <ele>589.9</ele>
        <time>2013-11-16T12:25:33.000Z</time>
      </trkpt>
      <trkpt lat="42.98546" lon="2.04873">
        <ele>589.9</ele>
        <time>2013-11-16T12:25:35.000Z</time>
      </trkpt>
      <trkpt lat="42.98543" lon="2.04867">
        <ele>589.4</ele>
        <time>2013-11-16T12:25:37.000Z</time>
      </trkpt>
      <trkpt lat="42.98534" lon="2.0486">
        <ele>587.5</ele>
        <time>2013-11-16T12:25:44.000Z</time>
      </trkpt>
      <trkpt lat="42.98534" lon="2.0486">
        <ele>589.4</ele>
        <time>2013-11-16T12:25:55.000Z</time>
      </trkpt>
      <trkpt lat="42.98534" lon="2.0486">
        <ele>588.5</ele>
        <time>2013-11-16T12:25:57.000Z</time>
      </trkpt>
      <trkpt lat="42.98534" lon="2.0486">
        <ele>589</ele>
        <time>2013-11-16T12:26:00.000Z</time>
      </trkpt>
      <trkpt lat="42.98534" lon="2.0486">
        <ele>587.5</ele>
        <time>2013-11-16T12:26:03.000Z</time>
      </trkpt>
      <trkpt lat="42.98532" lon="2.04847">
        <ele>587</ele>
        <time>2013-11-16T12:26:21.000Z</time>
      </trkpt>
      <trkpt lat="42.98531" lon="2.04845">
        <ele>588</ele>
        <time>2013-11-16T12:26:22.000Z</time>
      </trkpt>
      <trkpt lat="42.9853" lon="2.04824">
        <ele>586.1</ele>
        <time>2013-11-16T12:26:29.000Z</time>
      </trkpt>
      <trkpt lat="42.98527" lon="2.04803">
        <ele>584.6</ele>
        <time>2013-11-16T12:26:41.000Z</time>
      </trkpt>
      <trkpt lat="42.98515" lon="2.04767">
        <ele>585.6</ele>
        <time>2013-11-16T12:26:51.000Z</time>
      </trkpt>
      <trkpt lat="42.98508" lon="2.04748">
        <ele>585.1</ele>
        <time>2013-11-16T12:26:57.000Z</time>
      </trkpt>
      <trkpt lat="42.98481" lon="2.04711">
        <ele>587</ele>
        <time>2013-11-16T12:27:06.000Z</time>
      </trkpt>
      <trkpt lat="42.98463" lon="2.04686">
        <ele>587</ele>
        <time>2013-11-16T12:27:17.000Z</time>
      </trkpt>
      <trkpt lat="42.98453" lon="2.04672">
        <ele>585.1</ele>
        <time>2013-11-16T12:27:27.000Z</time>
      </trkpt>
      <trkpt lat="42.98435" lon="2.04656">
        <ele>581.3</ele>
        <time>2013-11-16T12:27:33.000Z</time>
      </trkpt>
      <trkpt lat="42.98433" lon="2.04654">
        <ele>581.7</ele>
        <time>2013-11-16T12:27:34.000Z</time>
      </trkpt>
      <trkpt lat="42.98431" lon="2.04651">
        <ele>580.8</ele>
        <time>2013-11-16T12:27:35.000Z</time>
      </trkpt>
      <trkpt lat="42.98425" lon="2.04644">
        <ele>579.3</ele>
        <time>2013-11-16T12:27:38.000Z</time>
      </trkpt>
      <trkpt lat="42.98417" lon="2.04638">
        <ele>577.9</ele>
        <time>2013-11-16T12:27:41.000Z</time>
      </trkpt>
      <trkpt lat="42.98414" lon="2.04635">
        <ele>576.9</ele>
        <time>2013-11-16T12:27:42.000Z</time>
      </trkpt>
      <trkpt lat="42.98411" lon="2.04628">
        <ele>575.5</ele>
        <time>2013-11-16T12:27:44.000Z</time>
      </trkpt>
      <trkpt lat="42.98402" lon="2.04607">
        <ele>572.1</ele>
        <time>2013-11-16T12:27:54.000Z</time>
      </trkpt>
      <trkpt lat="42.98401" lon="2.04605">
        <ele>572.6</ele>
        <time>2013-11-16T12:27:55.000Z</time>
      </trkpt>
      <trkpt lat="42.98399" lon="2.04602">
        <ele>573.6</ele>
        <time>2013-11-16T12:27:57.000Z</time>
      </trkpt>
      <trkpt lat="42.98397" lon="2.04599">
        <ele>572.6</ele>
        <time>2013-11-16T12:27:59.000Z</time>
      </trkpt>
      <trkpt lat="42.98386" lon="2.04576">
        <ele>573.1</ele>
        <time>2013-11-16T12:28:09.000Z</time>
      </trkpt>
      <trkpt lat="42.98378" lon="2.04562">
        <ele>572.6</ele>
        <time>2013-11-16T12:28:14.000Z</time>
      </trkpt>
      <trkpt lat="42.98366" lon="2.04541">
        <ele>574.5</ele>
        <time>2013-11-16T12:28:23.000Z</time>
      </trkpt>
      <trkpt lat="42.98352" lon="2.04517">
        <ele>576.9</ele>
        <time>2013-11-16T12:28:34.000Z</time>
      </trkpt>
      <trkpt lat="42.98345" lon="2.04508">
        <ele>574</ele>
        <time>2013-11-16T12:28:38.000Z</time>
      </trkpt>
      <trkpt lat="42.98342" lon="2.04502">
        <ele>577.4</ele>
        <time>2013-11-16T12:28:40.000Z</time>
      </trkpt>
      <trkpt lat="42.98331" lon="2.04486">
        <ele>573.1</ele>
        <time>2013-11-16T12:28:46.000Z</time>
      </trkpt>
      <trkpt lat="42.9833" lon="2.04484">
        <ele>573.6</ele>
        <time>2013-11-16T12:28:47.000Z</time>
      </trkpt>
      <trkpt lat="42.98314" lon="2.04457">
        <ele>571.2</ele>
        <time>2013-11-16T12:28:57.000Z</time>
      </trkpt>
      <trkpt lat="42.9831" lon="2.0445">
        <ele>571.6</ele>
        <time>2013-11-16T12:28:59.000Z</time>
      </trkpt>
      <trkpt lat="42.98307" lon="2.04446">
        <ele>570.7</ele>
        <time>2013-11-16T12:29:00.000Z</time>
      </trkpt>
      <trkpt lat="42.98305" lon="2.04443">
        <ele>571.6</ele>
        <time>2013-11-16T12:29:01.000Z</time>
      </trkpt>
      <trkpt lat="42.98303" lon="2.0444">
        <ele>570.7</ele>
        <time>2013-11-16T12:29:02.000Z</time>
      </trkpt>
      <trkpt lat="42.98301" lon="2.04438">
        <ele>571.2</ele>
        <time>2013-11-16T12:29:03.000Z</time>
      </trkpt>
      <trkpt lat="42.98298" lon="2.04435">
        <ele>570.2</ele>
        <time>2013-11-16T12:29:04.000Z</time>
      </trkpt>
      <trkpt lat="42.98295" lon="2.04431">
        <ele>570.2</ele>
        <time>2013-11-16T12:29:05.000Z</time>
      </trkpt>
      <trkpt lat="42.98293" lon="2.04428">
        <ele>569.7</ele>
        <time>2013-11-16T12:29:06.000Z</time>
      </trkpt>
      <trkpt lat="42.9826" lon="2.04396">
        <ele>566.8</ele>
        <time>2013-11-16T12:29:15.000Z</time>
      </trkpt>
      <trkpt lat="42.98256" lon="2.04392">
        <ele>567.3</ele>
        <time>2013-11-16T12:29:16.000Z</time>
      </trkpt>
      <trkpt lat="42.98239" lon="2.04376">
        <ele>565.9</ele>
        <time>2013-11-16T12:29:20.000Z</time>
      </trkpt>
      <trkpt lat="42.98221" lon="2.04351">
        <ele>564.4</ele>
        <time>2013-11-16T12:29:30.000Z</time>
      </trkpt>
      <trkpt lat="42.98204" lon="2.04323">
        <ele>563.5</ele>
        <time>2013-11-16T12:29:41.000Z</time>
      </trkpt>
      <trkpt lat="42.98193" lon="2.04304">
        <ele>563</ele>
        <time>2013-11-16T12:29:49.000Z</time>
      </trkpt>
      <trkpt lat="42.98191" lon="2.04302">
        <ele>563</ele>
        <time>2013-11-16T12:29:50.000Z</time>
      </trkpt>
      <trkpt lat="42.9819" lon="2.043">
        <ele>564</ele>
        <time>2013-11-16T12:29:51.000Z</time>
      </trkpt>
      <trkpt lat="42.98188" lon="2.04298">
        <ele>562</ele>
        <time>2013-11-16T12:29:52.000Z</time>
      </trkpt>
      <trkpt lat="42.98187" lon="2.04297">
        <ele>562</ele>
        <time>2013-11-16T12:29:53.000Z</time>
      </trkpt>
      <trkpt lat="42.98186" lon="2.04295">
        <ele>563</ele>
        <time>2013-11-16T12:29:54.000Z</time>
      </trkpt>
      <trkpt lat="42.98186" lon="2.04293">
        <ele>562</ele>
        <time>2013-11-16T12:29:55.000Z</time>
      </trkpt>
      <trkpt lat="42.98185" lon="2.04292">
        <ele>561.1</ele>
        <time>2013-11-16T12:29:59.000Z</time>
      </trkpt>
      <trkpt lat="42.98179" lon="2.04282">
        <ele>563.5</ele>
        <time>2013-11-16T12:30:13.000Z</time>
      </trkpt>
      <trkpt lat="42.98178" lon="2.04281">
        <ele>561.6</ele>
        <time>2013-11-16T12:30:14.000Z</time>
      </trkpt>
      <trkpt lat="42.98175" lon="2.04277">
        <ele>563</ele>
        <time>2013-11-16T12:30:18.000Z</time>
      </trkpt>
      <trkpt lat="42.98173" lon="2.04272">
        <ele>564</ele>
        <time>2013-11-16T12:30:26.000Z</time>
      </trkpt>
      <trkpt lat="42.98165" lon="2.04259">
        <ele>563</ele>
        <time>2013-11-16T12:30:36.000Z</time>
      </trkpt>
      <trkpt lat="42.9815" lon="2.04229">
        <ele>559.6</ele>
        <time>2013-11-16T12:30:45.000Z</time>
      </trkpt>
      <trkpt lat="42.98135" lon="2.04199">
        <ele>556.7</ele>
        <time>2013-11-16T12:30:53.000Z</time>
      </trkpt>
      <trkpt lat="42.98134" lon="2.04195">
        <ele>556.7</ele>
        <time>2013-11-16T12:30:54.000Z</time>
      </trkpt>
      <trkpt lat="42.98129" lon="2.04179">
        <ele>556.7</ele>
        <time>2013-11-16T12:30:58.000Z</time>
      </trkpt>
      <trkpt lat="42.98125" lon="2.04149">
        <ele>552.9</ele>
        <time>2013-11-16T12:31:03.000Z</time>
      </trkpt>
      <trkpt lat="42.98123" lon="2.04136">
        <ele>553.9</ele>
        <time>2013-11-16T12:31:08.000Z</time>
      </trkpt>
      <trkpt lat="42.98122" lon="2.04132">
        <ele>551.9</ele>
        <time>2013-11-16T12:31:12.000Z</time>
      </trkpt>
      <trkpt lat="42.98122" lon="2.04131">
        <ele>555.8</ele>
        <time>2013-11-16T12:31:14.000Z</time>
      </trkpt>
      <trkpt lat="42.98121" lon="2.0413">
        <ele>552.4</ele>
        <time>2013-11-16T12:31:18.000Z</time>
      </trkpt>
      <trkpt lat="42.9812" lon="2.04118">
        <ele>551.9</ele>
        <time>2013-11-16T12:31:27.000Z</time>
      </trkpt>
      <trkpt lat="42.98119" lon="2.04113">
        <ele>555.8</ele>
        <time>2013-11-16T12:31:29.000Z</time>
      </trkpt>
      <trkpt lat="42.98118" lon="2.04102">
        <ele>553.9</ele>
        <time>2013-11-16T12:31:32.000Z</time>
      </trkpt>
      <trkpt lat="42.98113" lon="2.04074">
        <ele>557.2</ele>
        <time>2013-11-16T12:31:41.000Z</time>
      </trkpt>
      <trkpt lat="42.98105" lon="2.0406">
        <ele>556.3</ele>
        <time>2013-11-16T12:31:55.000Z</time>
      </trkpt>
      <trkpt lat="42.98104" lon="2.04058">
        <ele>556.7</ele>
        <time>2013-11-16T12:32:07.000Z</time>
      </trkpt>
      <trkpt lat="42.98103" lon="2.04056">
        <ele>558.2</ele>
        <time>2013-11-16T12:32:08.000Z</time>
      </trkpt>
      <trkpt lat="42.98102" lon="2.04054">
        <ele>558.7</ele>
        <time>2013-11-16T12:32:09.000Z</time>
      </trkpt>
      <trkpt lat="42.98102" lon="2.04051">
        <ele>556.7</ele>
        <time>2013-11-16T12:32:10.000Z</time>
      </trkpt>
      <trkpt lat="42.98102" lon="2.04049">
        <ele>556.3</ele>
        <time>2013-11-16T12:32:11.000Z</time>
      </trkpt>
      <trkpt lat="42.98102" lon="2.04046">
        <ele>556.7</ele>
        <time>2013-11-16T12:32:12.000Z</time>
      </trkpt>
      <trkpt lat="42.98099" lon="2.04006">
        <ele>553.4</ele>
        <time>2013-11-16T12:32:21.000Z</time>
      </trkpt>
      <trkpt lat="42.98099" lon="2.03997">
        <ele>552.4</ele>
        <time>2013-11-16T12:32:23.000Z</time>
      </trkpt>
      <trkpt lat="42.98101" lon="2.0398">
        <ele>551</ele>
        <time>2013-11-16T12:32:27.000Z</time>
      </trkpt>
      <trkpt lat="42.98103" lon="2.03975">
        <ele>550</ele>
        <time>2013-11-16T12:32:28.000Z</time>
      </trkpt>
      <trkpt lat="42.98104" lon="2.03971">
        <ele>550.5</ele>
        <time>2013-11-16T12:32:29.000Z</time>
      </trkpt>
      <trkpt lat="42.98107" lon="2.03967">
        <ele>550.5</ele>
        <time>2013-11-16T12:32:30.000Z</time>
      </trkpt>
      <trkpt lat="42.98109" lon="2.03963">
        <ele>549.5</ele>
        <time>2013-11-16T12:32:31.000Z</time>
      </trkpt>
      <trkpt lat="42.98112" lon="2.0396">
        <ele>548.1</ele>
        <time>2013-11-16T12:32:32.000Z</time>
      </trkpt>
      <trkpt lat="42.98114" lon="2.03957">
        <ele>546.7</ele>
        <time>2013-11-16T12:32:33.000Z</time>
      </trkpt>
      <trkpt lat="42.98117" lon="2.03953">
        <ele>546.2</ele>
        <time>2013-11-16T12:32:34.000Z</time>
      </trkpt>
      <trkpt lat="42.98119" lon="2.0395">
        <ele>547.1</ele>
        <time>2013-11-16T12:32:35.000Z</time>
      </trkpt>
      <trkpt lat="42.98121" lon="2.03947">
        <ele>546.7</ele>
        <time>2013-11-16T12:32:36.000Z</time>
      </trkpt>
      <trkpt lat="42.98123" lon="2.03944">
        <ele>544.7</ele>
        <time>2013-11-16T12:32:37.000Z</time>
      </trkpt>
      <trkpt lat="42.98124" lon="2.03941">
        <ele>544.2</ele>
        <time>2013-11-16T12:32:38.000Z</time>
      </trkpt>
      <trkpt lat="42.98126" lon="2.03939">
        <ele>544.2</ele>
        <time>2013-11-16T12:32:39.000Z</time>
      </trkpt>
      <trkpt lat="42.98127" lon="2.03937">
        <ele>543.8</ele>
        <time>2013-11-16T12:32:40.000Z</time>
      </trkpt>
      <trkpt lat="42.98128" lon="2.03934">
        <ele>544.2</ele>
        <time>2013-11-16T12:32:41.000Z</time>
      </trkpt>
      <trkpt lat="42.9813" lon="2.03931">
        <ele>542.8</ele>
        <time>2013-11-16T12:32:42.000Z</time>
      </trkpt>
      <trkpt lat="42.98132" lon="2.03926">
        <ele>541.4</ele>
        <time>2013-11-16T12:32:43.000Z</time>
      </trkpt>
      <trkpt lat="42.98134" lon="2.03921">
        <ele>539.9</ele>
        <time>2013-11-16T12:32:44.000Z</time>
      </trkpt>
      <trkpt lat="42.98142" lon="2.03896">
        <ele>535.6</ele>
        <time>2013-11-16T12:32:49.000Z</time>
      </trkpt>
      <trkpt lat="42.98142" lon="2.03891">
        <ele>535.6</ele>
        <time>2013-11-16T12:32:50.000Z</time>
      </trkpt>
      <trkpt lat="42.98143" lon="2.03885">
        <ele>536.1</ele>
        <time>2013-11-16T12:32:52.000Z</time>
      </trkpt>
      <trkpt lat="42.98145" lon="2.03883">
        <ele>534.6</ele>
        <time>2013-11-16T12:32:53.000Z</time>
      </trkpt>
      <trkpt lat="42.98155" lon="2.03871">
        <ele>533.2</ele>
        <time>2013-11-16T12:32:58.000Z</time>
      </trkpt>
      <trkpt lat="42.98154" lon="2.03866">
        <ele>531.8</ele>
        <time>2013-11-16T12:33:00.000Z</time>
      </trkpt>
      <trkpt lat="42.98139" lon="2.03858">
        <ele>527.9</ele>
        <time>2013-11-16T12:33:08.000Z</time>
      </trkpt>
      <trkpt lat="42.98137" lon="2.03844">
        <ele>526.5</ele>
        <time>2013-11-16T12:33:13.000Z</time>
      </trkpt>
      <trkpt lat="42.98141" lon="2.03837">
        <ele>525</ele>
        <time>2013-11-16T12:33:16.000Z</time>
      </trkpt>
      <trkpt lat="42.98143" lon="2.03829">
        <ele>522.1</ele>
        <time>2013-11-16T12:33:19.000Z</time>
      </trkpt>
      <trkpt lat="42.98144" lon="2.03819">
        <ele>521.7</ele>
        <time>2013-11-16T12:33:21.000Z</time>
      </trkpt>
      <trkpt lat="42.98151" lon="2.038">
        <ele>516.9</ele>
        <time>2013-11-16T12:33:26.000Z</time>
      </trkpt>
      <trkpt lat="42.98154" lon="2.03791">
        <ele>516.4</ele>
        <time>2013-11-16T12:33:28.000Z</time>
      </trkpt>
      <trkpt lat="42.98157" lon="2.03786">
        <ele>516.9</ele>
        <time>2013-11-16T12:33:29.000Z</time>
      </trkpt>
      <trkpt lat="42.9816" lon="2.03781">
        <ele>515.4</ele>
        <time>2013-11-16T12:33:30.000Z</time>
      </trkpt>
      <trkpt lat="42.98163" lon="2.03776">
        <ele>515.4</ele>
        <time>2013-11-16T12:33:31.000Z</time>
      </trkpt>
      <trkpt lat="42.98165" lon="2.0377">
        <ele>515.9</ele>
        <time>2013-11-16T12:33:32.000Z</time>
      </trkpt>
      <trkpt lat="42.98166" lon="2.03763">
        <ele>514.9</ele>
        <time>2013-11-16T12:33:33.000Z</time>
      </trkpt>
      <trkpt lat="42.98168" lon="2.03757">
        <ele>514</ele>
        <time>2013-11-16T12:33:34.000Z</time>
      </trkpt>
      <trkpt lat="42.98171" lon="2.03752">
        <ele>513</ele>
        <time>2013-11-16T12:33:35.000Z</time>
      </trkpt>
      <trkpt lat="42.98175" lon="2.03748">
        <ele>512.5</ele>
        <time>2013-11-16T12:33:36.000Z</time>
      </trkpt>
      <trkpt lat="42.98181" lon="2.03739">
        <ele>510.1</ele>
        <time>2013-11-16T12:33:38.000Z</time>
      </trkpt>
      <trkpt lat="42.98183" lon="2.03733">
        <ele>510.6</ele>
        <time>2013-11-16T12:33:39.000Z</time>
      </trkpt>
      <trkpt lat="42.98185" lon="2.0372">
        <ele>510.1</ele>
        <time>2013-11-16T12:33:41.000Z</time>
      </trkpt>
      <trkpt lat="42.98187" lon="2.03712">
        <ele>509.2</ele>
        <time>2013-11-16T12:33:42.000Z</time>
      </trkpt>
      <trkpt lat="42.98188" lon="2.03702">
        <ele>506.8</ele>
        <time>2013-11-16T12:33:43.000Z</time>
      </trkpt>
      <trkpt lat="42.98189" lon="2.03695">
        <ele>506.8</ele>
        <time>2013-11-16T12:33:44.000Z</time>
      </trkpt>
      <trkpt lat="42.98191" lon="2.03688">
        <ele>505.3</ele>
        <time>2013-11-16T12:33:45.000Z</time>
      </trkpt>
      <trkpt lat="42.98193" lon="2.03681">
        <ele>506.8</ele>
        <time>2013-11-16T12:33:46.000Z</time>
      </trkpt>
      <trkpt lat="42.98197" lon="2.03675">
        <ele>505.8</ele>
        <time>2013-11-16T12:33:47.000Z</time>
      </trkpt>
      <trkpt lat="42.982" lon="2.03669">
        <ele>502.9</ele>
        <time>2013-11-16T12:33:48.000Z</time>
      </trkpt>
      <trkpt lat="42.98204" lon="2.03663">
        <ele>502.4</ele>
        <time>2013-11-16T12:33:49.000Z</time>
      </trkpt>
      <trkpt lat="42.98207" lon="2.03657">
        <ele>501</ele>
        <time>2013-11-16T12:33:50.000Z</time>
      </trkpt>
      <trkpt lat="42.98218" lon="2.03637">
        <ele>498.1</ele>
        <time>2013-11-16T12:33:53.000Z</time>
      </trkpt>
      <trkpt lat="42.98222" lon="2.03631">
        <ele>497.6</ele>
        <time>2013-11-16T12:33:54.000Z</time>
      </trkpt>
      <trkpt lat="42.98225" lon="2.03625">
        <ele>496.7</ele>
        <time>2013-11-16T12:33:55.000Z</time>
      </trkpt>
      <trkpt lat="42.98233" lon="2.03614">
        <ele>495.2</ele>
        <time>2013-11-16T12:33:57.000Z</time>
      </trkpt>
      <trkpt lat="42.98244" lon="2.03598">
        <ele>491.9</ele>
        <time>2013-11-16T12:34:00.000Z</time>
      </trkpt>
      <trkpt lat="42.98257" lon="2.03583">
        <ele>488.5</ele>
        <time>2013-11-16T12:34:04.000Z</time>
      </trkpt>
      <trkpt lat="42.98261" lon="2.03579">
        <ele>489</ele>
        <time>2013-11-16T12:34:05.000Z</time>
      </trkpt>
      <trkpt lat="42.98267" lon="2.03571">
        <ele>487.1</ele>
        <time>2013-11-16T12:34:07.000Z</time>
      </trkpt>
      <trkpt lat="42.98271" lon="2.03568">
        <ele>487.1</ele>
        <time>2013-11-16T12:34:08.000Z</time>
      </trkpt>
      <trkpt lat="42.98276" lon="2.03566">
        <ele>484.6</ele>
        <time>2013-11-16T12:34:09.000Z</time>
      </trkpt>
      <trkpt lat="42.9828" lon="2.03565">
        <ele>483.7</ele>
        <time>2013-11-16T12:34:10.000Z</time>
      </trkpt>
      <trkpt lat="42.98284" lon="2.03563">
        <ele>484.2</ele>
        <time>2013-11-16T12:34:11.000Z</time>
      </trkpt>
      <trkpt lat="42.98288" lon="2.0356">
        <ele>482.7</ele>
        <time>2013-11-16T12:34:12.000Z</time>
      </trkpt>
      <trkpt lat="42.98291" lon="2.03556">
        <ele>484.2</ele>
        <time>2013-11-16T12:34:13.000Z</time>
      </trkpt>
      <trkpt lat="42.98294" lon="2.03552">
        <ele>482.2</ele>
        <time>2013-11-16T12:34:14.000Z</time>
      </trkpt>
      <trkpt lat="42.98295" lon="2.03548">
        <ele>482.2</ele>
        <time>2013-11-16T12:34:15.000Z</time>
      </trkpt>
      <trkpt lat="42.98297" lon="2.03544">
        <ele>481.8</ele>
        <time>2013-11-16T12:34:16.000Z</time>
      </trkpt>
      <trkpt lat="42.983" lon="2.03542">
        <ele>481.3</ele>
        <time>2013-11-16T12:34:17.000Z</time>
      </trkpt>
      <trkpt lat="42.98303" lon="2.0354">
        <ele>480.8</ele>
        <time>2013-11-16T12:34:18.000Z</time>
      </trkpt>
      <trkpt lat="42.98317" lon="2.03528">
        <ele>477</ele>
        <time>2013-11-16T12:34:22.000Z</time>
      </trkpt>
      <trkpt lat="42.98321" lon="2.03524">
        <ele>477</ele>
        <time>2013-11-16T12:34:23.000Z</time>
      </trkpt>
      <trkpt lat="42.98325" lon="2.0352">
        <ele>475</ele>
        <time>2013-11-16T12:34:24.000Z</time>
      </trkpt>
      <trkpt lat="42.98337" lon="2.03508">
        <ele>473.1</ele>
        <time>2013-11-16T12:34:27.000Z</time>
      </trkpt>
      <trkpt lat="42.9834" lon="2.03503">
        <ele>473.1</ele>
        <time>2013-11-16T12:34:28.000Z</time>
      </trkpt>
      <trkpt lat="42.98343" lon="2.03498">
        <ele>471.2</ele>
        <time>2013-11-16T12:34:29.000Z</time>
      </trkpt>
      <trkpt lat="42.98345" lon="2.03493">
        <ele>471.7</ele>
        <time>2013-11-16T12:34:30.000Z</time>
      </trkpt>
      <trkpt lat="42.98347" lon="2.03483">
        <ele>470.2</ele>
        <time>2013-11-16T12:34:32.000Z</time>
      </trkpt>
      <trkpt lat="42.98351" lon="2.03472">
        <ele>468.3</ele>
        <time>2013-11-16T12:34:34.000Z</time>
      </trkpt>
      <trkpt lat="42.98354" lon="2.03467">
        <ele>465.9</ele>
        <time>2013-11-16T12:34:35.000Z</time>
      </trkpt>
      <trkpt lat="42.9836" lon="2.03456">
        <ele>465.9</ele>
        <time>2013-11-16T12:34:37.000Z</time>
      </trkpt>
      <trkpt lat="42.98363" lon="2.0345">
        <ele>465.4</ele>
        <time>2013-11-16T12:34:38.000Z</time>
      </trkpt>
      <trkpt lat="42.98365" lon="2.03443">
        <ele>465.9</ele>
        <time>2013-11-16T12:34:39.000Z</time>
      </trkpt>
      <trkpt lat="42.98368" lon="2.03437">
        <ele>463.5</ele>
        <time>2013-11-16T12:34:40.000Z</time>
      </trkpt>
      <trkpt lat="42.9837" lon="2.0343">
        <ele>462.5</ele>
        <time>2013-11-16T12:34:41.000Z</time>
      </trkpt>
      <trkpt lat="42.98378" lon="2.03412">
        <ele>460.6</ele>
        <time>2013-11-16T12:34:44.000Z</time>
      </trkpt>
      <trkpt lat="42.98387" lon="2.03388">
        <ele>456.8</ele>
        <time>2013-11-16T12:34:48.000Z</time>
      </trkpt>
      <trkpt lat="42.98394" lon="2.03365">
        <ele>453.4</ele>
        <time>2013-11-16T12:34:52.000Z</time>
      </trkpt>
      <trkpt lat="42.98396" lon="2.0336">
        <ele>451</ele>
        <time>2013-11-16T12:34:53.000Z</time>
      </trkpt>
      <trkpt lat="42.98398" lon="2.03355">
        <ele>450</ele>
        <time>2013-11-16T12:34:54.000Z</time>
      </trkpt>
      <trkpt lat="42.98403" lon="2.03346">
        <ele>449.1</ele>
        <time>2013-11-16T12:34:56.000Z</time>
      </trkpt>
      <trkpt lat="42.98407" lon="2.03338">
        <ele>447.6</ele>
        <time>2013-11-16T12:34:58.000Z</time>
      </trkpt>
      <trkpt lat="42.98408" lon="2.03329">
        <ele>447.2</ele>
        <time>2013-11-16T12:35:00.000Z</time>
      </trkpt>
      <trkpt lat="42.98405" lon="2.03313">
        <ele>443.8</ele>
        <time>2013-11-16T12:35:03.000Z</time>
      </trkpt>
      <trkpt lat="42.98404" lon="2.03308">
        <ele>443.8</ele>
        <time>2013-11-16T12:35:04.000Z</time>
      </trkpt>
      <trkpt lat="42.98398" lon="2.03285">
        <ele>439.9</ele>
        <time>2013-11-16T12:35:09.000Z</time>
      </trkpt>
      <trkpt lat="42.98393" lon="2.03269">
        <ele>438</ele>
        <time>2013-11-16T12:35:12.000Z</time>
      </trkpt>
      <trkpt lat="42.98391" lon="2.03263">
        <ele>437.1</ele>
        <time>2013-11-16T12:35:13.000Z</time>
      </trkpt>
      <trkpt lat="42.9839" lon="2.03258">
        <ele>436.6</ele>
        <time>2013-11-16T12:35:14.000Z</time>
      </trkpt>
      <trkpt lat="42.98389" lon="2.03253">
        <ele>436.1</ele>
        <time>2013-11-16T12:35:15.000Z</time>
      </trkpt>
      <trkpt lat="42.98388" lon="2.03247">
        <ele>434.7</ele>
        <time>2013-11-16T12:35:16.000Z</time>
      </trkpt>
      <trkpt lat="42.98386" lon="2.03242">
        <ele>433.7</ele>
        <time>2013-11-16T12:35:17.000Z</time>
      </trkpt>
      <trkpt lat="42.98385" lon="2.03237">
        <ele>432.7</ele>
        <time>2013-11-16T12:35:18.000Z</time>
      </trkpt>
      <trkpt lat="42.98382" lon="2.03229">
        <ele>430.8</ele>
        <time>2013-11-16T12:35:20.000Z</time>
      </trkpt>
      <trkpt lat="42.98379" lon="2.03218">
        <ele>430.8</ele>
        <time>2013-11-16T12:35:22.000Z</time>
      </trkpt>
      <trkpt lat="42.98377" lon="2.03213">
        <ele>430.3</ele>
        <time>2013-11-16T12:35:23.000Z</time>
      </trkpt>
      <trkpt lat="42.98375" lon="2.03204">
        <ele>427.4</ele>
        <time>2013-11-16T12:35:25.000Z</time>
      </trkpt>
      <trkpt lat="42.98371" lon="2.03193">
        <ele>426.5</ele>
        <time>2013-11-16T12:35:27.000Z</time>
      </trkpt>
      <trkpt lat="42.98368" lon="2.03188">
        <ele>425</ele>
        <time>2013-11-16T12:35:28.000Z</time>
      </trkpt>
      <trkpt lat="42.98365" lon="2.03183">
        <ele>426</ele>
        <time>2013-11-16T12:35:29.000Z</time>
      </trkpt>
      <trkpt lat="42.98363" lon="2.03178">
        <ele>425.5</ele>
        <time>2013-11-16T12:35:30.000Z</time>
      </trkpt>
      <trkpt lat="42.98361" lon="2.03174">
        <ele>425.5</ele>
        <time>2013-11-16T12:35:31.000Z</time>
      </trkpt>
      <trkpt lat="42.9836" lon="2.0317">
        <ele>424.1</ele>
        <time>2013-11-16T12:35:32.000Z</time>
      </trkpt>
      <trkpt lat="42.98359" lon="2.03166">
        <ele>420.7</ele>
        <time>2013-11-16T12:35:33.000Z</time>
      </trkpt>
      <trkpt lat="42.98357" lon="2.03162">
        <ele>421.2</ele>
        <time>2013-11-16T12:35:34.000Z</time>
      </trkpt>
      <trkpt lat="42.98337" lon="2.03117">
        <ele>416.9</ele>
        <time>2013-11-16T12:35:43.000Z</time>
      </trkpt>
      <trkpt lat="42.98331" lon="2.03092">
        <ele>413</ele>
        <time>2013-11-16T12:35:48.000Z</time>
      </trkpt>
      <trkpt lat="42.98329" lon="2.03083">
        <ele>410.1</ele>
        <time>2013-11-16T12:35:50.000Z</time>
      </trkpt>
      <trkpt lat="42.98328" lon="2.03078">
        <ele>409.2</ele>
        <time>2013-11-16T12:35:52.000Z</time>
      </trkpt>
      <trkpt lat="42.98327" lon="2.03077">
        <ele>408.7</ele>
        <time>2013-11-16T12:36:06.000Z</time>
      </trkpt>
      <trkpt lat="42.98326" lon="2.03071">
        <ele>407.3</ele>
        <time>2013-11-16T12:36:16.000Z</time>
      </trkpt>
      <trkpt lat="42.98327" lon="2.03069">
        <ele>408.2</ele>
        <time>2013-11-16T12:36:17.000Z</time>
      </trkpt>
      <trkpt lat="42.98326" lon="2.03065">
        <ele>408.7</ele>
        <time>2013-11-16T12:36:27.000Z</time>
      </trkpt>
      <trkpt lat="42.98325" lon="2.03062">
        <ele>407.7</ele>
        <time>2013-11-16T12:36:28.000Z</time>
      </trkpt>
      <trkpt lat="42.98324" lon="2.0306">
        <ele>407.3</ele>
        <time>2013-11-16T12:36:29.000Z</time>
      </trkpt>
      <trkpt lat="42.98323" lon="2.03058">
        <ele>407.3</ele>
        <time>2013-11-16T12:36:30.000Z</time>
      </trkpt>
      <trkpt lat="42.98322" lon="2.03056">
        <ele>408.2</ele>
        <time>2013-11-16T12:36:31.000Z</time>
      </trkpt>
      <trkpt lat="42.98321" lon="2.03053">
        <ele>407.7</ele>
        <time>2013-11-16T12:36:33.000Z</time>
      </trkpt>
      <trkpt lat="42.98319" lon="2.03051">
        <ele>408.7</ele>
        <time>2013-11-16T12:36:34.000Z</time>
      </trkpt>
      <trkpt lat="42.98319" lon="2.03049">
        <ele>408.2</ele>
        <time>2013-11-16T12:36:35.000Z</time>
      </trkpt>
      <trkpt lat="42.98318" lon="2.03047">
        <ele>407.3</ele>
        <time>2013-11-16T12:36:36.000Z</time>
      </trkpt>
      <trkpt lat="42.98317" lon="2.03045">
        <ele>407.3</ele>
        <time>2013-11-16T12:36:37.000Z</time>
      </trkpt>
      <trkpt lat="42.98317" lon="2.03042">
        <ele>406.8</ele>
        <time>2013-11-16T12:36:38.000Z</time>
      </trkpt>
      <trkpt lat="42.98314" lon="2.0302">
        <ele>407.7</ele>
        <time>2013-11-16T12:36:46.000Z</time>
      </trkpt>
      <trkpt lat="42.98315" lon="2.03014">
        <ele>408.2</ele>
        <time>2013-11-16T12:36:49.000Z</time>
      </trkpt>
      <trkpt lat="42.98315" lon="2.03011">
        <ele>409.2</ele>
        <time>2013-11-16T12:36:50.000Z</time>
      </trkpt>
      <trkpt lat="42.98316" lon="2.03008">
        <ele>408.7</ele>
        <time>2013-11-16T12:36:51.000Z</time>
      </trkpt>
      <trkpt lat="42.98316" lon="2.03005">
        <ele>409.2</ele>
        <time>2013-11-16T12:36:52.000Z</time>
      </trkpt>
      <trkpt lat="42.98316" lon="2.03002">
        <ele>408.7</ele>
        <time>2013-11-16T12:36:53.000Z</time>
      </trkpt>
      <trkpt lat="42.98317" lon="2.02999">
        <ele>410.6</ele>
        <time>2013-11-16T12:36:54.000Z</time>
      </trkpt>
      <trkpt lat="42.98317" lon="2.02997">
        <ele>410.1</ele>
        <time>2013-11-16T12:36:55.000Z</time>
      </trkpt>
      <trkpt lat="42.98317" lon="2.02994">
        <ele>411.1</ele>
        <time>2013-11-16T12:36:56.000Z</time>
      </trkpt>
      <trkpt lat="42.98318" lon="2.02992">
        <ele>410.1</ele>
        <time>2013-11-16T12:36:57.000Z</time>
      </trkpt>
      <trkpt lat="42.98318" lon="2.02988">
        <ele>409.7</ele>
        <time>2013-11-16T12:36:58.000Z</time>
      </trkpt>
      <trkpt lat="42.98318" lon="2.02986">
        <ele>410.6</ele>
        <time>2013-11-16T12:36:59.000Z</time>
      </trkpt>
      <trkpt lat="42.98319" lon="2.02983">
        <ele>411.6</ele>
        <time>2013-11-16T12:37:00.000Z</time>
      </trkpt>
      <trkpt lat="42.9832" lon="2.02981">
        <ele>410.6</ele>
        <time>2013-11-16T12:37:01.000Z</time>
      </trkpt>
      <trkpt lat="42.9832" lon="2.02978">
        <ele>409.7</ele>
        <time>2013-11-16T12:37:02.000Z</time>
      </trkpt>
      <trkpt lat="42.9832" lon="2.02976">
        <ele>413</ele>
        <time>2013-11-16T12:37:03.000Z</time>
      </trkpt>
      <trkpt lat="42.9832" lon="2.02973">
        <ele>411.6</ele>
        <time>2013-11-16T12:37:04.000Z</time>
      </trkpt>
      <trkpt lat="42.98321" lon="2.0295">
        <ele>413</ele>
        <time>2013-11-16T12:37:14.000Z</time>
      </trkpt>
      <trkpt lat="42.98321" lon="2.02948">
        <ele>413</ele>
        <time>2013-11-16T12:37:15.000Z</time>
      </trkpt>
      <trkpt lat="42.9832" lon="2.02945">
        <ele>415.4</ele>
        <time>2013-11-16T12:37:16.000Z</time>
      </trkpt>
      <trkpt lat="42.9832" lon="2.02943">
        <ele>414</ele>
        <time>2013-11-16T12:37:17.000Z</time>
      </trkpt>
      <trkpt lat="42.9832" lon="2.02941">
        <ele>414.5</ele>
        <time>2013-11-16T12:37:18.000Z</time>
      </trkpt>
      <trkpt lat="42.98316" lon="2.02928">
        <ele>413.5</ele>
        <time>2013-11-16T12:37:24.000Z</time>
      </trkpt>
      <trkpt lat="42.98307" lon="2.02904">
        <ele>414.5</ele>
        <time>2013-11-16T12:37:32.000Z</time>
      </trkpt>
      <trkpt lat="42.98297" lon="2.02866">
        <ele>411.6</ele>
        <time>2013-11-16T12:37:43.000Z</time>
      </trkpt>
      <trkpt lat="42.98292" lon="2.02861">
        <ele>410.6</ele>
        <time>2013-11-16T12:37:45.000Z</time>
      </trkpt>
      <trkpt lat="42.98289" lon="2.0286">
        <ele>410.1</ele>
        <time>2013-11-16T12:37:46.000Z</time>
      </trkpt>
      <trkpt lat="42.98268" lon="2.02855">
        <ele>406.8</ele>
        <time>2013-11-16T12:37:52.000Z</time>
      </trkpt>
      <trkpt lat="42.98259" lon="2.02848">
        <ele>406.3</ele>
        <time>2013-11-16T12:37:58.000Z</time>
      </trkpt>
      <trkpt lat="42.98259" lon="2.02846">
        <ele>405.3</ele>
        <time>2013-11-16T12:37:59.000Z</time>
      </trkpt>
      <trkpt lat="42.98259" lon="2.02845">
        <ele>405.3</ele>
        <time>2013-11-16T12:38:00.000Z</time>
      </trkpt>
      <trkpt lat="42.98258" lon="2.02844">
        <ele>405.3</ele>
        <time>2013-11-16T12:38:11.000Z</time>
      </trkpt>
      <trkpt lat="42.98258" lon="2.02844">
        <ele>404.9</ele>
        <time>2013-11-16T12:38:16.000Z</time>
      </trkpt>
      <trkpt lat="42.98258" lon="2.02844">
        <ele>403.9</ele>
        <time>2013-11-16T12:38:27.000Z</time>
      </trkpt>
      <trkpt lat="42.98256" lon="2.02844">
        <ele>404.9</ele>
        <time>2013-11-16T12:38:37.000Z</time>
      </trkpt>
      <trkpt lat="42.98254" lon="2.02843">
        <ele>404.4</ele>
        <time>2013-11-16T12:38:38.000Z</time>
      </trkpt>
      <trkpt lat="42.98252" lon="2.02842">
        <ele>404.9</ele>
        <time>2013-11-16T12:38:39.000Z</time>
      </trkpt>
      <trkpt lat="42.9825" lon="2.02841">
        <ele>405.3</ele>
        <time>2013-11-16T12:38:40.000Z</time>
      </trkpt>
      <trkpt lat="42.98247" lon="2.0284">
        <ele>405.3</ele>
        <time>2013-11-16T12:38:41.000Z</time>
      </trkpt>
      <trkpt lat="42.98223" lon="2.02831">
        <ele>402.5</ele>
        <time>2013-11-16T12:38:49.000Z</time>
      </trkpt>
      <trkpt lat="42.98222" lon="2.02827">
        <ele>402.5</ele>
        <time>2013-11-16T12:38:50.000Z</time>
      </trkpt>
      <trkpt lat="42.98222" lon="2.02822">
        <ele>403.4</ele>
        <time>2013-11-16T12:38:51.000Z</time>
      </trkpt>
      <trkpt lat="42.98226" lon="2.02801">
        <ele>402.5</ele>
        <time>2013-11-16T12:38:55.000Z</time>
      </trkpt>
      <trkpt lat="42.98229" lon="2.02755">
        <ele>400.5</ele>
        <time>2013-11-16T12:39:04.000Z</time>
      </trkpt>
      <trkpt lat="42.98227" lon="2.02753">
        <ele>398.6</ele>
        <time>2013-11-16T12:39:05.000Z</time>
      </trkpt>
      <trkpt lat="42.98226" lon="2.0275">
        <ele>400.1</ele>
        <time>2013-11-16T12:39:06.000Z</time>
      </trkpt>
      <trkpt lat="42.98225" lon="2.02746">
        <ele>399.1</ele>
        <time>2013-11-16T12:39:07.000Z</time>
      </trkpt>
      <trkpt lat="42.98226" lon="2.02743">
        <ele>399.1</ele>
        <time>2013-11-16T12:39:08.000Z</time>
      </trkpt>
      <trkpt lat="42.98227" lon="2.0274">
        <ele>400.1</ele>
        <time>2013-11-16T12:39:09.000Z</time>
      </trkpt>
      <trkpt lat="42.98238" lon="2.02721">
        <ele>398.1</ele>
        <time>2013-11-16T12:39:14.000Z</time>
      </trkpt>
      <trkpt lat="42.98248" lon="2.02707">
        <ele>399.1</ele>
        <time>2013-11-16T12:39:17.000Z</time>
      </trkpt>
      <trkpt lat="42.98251" lon="2.02702">
        <ele>396.7</ele>
        <time>2013-11-16T12:39:18.000Z</time>
      </trkpt>
      <trkpt lat="42.98254" lon="2.02697">
        <ele>397.2</ele>
        <time>2013-11-16T12:39:19.000Z</time>
      </trkpt>
      <trkpt lat="42.98267" lon="2.02675">
        <ele>396.7</ele>
        <time>2013-11-16T12:39:24.000Z</time>
      </trkpt>
      <trkpt lat="42.98269" lon="2.0267">
        <ele>397.2</ele>
        <time>2013-11-16T12:39:25.000Z</time>
      </trkpt>
      <trkpt lat="42.98272" lon="2.02665">
        <ele>395.7</ele>
        <time>2013-11-16T12:39:26.000Z</time>
      </trkpt>
      <trkpt lat="42.98275" lon="2.02661">
        <ele>397.6</ele>
        <time>2013-11-16T12:39:27.000Z</time>
      </trkpt>
      <trkpt lat="42.98278" lon="2.02656">
        <ele>397.2</ele>
        <time>2013-11-16T12:39:28.000Z</time>
      </trkpt>
      <trkpt lat="42.98306" lon="2.02626">
        <ele>396.2</ele>
        <time>2013-11-16T12:39:36.000Z</time>
      </trkpt>
      <trkpt lat="42.98311" lon="2.02623">
        <ele>394.8</ele>
        <time>2013-11-16T12:39:37.000Z</time>
      </trkpt>
      <trkpt lat="42.98325" lon="2.0262">
        <ele>395.7</ele>
        <time>2013-11-16T12:39:40.000Z</time>
      </trkpt>
      <trkpt lat="42.98347" lon="2.02615">
        <ele>394.3</ele>
        <time>2013-11-16T12:39:46.000Z</time>
      </trkpt>
      <trkpt lat="42.98361" lon="2.02614">
        <ele>393.8</ele>
        <time>2013-11-16T12:39:54.000Z</time>
      </trkpt>
      <trkpt lat="42.9839" lon="2.02602">
        <ele>393.3</ele>
        <time>2013-11-16T12:40:08.000Z</time>
      </trkpt>
      <trkpt lat="42.98403" lon="2.02592">
        <ele>395.2</ele>
        <time>2013-11-16T12:40:12.000Z</time>
      </trkpt>
      <trkpt lat="42.98422" lon="2.02571">
        <ele>394.3</ele>
        <time>2013-11-16T12:40:18.000Z</time>
      </trkpt>
      <trkpt lat="42.98446" lon="2.02521">
        <ele>392.4</ele>
        <time>2013-11-16T12:40:29.000Z</time>
      </trkpt>
      <trkpt lat="42.98449" lon="2.02509">
        <ele>393.3</ele>
        <time>2013-11-16T12:40:31.000Z</time>
      </trkpt>
      <trkpt lat="42.9845" lon="2.02503">
        <ele>391.9</ele>
        <time>2013-11-16T12:40:32.000Z</time>
      </trkpt>
      <trkpt lat="42.9845" lon="2.02497">
        <ele>393.8</ele>
        <time>2013-11-16T12:40:33.000Z</time>
      </trkpt>
      <trkpt lat="42.9845" lon="2.02486">
        <ele>392.4</ele>
        <time>2013-11-16T12:40:35.000Z</time>
      </trkpt>
      <trkpt lat="42.98449" lon="2.0248">
        <ele>392.4</ele>
        <time>2013-11-16T12:40:36.000Z</time>
      </trkpt>
      <trkpt lat="42.98447" lon="2.02475">
        <ele>393.3</ele>
        <time>2013-11-16T12:40:37.000Z</time>
      </trkpt>
      <trkpt lat="42.98445" lon="2.02469">
        <ele>392.4</ele>
        <time>2013-11-16T12:40:38.000Z</time>
      </trkpt>
      <trkpt lat="42.98444" lon="2.02464">
        <ele>391.4</ele>
        <time>2013-11-16T12:40:39.000Z</time>
      </trkpt>
      <trkpt lat="42.98445" lon="2.02422">
        <ele>390.9</ele>
        <time>2013-11-16T12:40:47.000Z</time>
      </trkpt>
      <trkpt lat="42.98447" lon="2.02417">
        <ele>391.9</ele>
        <time>2013-11-16T12:40:48.000Z</time>
      </trkpt>
      <trkpt lat="42.98453" lon="2.024">
        <ele>390.4</ele>
        <time>2013-11-16T12:40:51.000Z</time>
      </trkpt>
      <trkpt lat="42.98454" lon="2.02395">
        <ele>390.4</ele>
        <time>2013-11-16T12:40:52.000Z</time>
      </trkpt>
      <trkpt lat="42.98458" lon="2.02366">
        <ele>391.9</ele>
        <time>2013-11-16T12:40:57.000Z</time>
      </trkpt>
      <trkpt lat="42.9846" lon="2.02359">
        <ele>392.8</ele>
        <time>2013-11-16T12:40:58.000Z</time>
      </trkpt>
      <trkpt lat="42.9847" lon="2.02323">
        <ele>390.4</ele>
        <time>2013-11-16T12:41:04.000Z</time>
      </trkpt>
      <trkpt lat="42.98472" lon="2.02318">
        <ele>390.4</ele>
        <time>2013-11-16T12:41:05.000Z</time>
      </trkpt>
      <trkpt lat="42.98475" lon="2.02313">
        <ele>391.4</ele>
        <time>2013-11-16T12:41:06.000Z</time>
      </trkpt>
      <trkpt lat="42.98479" lon="2.02308">
        <ele>390.9</ele>
        <time>2013-11-16T12:41:07.000Z</time>
      </trkpt>
      <trkpt lat="42.98482" lon="2.02303">
        <ele>390</ele>
        <time>2013-11-16T12:41:08.000Z</time>
      </trkpt>
      <trkpt lat="42.98486" lon="2.02298">
        <ele>390</ele>
        <time>2013-11-16T12:41:09.000Z</time>
      </trkpt>
      <trkpt lat="42.98493" lon="2.02288">
        <ele>389.5</ele>
        <time>2013-11-16T12:41:11.000Z</time>
      </trkpt>
      <trkpt lat="42.98542" lon="2.02204">
        <ele>389.5</ele>
        <time>2013-11-16T12:41:26.000Z</time>
      </trkpt>
      <trkpt lat="42.98555" lon="2.0218">
        <ele>388</ele>
        <time>2013-11-16T12:41:30.000Z</time>
      </trkpt>
      <trkpt lat="42.98557" lon="2.02174">
        <ele>387.6</ele>
        <time>2013-11-16T12:41:31.000Z</time>
      </trkpt>
      <trkpt lat="42.9856" lon="2.02168">
        <ele>388.5</ele>
        <time>2013-11-16T12:41:32.000Z</time>
      </trkpt>
      <trkpt lat="42.98591" lon="2.02096">
        <ele>387.6</ele>
        <time>2013-11-16T12:41:44.000Z</time>
      </trkpt>
      <trkpt lat="42.98595" lon="2.02092">
        <ele>387.1</ele>
        <time>2013-11-16T12:41:45.000Z</time>
      </trkpt>
      <trkpt lat="42.98599" lon="2.02088">
        <ele>387.1</ele>
        <time>2013-11-16T12:41:46.000Z</time>
      </trkpt>
      <trkpt lat="42.98603" lon="2.02085">
        <ele>386.6</ele>
        <time>2013-11-16T12:41:47.000Z</time>
      </trkpt>
      <trkpt lat="42.98608" lon="2.02082">
        <ele>385.6</ele>
        <time>2013-11-16T12:41:48.000Z</time>
      </trkpt>
      <trkpt lat="42.98613" lon="2.0208">
        <ele>386.6</ele>
        <time>2013-11-16T12:41:49.000Z</time>
      </trkpt>
      <trkpt lat="42.98618" lon="2.02078">
        <ele>387.1</ele>
        <time>2013-11-16T12:41:50.000Z</time>
      </trkpt>
      <trkpt lat="42.98623" lon="2.02076">
        <ele>385.6</ele>
        <time>2013-11-16T12:41:51.000Z</time>
      </trkpt>
      <trkpt lat="42.98629" lon="2.02076">
        <ele>384.7</ele>
        <time>2013-11-16T12:41:52.000Z</time>
      </trkpt>
      <trkpt lat="42.98634" lon="2.02077">
        <ele>385.6</ele>
        <time>2013-11-16T12:41:53.000Z</time>
      </trkpt>
      <trkpt lat="42.9864" lon="2.02077">
        <ele>386.1</ele>
        <time>2013-11-16T12:41:54.000Z</time>
      </trkpt>
      <trkpt lat="42.98645" lon="2.02078">
        <ele>386.6</ele>
        <time>2013-11-16T12:41:55.000Z</time>
      </trkpt>
      <trkpt lat="42.98651" lon="2.02078">
        <ele>385.6</ele>
        <time>2013-11-16T12:41:56.000Z</time>
      </trkpt>
      <trkpt lat="42.98656" lon="2.02076">
        <ele>385.6</ele>
        <time>2013-11-16T12:41:57.000Z</time>
      </trkpt>
      <trkpt lat="42.9866" lon="2.02074">
        <ele>386.1</ele>
        <time>2013-11-16T12:41:58.000Z</time>
      </trkpt>
      <trkpt lat="42.98665" lon="2.02071">
        <ele>385.2</ele>
        <time>2013-11-16T12:41:59.000Z</time>
      </trkpt>
      <trkpt lat="42.98668" lon="2.02066">
        <ele>385.6</ele>
        <time>2013-11-16T12:42:00.000Z</time>
      </trkpt>
      <trkpt lat="42.98671" lon="2.02061">
        <ele>384.7</ele>
        <time>2013-11-16T12:42:01.000Z</time>
      </trkpt>
      <trkpt lat="42.98674" lon="2.02056">
        <ele>385.2</ele>
        <time>2013-11-16T12:42:02.000Z</time>
      </trkpt>
      <trkpt lat="42.9868" lon="2.02039">
        <ele>385.6</ele>
        <time>2013-11-16T12:42:05.000Z</time>
      </trkpt>
      <trkpt lat="42.98681" lon="2.02034">
        <ele>384.7</ele>
        <time>2013-11-16T12:42:06.000Z</time>
      </trkpt>
      <trkpt lat="42.98682" lon="2.02029">
        <ele>383.7</ele>
        <time>2013-11-16T12:42:07.000Z</time>
      </trkpt>
      <trkpt lat="42.98696" lon="2.01994">
        <ele>383.7</ele>
        <time>2013-11-16T12:42:19.000Z</time>
      </trkpt>
      <trkpt lat="42.98717" lon="2.01967">
        <ele>387.1</ele>
        <time>2013-11-16T12:42:28.000Z</time>
      </trkpt>
      <trkpt lat="42.98722" lon="2.01964">
        <ele>388</ele>
        <time>2013-11-16T12:42:30.000Z</time>
      </trkpt>
      <trkpt lat="42.98736" lon="2.01961">
        <ele>388.5</ele>
        <time>2013-11-16T12:42:39.000Z</time>
      </trkpt>
      <trkpt lat="42.98738" lon="2.0196">
        <ele>389.5</ele>
        <time>2013-11-16T12:42:40.000Z</time>
      </trkpt>
      <trkpt lat="42.98739" lon="2.01958">
        <ele>389</ele>
        <time>2013-11-16T12:42:41.000Z</time>
      </trkpt>
      <trkpt lat="42.9874" lon="2.01956">
        <ele>389</ele>
        <time>2013-11-16T12:42:42.000Z</time>
      </trkpt>
      <trkpt lat="42.98742" lon="2.01954">
        <ele>390</ele>
        <time>2013-11-16T12:42:43.000Z</time>
      </trkpt>
      <trkpt lat="42.98744" lon="2.01951">
        <ele>387.6</ele>
        <time>2013-11-16T12:42:44.000Z</time>
      </trkpt>
      <trkpt lat="42.98745" lon="2.01948">
        <ele>389</ele>
        <time>2013-11-16T12:42:45.000Z</time>
      </trkpt>
      <trkpt lat="42.98747" lon="2.01944">
        <ele>389.5</ele>
        <time>2013-11-16T12:42:46.000Z</time>
      </trkpt>
      <trkpt lat="42.98748" lon="2.0194">
        <ele>389</ele>
        <time>2013-11-16T12:42:47.000Z</time>
      </trkpt>
      <trkpt lat="42.98749" lon="2.01935">
        <ele>388</ele>
        <time>2013-11-16T12:42:48.000Z</time>
      </trkpt>
      <trkpt lat="42.98751" lon="2.01931">
        <ele>389.5</ele>
        <time>2013-11-16T12:42:49.000Z</time>
      </trkpt>
      <trkpt lat="42.98752" lon="2.01927">
        <ele>388</ele>
        <time>2013-11-16T12:42:50.000Z</time>
      </trkpt>
      <trkpt lat="42.9876" lon="2.01869">
        <ele>389.5</ele>
        <time>2013-11-16T12:43:01.000Z</time>
      </trkpt>
      <trkpt lat="42.9876" lon="2.01864">
        <ele>388.5</ele>
        <time>2013-11-16T12:43:02.000Z</time>
      </trkpt>
      <trkpt lat="42.9876" lon="2.01852">
        <ele>388</ele>
        <time>2013-11-16T12:43:04.000Z</time>
      </trkpt>
      <trkpt lat="42.98759" lon="2.01846">
        <ele>387.1</ele>
        <time>2013-11-16T12:43:05.000Z</time>
      </trkpt>
      <trkpt lat="42.98752" lon="2.01755">
        <ele>390.4</ele>
        <time>2013-11-16T12:43:19.000Z</time>
      </trkpt>
      <trkpt lat="42.98752" lon="2.01741">
        <ele>386.6</ele>
        <time>2013-11-16T12:43:21.000Z</time>
      </trkpt>
      <trkpt lat="42.98751" lon="2.01735">
        <ele>387.6</ele>
        <time>2013-11-16T12:43:22.000Z</time>
      </trkpt>
      <trkpt lat="42.98745" lon="2.01636">
        <ele>387.6</ele>
        <time>2013-11-16T12:43:35.000Z</time>
      </trkpt>
      <trkpt lat="42.98739" lon="2.01586">
        <ele>384.2</ele>
        <time>2013-11-16T12:43:41.000Z</time>
      </trkpt>
      <trkpt lat="42.98738" lon="2.01577">
        <ele>384.7</ele>
        <time>2013-11-16T12:43:42.000Z</time>
      </trkpt>
      <trkpt lat="42.98736" lon="2.01563">
        <ele>384.7</ele>
        <time>2013-11-16T12:43:44.000Z</time>
      </trkpt>
      <trkpt lat="42.9873" lon="2.01517">
        <ele>383.2</ele>
        <time>2013-11-16T12:43:53.000Z</time>
      </trkpt>
      <trkpt lat="42.98717" lon="2.01419">
        <ele>382.3</ele>
        <time>2013-11-16T12:44:08.000Z</time>
      </trkpt>
      <trkpt lat="42.98701" lon="2.01324">
        <ele>379.9</ele>
        <time>2013-11-16T12:44:21.000Z</time>
      </trkpt>
      <trkpt lat="42.98701" lon="2.01317">
        <ele>381.8</ele>
        <time>2013-11-16T12:44:22.000Z</time>
      </trkpt>
      <trkpt lat="42.98688" lon="2.01239">
        <ele>378.9</ele>
        <time>2013-11-16T12:44:33.000Z</time>
      </trkpt>
      <trkpt lat="42.98686" lon="2.01232">
        <ele>378.9</ele>
        <time>2013-11-16T12:44:34.000Z</time>
      </trkpt>
      <trkpt lat="42.98681" lon="2.01196">
        <ele>379.4</ele>
        <time>2013-11-16T12:44:39.000Z</time>
      </trkpt>
      <trkpt lat="42.98679" lon="2.01188">
        <ele>378.4</ele>
        <time>2013-11-16T12:44:40.000Z</time>
      </trkpt>
      <trkpt lat="42.98678" lon="2.0118">
        <ele>378.4</ele>
        <time>2013-11-16T12:44:41.000Z</time>
      </trkpt>
      <trkpt lat="42.98672" lon="2.01148">
        <ele>377.5</ele>
        <time>2013-11-16T12:44:45.000Z</time>
      </trkpt>
      <trkpt lat="42.9867" lon="2.0114">
        <ele>377.5</ele>
        <time>2013-11-16T12:44:46.000Z</time>
      </trkpt>
      <trkpt lat="42.98637" lon="2.01041">
        <ele>376</ele>
        <time>2013-11-16T12:44:59.000Z</time>
      </trkpt>
      <trkpt lat="42.98622" lon="2.00986">
        <ele>377</ele>
        <time>2013-11-16T12:45:06.000Z</time>
      </trkpt>
      <trkpt lat="42.98622" lon="2.00979">
        <ele>375.1</ele>
        <time>2013-11-16T12:45:07.000Z</time>
      </trkpt>
      <trkpt lat="42.98622" lon="2.00971">
        <ele>376.5</ele>
        <time>2013-11-16T12:45:08.000Z</time>
      </trkpt>
      <trkpt lat="42.98622" lon="2.00956">
        <ele>375.5</ele>
        <time>2013-11-16T12:45:10.000Z</time>
      </trkpt>
      <trkpt lat="42.98626" lon="2.0088">
        <ele>375.1</ele>
        <time>2013-11-16T12:45:20.000Z</time>
      </trkpt>
      <trkpt lat="42.98625" lon="2.00873">
        <ele>375.5</ele>
        <time>2013-11-16T12:45:21.000Z</time>
      </trkpt>
      <trkpt lat="42.98623" lon="2.00865">
        <ele>375.1</ele>
        <time>2013-11-16T12:45:22.000Z</time>
      </trkpt>
      <trkpt lat="42.98618" lon="2.00843">
        <ele>374.1</ele>
        <time>2013-11-16T12:45:25.000Z</time>
      </trkpt>
      <trkpt lat="42.98582" lon="2.00769">
        <ele>372.2</ele>
        <time>2013-11-16T12:45:36.000Z</time>
      </trkpt>
      <trkpt lat="42.98552" lon="2.0072">
        <ele>370.7</ele>
        <time>2013-11-16T12:45:45.000Z</time>
      </trkpt>
      <trkpt lat="42.98516" lon="2.00663">
        <ele>370.7</ele>
        <time>2013-11-16T12:45:57.000Z</time>
      </trkpt>
      <trkpt lat="42.98511" lon="2.00659">
        <ele>369.3</ele>
        <time>2013-11-16T12:45:59.000Z</time>
      </trkpt>
      <trkpt lat="42.98508" lon="2.00659">
        <ele>368.8</ele>
        <time>2013-11-16T12:46:00.000Z</time>
      </trkpt>
      <trkpt lat="42.98504" lon="2.0066">
        <ele>369.8</ele>
        <time>2013-11-16T12:46:01.000Z</time>
      </trkpt>
      <trkpt lat="42.98498" lon="2.00664">
        <ele>370.7</ele>
        <time>2013-11-16T12:46:03.000Z</time>
      </trkpt>
      <trkpt lat="42.98451" lon="2.00695">
        <ele>369.3</ele>
        <time>2013-11-16T12:46:18.000Z</time>
      </trkpt>
      <trkpt lat="42.9844" lon="2.00702">
        <ele>368.8</ele>
        <time>2013-11-16T12:46:22.000Z</time>
      </trkpt>
      <trkpt lat="42.98434" lon="2.00706">
        <ele>369.3</ele>
        <time>2013-11-16T12:46:24.000Z</time>
      </trkpt>
      <trkpt lat="42.98397" lon="2.00734">
        <ele>368.8</ele>
        <time>2013-11-16T12:46:36.000Z</time>
      </trkpt>
      <trkpt lat="42.98393" lon="2.00738">
        <ele>367.8</ele>
        <time>2013-11-16T12:46:37.000Z</time>
      </trkpt>
      <trkpt lat="42.9839" lon="2.00742">
        <ele>368.3</ele>
        <time>2013-11-16T12:46:38.000Z</time>
      </trkpt>
      <trkpt lat="42.98387" lon="2.00745">
        <ele>368.8</ele>
        <time>2013-11-16T12:46:39.000Z</time>
      </trkpt>
      <trkpt lat="42.98384" lon="2.00748">
        <ele>368.3</ele>
        <time>2013-11-16T12:46:40.000Z</time>
      </trkpt>
      <trkpt lat="42.9838" lon="2.00751">
        <ele>368.8</ele>
        <time>2013-11-16T12:46:41.000Z</time>
      </trkpt>
      <trkpt lat="42.98372" lon="2.00756">
        <ele>372.2</ele>
        <time>2013-11-16T12:46:44.000Z</time>
      </trkpt>
      <trkpt lat="42.98368" lon="2.00758">
        <ele>367.8</ele>
        <time>2013-11-16T12:46:46.000Z</time>
      </trkpt>
      <trkpt lat="42.98367" lon="2.00759">
        <ele>368.3</ele>
        <time>2013-11-16T12:46:47.000Z</time>
      </trkpt>
      <trkpt lat="42.98366" lon="2.0076">
        <ele>368.8</ele>
        <time>2013-11-16T12:47:05.000Z</time>
      </trkpt>
      <trkpt lat="42.98365" lon="2.0076">
        <ele>369.8</ele>
        <time>2013-11-16T12:47:06.000Z</time>
      </trkpt>
      <trkpt lat="42.98363" lon="2.00758">
        <ele>369.8</ele>
        <time>2013-11-16T12:47:07.000Z</time>
      </trkpt>
      <trkpt lat="42.98361" lon="2.00758">
        <ele>368.8</ele>
        <time>2013-11-16T12:47:08.000Z</time>
      </trkpt>
      <trkpt lat="42.98359" lon="2.00758">
        <ele>369.8</ele>
        <time>2013-11-16T12:47:09.000Z</time>
      </trkpt>
      <trkpt lat="42.98357" lon="2.00759">
        <ele>368.8</ele>
        <time>2013-11-16T12:47:10.000Z</time>
      </trkpt>
      <trkpt lat="42.98319" lon="2.00747">
        <ele>367.8</ele>
        <time>2013-11-16T12:47:23.000Z</time>
      </trkpt>
      <trkpt lat="42.983" lon="2.00734">
        <ele>366.4</ele>
        <time>2013-11-16T12:47:34.000Z</time>
      </trkpt>
      <trkpt lat="42.98282" lon="2.00722">
        <ele>367.4</ele>
        <time>2013-11-16T12:47:44.000Z</time>
      </trkpt>
      <trkpt lat="42.98278" lon="2.00723">
        <ele>366.9</ele>
        <time>2013-11-16T12:47:49.000Z</time>
      </trkpt>
      <trkpt lat="42.98278" lon="2.00721">
        <ele>366.4</ele>
        <time>2013-11-16T12:47:51.000Z</time>
      </trkpt>
      <trkpt lat="42.98278" lon="2.00717">
        <ele>364.5</ele>
        <time>2013-11-16T12:47:54.000Z</time>
      </trkpt>
      <trkpt lat="42.98275" lon="2.00716">
        <ele>364.5</ele>
        <time>2013-11-16T12:47:57.000Z</time>
      </trkpt>
      <trkpt lat="42.98274" lon="2.00716">
        <ele>365</ele>
        <time>2013-11-16T12:47:58.000Z</time>
      </trkpt>
      <trkpt lat="42.98272" lon="2.00716">
        <ele>365.4</ele>
        <time>2013-11-16T12:47:59.000Z</time>
      </trkpt>
      <trkpt lat="42.98267" lon="2.00713">
        <ele>364.5</ele>
        <time>2013-11-16T12:48:03.000Z</time>
      </trkpt>
      <trkpt lat="42.98266" lon="2.00712">
        <ele>365</ele>
        <time>2013-11-16T12:48:04.000Z</time>
      </trkpt>
      <trkpt lat="42.98238" lon="2.00695">
        <ele>379.9</ele>
        <time>2013-11-16T13:03:08.000Z</time>
      </trkpt>
      <trkpt lat="42.98261" lon="2.00625">
        <ele>380</ele>
        <time>2013-11-16T13:10:40.000Z</time>
      </trkpt>
      <trkpt lat="42.98281" lon="2.00551">
        <ele>377.5</ele>
        <time>2013-11-16T13:18:12.000Z</time>
      </trkpt>
      <trkpt lat="42.98262" lon="2.00548">
        <ele>381.3</ele>
        <time>2013-11-16T13:18:21.000Z</time>
      </trkpt>
      <trkpt lat="42.98255" lon="2.00542">
        <ele>380.3</ele>
        <time>2013-11-16T13:18:23.000Z</time>
      </trkpt>
      <trkpt lat="42.98251" lon="2.0054">
        <ele>380.8</ele>
        <time>2013-11-16T13:18:24.000Z</time>
      </trkpt>
      <trkpt lat="42.98233" lon="2.00536">
        <ele>380.8</ele>
        <time>2013-11-16T13:18:28.000Z</time>
      </trkpt>
      <trkpt lat="42.98225" lon="2.00536">
        <ele>380.3</ele>
        <time>2013-11-16T13:18:30.000Z</time>
      </trkpt>
      <trkpt lat="42.9822" lon="2.00534">
        <ele>380.3</ele>
        <time>2013-11-16T13:18:31.000Z</time>
      </trkpt>
      <trkpt lat="42.98195" lon="2.00513">
        <ele>380.8</ele>
        <time>2013-11-16T13:18:40.000Z</time>
      </trkpt>
      <trkpt lat="42.98195" lon="2.0051">
        <ele>380.3</ele>
        <time>2013-11-16T13:18:41.000Z</time>
      </trkpt>
      <trkpt lat="42.98195" lon="2.00504">
        <ele>380.8</ele>
        <time>2013-11-16T13:18:42.000Z</time>
      </trkpt>
      <trkpt lat="42.98196" lon="2.00498">
        <ele>380.3</ele>
        <time>2013-11-16T13:18:43.000Z</time>
      </trkpt>
      <trkpt lat="42.98198" lon="2.00492">
        <ele>379.9</ele>
        <time>2013-11-16T13:18:44.000Z</time>
      </trkpt>
      <trkpt lat="42.982" lon="2.00487">
        <ele>379.4</ele>
        <time>2013-11-16T13:18:45.000Z</time>
      </trkpt>
      <trkpt lat="42.98203" lon="2.00481">
        <ele>378.4</ele>
        <time>2013-11-16T13:18:46.000Z</time>
      </trkpt>
      <trkpt lat="42.98205" lon="2.00476">
        <ele>377.9</ele>
        <time>2013-11-16T13:18:47.000Z</time>
      </trkpt>
      <trkpt lat="42.98206" lon="2.00469">
        <ele>378.4</ele>
        <time>2013-11-16T13:18:48.000Z</time>
      </trkpt>
      <trkpt lat="42.98206" lon="2.00463">
        <ele>378.4</ele>
        <time>2013-11-16T13:18:49.000Z</time>
      </trkpt>
      <trkpt lat="42.98206" lon="2.00457">
        <ele>377.5</ele>
        <time>2013-11-16T13:18:50.000Z</time>
      </trkpt>
      <trkpt lat="42.98207" lon="2.0045">
        <ele>377.9</ele>
        <time>2013-11-16T13:18:51.000Z</time>
      </trkpt>
      <trkpt lat="42.98207" lon="2.00443">
        <ele>377.9</ele>
        <time>2013-11-16T13:18:52.000Z</time>
      </trkpt>
      <trkpt lat="42.98209" lon="2.0037">
        <ele>379.4</ele>
        <time>2013-11-16T13:19:02.000Z</time>
      </trkpt>
      <trkpt lat="42.98209" lon="2.00363">
        <ele>379.9</ele>
        <time>2013-11-16T13:19:03.000Z</time>
      </trkpt>
      <trkpt lat="42.9821" lon="2.0031">
        <ele>380.3</ele>
        <time>2013-11-16T13:19:11.000Z</time>
      </trkpt>
      <trkpt lat="42.9821" lon="2.00304">
        <ele>380.3</ele>
        <time>2013-11-16T13:19:12.000Z</time>
      </trkpt>
      <trkpt lat="42.9821" lon="2.00242">
        <ele>381.3</ele>
        <time>2013-11-16T13:19:21.000Z</time>
      </trkpt>
      <trkpt lat="42.98207" lon="2.00228">
        <ele>380.8</ele>
        <time>2013-11-16T13:19:23.000Z</time>
      </trkpt>
      <trkpt lat="42.98203" lon="2.00224">
        <ele>380.8</ele>
        <time>2013-11-16T13:19:24.000Z</time>
      </trkpt>
      <trkpt lat="42.98219" lon="2.00211">
        <ele>379.9</ele>
        <time>2013-11-16T13:19:25.000Z</time>
      </trkpt>
      <trkpt lat="42.98237" lon="2.00205">
        <ele>381.3</ele>
        <time>2013-11-16T13:19:26.000Z</time>
      </trkpt>
      <trkpt lat="42.98259" lon="2.00203">
        <ele>381.3</ele>
        <time>2013-11-16T13:19:27.000Z</time>
      </trkpt>
      <trkpt lat="42.98276" lon="2.00177">
        <ele>381.8</ele>
        <time>2013-11-16T13:19:28.000Z</time>
      </trkpt>
      <trkpt lat="42.98291" lon="2.00153">
        <ele>380.3</ele>
        <time>2013-11-16T13:19:43.000Z</time>
      </trkpt>
    </trkseg>
  </trk>
</gpx>